ECMWFNIL_500_spd_000.txt.gz
Wind_Speed
46 49 50 52 53 53 53 53 53 52 52 52 52 52 52 53 54 56 56 57 58 59 61 62 62 63 63 63 63 64 64 65 65 67 68 70 71 72 73 73 73 73
43 46 49 50 51 52 53 53 53 53 53 53 53 54 54 55 56 57 58 59 60 61 63 64 64 64 64 64 64 64 64 65 67 69 70 72 73 74 74 74 74 73
40 42 45 48 49 50 52 52 53 54 55 55 56 56 56 57 58 59 60 61 62 63 64 65 66 66 65 65 65 65 66 68 69 71 73 74 74 75 75 74 73 74
41 40 41 45 47 49 51 52 54 55 56 57 58 59 59 60 61 62 63 63 64 65 66 67 67 67 66 66 66 67 68 70 71 73 74 75 75 76 75 75 75 76
45 43 42 45 48 49 51 53 55 56 58 59 61 61 62 62 63 64 65 66 66 67 68 68 68 68 67 67 68 69 70 71 72 73 74 75 75 75 75 76 77 79
48 48 47 47 50 52 53 54 56 57 59 61 63 64 64 65 65 66 67 68 68 69 69 69 69 68 68 68 69 70 71 72 73 74 75 75 75 75 76 78 79 81
53 52 52 52 53 55 56 57 58 60 62 64 65 66 66 67 67 67 68 69 70 71 71 70 70 69 69 69 71 72 73 74 74 75 75 75 75 77 79 80 81 81
56 55 55 55 55 56 56 57 59 61 63 65 66 67 68 68 68 68 69 70 71 72 72 71 71 70 71 72 73 74 74 74 75 75 75 76 77 79 80 81 81 82
56 55 55 55 55 56 56 57 59 61 62 64 66 68 68 69 69 69 69 70 71 72 72 72 71 71 72 73 74 74 75 75 76 76 77 78 79 80 81 81 82 82
55 55 55 55 56 57 58 59 61 61 62 64 66 68 69 69 69 68 68 69 70 71 72 71 72 72 73 74 75 75 76 76 77 78 78 79 79 80 81 81 82 82
57 58 58 59 59 60 61 63 64 65 65 66 67 68 69 69 69 68 69 70 71 71 71 71 71 72 73 74 75 76 76 77 78 78 78 78 79 80 81 81 82 82
60 61 61 62 62 63 65 67 68 68 68 68 69 69 70 70 69 69 69 70 71 71 71 71 72 73 74 75 76 76 76 76 76 76 76 77 79 80 80 81 81 81
61 62 63 64 65 66 68 69 70 70 70 69 69 69 69 69 69 69 69 70 70 70 71 71 72 73 74 75 75 74 73 72 73 74 75 77 78 78 79 79 80 80
61 62 64 65 67 68 70 71 71 71 70 69 68 68 67 67 67 68 68 69 70 70 70 71 73 74 75 74 71 69 68 69 71 72 73 74 75 76 77 78 78 79
62 63 65 67 69 70 71 71 70 69 68 67 66 66 65 65 65 66 66 67 68 69 71 72 74 75 74 71 67 67 68 69 69 70 71 73 74 75 75 75 76 77
64 65 66 67 68 68 68 67 65 64 63 62 63 62 62 63 63 64 64 65 67 70 72 73 74 74 72 69 68 68 68 68 68 69 72 73 74 74 74 74 76 76
64 65 65 65 64 64 62 60 59 58 58 59 59 60 60 60 61 61 63 65 68 71 72 73 73 73 72 70 69 69 68 67 69 71 72 73 73 73 74 75 76 77
62 62 61 61 60 60 59 59 59 59 60 61 61 61 62 62 61 62 64 67 70 72 74 74 74 72 71 70 70 70 69 69 70 70 71 72 72 74 75 76 77 78
60 59 59 59 60 60 60 61 63 64 64 64 63 63 63 63 63 64 66 70 73 75 76 77 75 72 70 70 70 70 70 69 68 69 70 71 73 75 76 77 78 80
61 61 62 62 63 64 64 66 66 66 65 64 63 63 63 64 65 67 70 73 75 77 78 77 75 71 69 69 69 68 67 67 67 69 70 72 74 75 76 77 79 81
66 66 67 67 68 67 66 65 64 63 62 61 61 62 63 64 66 67 68 69 70 73 76 76 72 69 67 67 66 66 65 66 68 69 71 73 74 74 75 76 78 81
71 70 69 67 65 64 62 59 58 58 58 58 59 61 63 65 66 67 66 65 67 71 74 74 70 67 66 66 66 66 66 67 69 70 71 72 72 72 73 75 77 79
69 67 64 62 59 58 57 55 54 55 56 57 59 62 65 68 70 69 66 65 67 70 72 71 69 67 66 66 66 67 67 68 69 70 70 70 70 70 71 73 75 77
63 61 59 57 56 55 54 54 55 56 58 59 60 63 65 67 69 68 65 63 64 67 69 70 70 69 68 68 68 68 69 69 69 68 68 68 68 68 70 71 73 74
59 57 55 54 53 55 56 57 59 60 60 61 62 63 65 67 68 67 66 64 63 64 65 67 69 70 70 70 70 70 70 69 68 67 67 67 67 67 68 69 70 71
56 53 53 54 57 60 61 61 61 61 62 64 66 67 69 69 67 65 64 65 65 65 64 64 67 70 72 72 72 71 70 67 66 67 67 66 66 66 66 67 68 69

ECMWFNIL_500_spd_003.txt.gz
Wind_Speed
49 49 49 50 50 49 47 45 43 45 51 53 53 53 53 53 53 52 53 53 53 53 53 53 53 54 55 56 57 58 59 61 62 62 63 64 64 65 65 65 66 66
49 49 50 51 52 52 50 50 48 46 48 51 53 53 53 53 53 53 53 53 53 54 54 55 56 57 58 59 59 60 62 63 64 64 65 66 66 66 65 65 65 66
50 50 50 51 52 54 53 52 53 51 49 50 53 54 54 54 54 54 54 54 54 55 56 58 59 60 60 61 61 62 64 65 66 66 66 67 67 67 66 66 65 66
53 52 51 51 51 52 53 52 53 53 53 53 54 56 57 56 57 57 57 57 58 59 60 60 61 61 61 62 63 64 66 67 68 67 67 67 68 67 67 66 66 66
54 52 51 51 51 50 51 52 52 53 54 55 56 58 59 59 60 60 60 60 60 60 60 61 61 61 62 62 64 66 68 69 69 68 68 68 69 68 67 67 66 67
53 52 52 52 51 51 50 50 51 51 52 53 54 56 58 59 59 60 59 58 58 58 59 60 61 62 63 64 66 68 70 71 71 71 70 70 69 69 68 68 67 67
53 52 51 51 51 51 50 50 51 50 50 50 51 53 55 57 57 58 58 57 57 59 60 62 63 64 66 67 70 71 73 74 73 72 72 71 70 69 69 68 68 68
52 51 50 50 51 51 50 51 52 51 50 51 52 53 55 57 58 58 59 59 60 61 63 64 66 67 69 70 72 74 75 75 74 73 72 71 70 70 69 69 69 69
51 51 51 50 50 50 50 51 52 52 53 54 55 57 58 59 60 60 60 61 62 63 64 66 68 69 71 72 74 75 76 76 74 73 72 71 71 70 70 70 69 69
51 52 51 49 49 49 51 52 54 55 56 57 58 59 60 61 61 61 62 63 64 65 66 68 69 70 71 72 74 75 75 74 73 72 71 70 70 70 69 68 68 69
51 50 49 49 50 51 53 54 55 56 58 59 60 60 61 62 62 62 64 65 66 67 68 68 68 68 69 70 71 71 71 71 70 69 68 67 67 68 68 69 70 71
51 50 50 50 52 53 54 55 56 57 58 59 60 60 61 63 64 65 66 67 67 67 67 66 66 65 65 65 65 65 66 66 65 63 63 64 65 67 69 71 72 72
51 52 52 53 55 56 57 58 58 58 59 60 61 61 63 64 65 66 66 67 66 66 65 63 62 62 61 61 61 61 62 62 61 61 62 65 68 71 72 73 73 74
54 55 56 58 59 59 59 58 58 59 60 62 62 63 64 65 65 66 66 65 64 63 62 61 62 62 62 62 63 63 63 62 61 62 64 68 72 73 72 72 72 74
57 59 60 61 60 59 58 57 58 60 62 63 64 64 64 64 63 63 63 63 62 62 62 62 64 65 65 65 65 63 62 61 62 63 65 68 70 70 69 70 72 74
59 61 61 61 60 58 58 59 60 61 63 64 63 63 62 61 61 62 62 62 62 63 63 64 65 66 66 65 64 62 61 61 62 63 65 65 66 66 67 69 72 75
59 60 61 61 60 60 60 61 62 63 63 63 63 63 62 62 63 63 63 64 65 65 65 65 65 64 63 62 62 62 62 62 63 64 65 65 65 66 67 68 71 74
59 61 61 62 61 62 62 63 63 64 64 64 65 65 65 65 65 65 66 66 65 64 62 61 60 59 59 60 61 62 63 64 65 65 65 65 65 66 67 68 69 71
60 62 63 63 63 63 64 64 64 65 65 66 67 65 64 62 62 62 62 60 59 57 55 55 55 57 60 62 64 66 66 67 67 68 67 66 65 65 66 66 67 68
62 64 65 65 65 65 65 65 65 66 67 66 64 62 59 57 56 56 55 54 53 52 53 54 56 58 61 64 65 66 66 67 68 68 68 66 65 65 65 65 66 66
65 66 67 67 67 67 66 66 66 66 65 63 59 57 55 53 53 52 52 52 53 53 54 56 58 60 62 64 65 66 66 66 66 67 66 64 64 64 64 64 65 66
67 68 69 69 68 67 66 66 66 64 62 59 56 54 52 51 50 51 52 53 54 55 57 58 60 62 65 67 70 70 69 67 65 65 64 64 64 64 64 64 65 66
68 69 68 67 66 66 66 65 63 62 60 58 57 55 52 50 50 51 53 54 56 58 60 61 63 65 68 71 72 73 71 68 66 65 65 65 64 64 63 64 65 67
68 67 66 66 65 64 63 61 61 60 60 59 58 57 55 53 52 53 54 56 58 60 62 64 65 67 70 71 71 69 67 66 64 65 65 63 62 61 62 64 66 68
69 68 68 66 63 61 59 59 60 61 61 61 60 59 58 57 57 57 58 60 62 63 64 65 66 68 69 69 68 65 62 61 61 62 61 60 59 60 62 64 67 69
72 71 69 64 59 58 59 61 62 63 64 63 61 60 60 60 61 61 63 64 64 65 67 67 67 68 68 68 67 64 61 58 59 59 59 58 58 60 63 65 68 70

ECMWFNIL_500_spd_006.txt.gz
Wind_Speed
54 54 54 55 54 54 54 54 53 52 50 48 48 50 51 52 54 56 58 60 62 63 62 61 61 61 60 59 59 59 58 57 56 56 56 57 58 59 60 62 63 63
55 55 56 57 58 58 58 57 56 55 53 51 49 49 51 52 54 57 58 60 61 62 64 64 63 63 62 61 60 60 60 60 60 60 60 62 63 63 64 64 63 63
56 57 58 59 60 60 60 59 58 56 54 53 51 50 51 51 53 55 57 59 60 61 63 63 63 63 62 61 61 61 62 62 62 62 62 63 63 63 62 62 63 63
56 57 58 60 61 61 60 59 58 57 56 56 55 53 52 52 53 55 56 57 58 59 61 62 62 61 61 61 61 61 62 62 61 61 60 60 60 61 61 62 63 64
56 57 59 60 61 61 60 59 59 59 60 60 59 58 55 52 53 55 55 54 54 56 57 58 59 58 58 58 58 59 60 60 60 60 60 60 61 62 62 63 65 66
58 58 59 61 62 61 60 60 60 60 61 61 62 61 57 53 53 53 53 52 51 52 53 54 55 55 55 56 57 59 61 62 62 62 62 63 63 64 65 66 67 69
59 60 61 62 62 62 61 62 62 61 62 63 62 60 56 54 53 53 53 52 51 51 51 52 54 55 56 58 60 62 64 65 64 64 65 65 65 66 67 68 69 70
60 60 61 62 62 62 62 63 64 63 64 64 62 59 56 54 54 53 53 52 51 52 52 53 55 57 59 61 63 64 65 65 65 66 66 66 67 68 68 69 69 70
61 61 61 62 62 63 64 65 65 65 65 64 61 59 57 55 54 53 52 52 52 52 53 55 57 59 60 62 62 63 63 64 65 66 66 66 67 67 68 68 68 67
61 61 62 63 62 62 63 64 65 65 64 62 60 59 57 54 53 52 52 52 52 53 55 57 59 61 61 61 61 62 64 65 66 65 65 65 66 66 66 66 65 64
64 63 63 62 61 60 61 62 63 63 63 61 60 58 55 54 53 53 54 55 56 56 57 59 60 61 61 61 62 64 66 66 65 63 63 63 65 65 65 64 64 65
66 65 63 60 58 59 60 61 61 61 60 60 58 57 56 55 56 57 59 59 58 57 57 59 60 61 61 62 64 65 66 65 63 62 62 64 65 66 66 66 67 67
65 64 62 59 58 59 60 60 59 58 57 56 56 57 57 58 60 61 61 60 58 57 58 60 61 61 61 62 63 64 65 64 63 63 63 64 66 67 67 67 67 66
64 64 62 61 60 61 61 59 57 57 56 55 55 57 60 62 63 63 61 59 58 59 59 60 61 61 61 61 63 64 65 65 64 65 66 66 67 67 67 66 65 63
64 64 64 63 61 61 60 59 58 57 57 57 58 59 61 63 64 63 61 59 59 59 60 60 60 61 62 63 65 66 66 66 66 66 66 67 67 65 64 64 63 63
67 66 65 64 62 60 59 59 58 58 59 59 59 59 61 63 63 62 61 59 60 60 60 60 60 61 63 64 65 65 65 65 63 63 63 62 62 61 61 61 62 62
69 67 66 63 61 60 59 58 58 58 59 59 59 60 61 62 62 61 60 59 60 60 60 60 60 61 62 62 61 61 60 59 58 58 58 58 58 59 59 60 61 62
66 65 65 64 62 60 59 58 58 58 58 58 59 60 62 63 62 61 60 59 59 59 59 59 59 59 59 58 57 56 56 56 56 56 57 57 58 58 59 60 61 63
65 64 64 62 60 58 57 57 57 57 58 59 60 61 62 63 63 61 60 60 59 59 58 58 57 56 55 55 55 55 55 55 55 55 56 57 59 60 61 62 63 63
65 64 62 60 58 57 57 57 57 57 59 60 61 62 63 64 63 62 61 60 59 57 56 55 54 54 54 54 55 55 55 54 53 54 55 57 58 59 60 61 61 61
61 60 59 58 57 56 56 57 57 57 59 61 62 64 65 65 64 63 61 59 57 55 54 53 52 52 53 54 55 56 55 54 54 55 56 57 58 58 58 59 59 60
56 56 56 56 55 55 55 56 57 58 60 62 64 65 65 66 65 61 59 57 55 54 53 52 53 53 53 54 56 57 57 56 57 58 60 61 61 62 61 61 61 62
54 53 53 54 55 55 56 57 58 59 61 63 65 65 66 67 64 60 58 58 57 55 54 54 55 55 55 56 58 59 59 58 59 61 62 63 64 64 65 64 64 64
54 53 53 54 56 57 58 59 60 61 62 64 65 66 66 66 65 62 60 60 59 57 57 57 58 58 58 59 60 61 61 60 61 62 63 63 63 63 64 64 65 65
54 53 54 56 57 59 62 63 64 64 64 65 66 66 66 67 68 68 66 64 62 60 60 61 61 60 60 61 62 62 62 62 63 63 62 62 62 62 64 65 66 68
55 54 56 56 57 61 64 65 66 66 66 67 68 68 68 68 69 69 68 67 65 63 63 63 63 62 62 62 62 62 61 63 64 65 64 64 63 64 66 68 70 71

ECMWFNIL_500_spd_009.txt.gz
Wind_Speed
46 46 46 46 47 47 48 49 50 51 52 52 52 52 51 50 50 50 51 52 53 54 55 55 57 58 60 61 62 62 62 62 62 60 60 59 58 57 56 56 55 55
46 47 47 48 48 48 49 50 52 53 54 55 55 55 54 53 53 53 53 53 54 55 56 56 57 58 60 61 62 62 63 63 63 62 62 61 59 58 57 56 57 57
46 47 48 50 50 51 52 52 53 55 56 57 56 56 56 55 55 55 55 54 55 55 56 56 57 58 59 61 62 62 63 63 63 63 63 62 61 59 58 58 58 59
47 49 50 52 53 54 55 55 55 56 57 58 58 58 57 57 57 57 56 56 56 57 57 57 57 58 59 61 63 63 63 63 64 64 64 63 62 60 58 57 57 58
49 50 51 53 54 55 56 56 57 58 58 58 59 59 59 59 59 59 59 59 59 59 59 58 58 59 60 61 63 63 63 63 64 64 64 63 61 60 58 57 57 58
51 52 53 53 54 55 55 56 57 58 59 60 60 60 60 61 61 61 61 61 61 61 61 61 61 61 61 62 62 62 62 62 63 63 63 62 61 60 59 59 59 60
51 52 54 54 54 55 55 56 58 60 61 62 63 63 63 63 63 63 63 63 63 63 63 63 63 64 64 63 62 62 62 60 60 60 60 61 61 61 61 60 60 61
51 52 54 55 56 57 57 59 61 63 65 66 65 64 64 63 62 63 63 64 65 64 64 65 65 65 65 64 63 62 61 58 57 57 57 58 59 60 60 61 61 62
53 52 53 54 56 57 59 60 63 65 67 67 66 66 65 63 62 62 63 65 65 65 66 66 66 65 64 63 62 61 59 57 56 56 57 58 59 60 61 62 63 64
56 55 55 55 56 57 58 60 61 62 63 64 64 65 65 64 62 62 63 64 64 65 66 66 66 65 64 62 61 60 59 59 59 59 61 62 62 63 64 64 64 64
58 57 56 55 55 56 58 59 60 59 60 60 60 61 63 63 62 61 60 61 62 62 64 65 65 65 64 62 61 60 61 61 62 63 65 65 65 65 65 65 65 66
57 57 55 54 54 54 55 57 57 57 56 57 57 58 60 62 62 60 59 59 59 60 62 64 65 65 64 63 62 62 62 63 65 66 67 66 65 65 65 66 67 67
55 56 56 55 54 55 55 55 55 54 54 55 56 58 59 61 61 61 59 58 59 60 61 63 64 65 65 64 63 63 65 66 67 68 67 66 66 66 66 67 67 66
58 58 58 58 58 59 58 57 55 55 56 57 59 60 61 61 62 61 59 60 61 62 62 63 64 64 64 63 63 64 66 67 68 68 67 67 67 67 67 66 66 65
63 63 62 62 62 62 63 61 60 61 62 63 63 62 62 62 62 62 61 61 62 63 64 64 63 63 63 63 63 64 65 67 67 67 67 67 67 67 67 67 66 65
70 70 69 67 65 65 66 66 65 65 66 67 66 63 62 62 62 61 61 62 64 64 64 63 63 62 62 62 62 63 64 65 66 66 67 67 68 68 68 67 66 64
76 76 75 72 70 69 69 69 68 68 69 70 69 66 64 63 63 62 62 63 64 65 65 64 62 61 60 61 61 62 63 64 65 66 67 68 68 67 66 65 63 61
79 79 78 76 74 73 72 72 72 71 71 71 71 69 67 67 66 66 65 64 64 64 64 62 60 60 60 60 61 62 63 64 66 66 66 65 64 63 61 60 59 58
83 82 81 79 77 75 75 74 73 72 72 72 71 71 70 70 70 69 68 67 65 63 62 60 60 60 60 61 62 63 65 65 65 64 62 61 59 57 56 56 56 56
87 86 84 81 79 78 77 75 74 72 72 72 73 73 72 71 72 71 70 68 65 62 60 60 61 61 62 64 64 64 64 62 61 59 58 57 56 54 54 54 55 56
87 86 84 83 82 80 77 75 74 72 72 72 74 74 73 73 72 71 69 67 64 61 59 60 60 62 65 65 63 62 61 59 57 56 56 56 55 54 55 55 55 56
83 83 82 82 80 79 76 75 74 73 73 74 74 74 73 72 70 68 66 64 61 59 59 59 60 63 65 65 63 61 58 54 54 55 57 57 56 56 56 55 56 58
80 80 80 80 79 78 78 78 77 76 75 75 75 73 71 69 67 66 64 62 59 56 57 59 61 64 65 63 59 56 52 52 55 58 59 59 59 58 56 57 58 60
79 80 79 79 79 79 79 80 79 79 77 74 72 70 68 66 65 63 61 58 55 55 58 60 62 62 60 57 55 55 55 58 60 61 60 62 62 59 57 59 61 62
77 78 79 79 79 78 79 79 79 79 76 72 69 68 67 66 64 61 58 55 56 59 62 62 61 60 59 58 58 58 58 60 62 61 62 63 63 61 60 61 63 63
76 77 77 77 77 78 78 77 77 78 77 75 71 68 67 66 64 60 57 56 58 60 61 62 61 62 63 62 61 58 58 60 61 61 61 63 63 63 63 64 65 65

ECMWFNIL_500_spd_012.txt.gz
Wind_Speed
45 47 48 49 49 48 48 47 47 46 45 45 44 44 45 46 46 46 46 46 46 46 47 48 49 49 50 51 52 52 53 53 53 53 53 53 52 51 51 51 51 51
47 49 50 50 50 50 49 49 50 49 48 47 46 45 46 46 46 47 47 48 48 49 50 50 50 51 51 52 53 53 53 53 54 54 54 54 53 53 52 52 52 52
50 51 51 51 51 51 51 52 52 52 51 50 48 48 48 48 48 49 49 50 50 51 51 51 51 52 52 52 53 53 53 54 54 54 54 54 55 55 54 55 55 55
52 53 53 53 52 52 52 53 53 53 53 52 51 51 51 51 51 51 51 52 52 52 52 52 53 53 53 53 53 53 54 54 54 54 55 55 56 56 56 57 58 59
54 55 55 55 54 53 53 53 54 54 54 54 54 54 55 55 55 55 55 55 55 55 55 55 54 54 54 53 53 54 55 55 55 55 55 56 57 58 58 59 60 61
57 57 58 57 57 56 55 54 54 55 55 56 56 57 58 59 59 59 59 59 59 59 58 58 57 56 55 54 54 54 55 55 55 56 56 57 58 59 59 60 61 62
61 61 61 61 60 60 58 57 56 56 56 56 57 58 59 61 61 62 62 62 62 62 62 61 60 59 58 57 56 56 56 56 56 57 57 58 60 61 61 61 62 63
64 65 65 64 64 63 61 57 56 56 57 58 59 60 60 61 62 63 63 64 64 64 64 64 64 63 63 62 60 59 58 58 58 58 58 59 61 62 62 62 62 62
66 68 69 68 67 67 64 60 57 57 58 60 60 60 61 61 62 63 64 65 66 66 67 67 67 67 66 65 63 62 61 60 60 60 60 60 61 62 62 62 61 61
66 68 70 70 70 69 68 65 64 63 62 62 63 63 63 63 63 65 66 68 68 69 70 70 71 70 68 65 63 62 62 62 63 62 62 61 61 62 62 62 61 61
65 68 70 70 71 72 71 70 70 69 67 64 64 65 65 66 66 68 69 70 71 71 72 72 71 70 67 65 64 63 63 64 64 64 63 63 62 61 61 61 60 61
63 67 69 71 72 74 75 75 74 74 72 68 67 68 69 69 70 71 71 72 72 72 72 72 70 69 67 65 64 64 64 65 65 65 65 64 63 61 61 61 61 62
65 67 69 69 70 73 75 77 77 76 74 72 71 72 72 71 71 72 71 70 70 70 69 69 69 68 67 65 64 63 63 64 65 67 67 66 64 62 62 62 62 64
71 71 71 70 70 71 72 74 75 76 76 75 74 74 74 73 72 71 70 69 68 67 67 67 67 66 66 65 64 64 63 63 65 67 69 68 66 65 63 63 64 65
76 75 74 74 73 73 73 74 75 76 76 76 75 74 74 75 73 71 70 69 68 67 67 67 66 64 64 64 64 65 66 66 66 68 70 69 69 68 67 66 66 65
81 79 77 77 77 77 78 78 77 77 77 77 76 73 73 75 75 73 72 71 70 69 70 69 67 65 63 63 65 67 69 71 70 70 71 70 70 71 71 69 66 64
82 81 80 78 78 78 79 80 79 79 79 79 78 75 74 74 75 75 75 74 74 73 73 72 69 66 63 64 66 69 72 73 72 71 71 70 70 72 72 69 66 64
82 82 81 80 79 78 78 78 78 78 78 80 81 80 79 77 77 77 78 78 78 78 77 75 71 66 64 65 67 71 73 73 72 71 70 70 71 71 70 68 65 62
82 81 80 79 79 77 76 75 75 75 76 79 82 84 84 83 81 81 81 82 82 81 80 77 72 68 65 66 69 72 73 73 73 72 71 71 72 70 68 67 64 62
83 81 77 75 74 73 72 73 74 76 78 80 82 85 87 87 86 84 85 85 84 83 81 77 73 69 67 68 70 72 73 73 74 74 73 73 72 69 67 65 64 64
84 81 77 73 72 71 72 74 75 78 80 82 85 87 89 89 87 86 85 84 83 81 79 75 71 69 69 70 72 73 74 74 75 76 75 74 72 68 65 64 65 66
84 83 81 78 76 76 76 77 78 80 82 85 86 88 89 88 87 85 85 83 79 75 75 73 71 71 71 71 73 75 75 75 76 76 75 74 70 65 62 63 66 66
84 86 85 84 82 81 79 79 81 83 85 87 88 88 88 87 86 84 83 80 75 72 73 73 72 71 71 71 73 74 75 76 76 75 73 70 64 60 61 65 66 63
85 86 87 86 83 81 81 82 84 86 88 88 86 84 84 83 83 81 78 75 73 72 73 72 71 71 72 73 74 75 75 75 73 71 69 64 60 60 65 66 63 59
88 88 89 87 84 82 84 86 87 87 86 84 81 78 78 79 80 79 77 75 75 76 75 75 74 74 75 75 76 76 74 71 69 68 65 62 61 63 65 64 60 57
91 91 90 89 86 84 83 83 84 82 81 79 76 74 74 76 77 78 77 77 78 78 77 76 75 74 74 73 73 72 71 69 69 67 64 63 65 64 62 60 56 54

ECMWFNIL_500_spd_015.txt.gz
Wind_Speed
60 58 55 54 53 54 55 55 56 57 57 57 56 55 54 53 53 53 52 51 50 49 48 48 49 49 49 48 48 48 48 49 50 51 52 52 51 51 52 51 51 51
64 64 63 60 57 57 57 57 58 58 59 59 59 58 57 56 55 54 53 53 52 52 50 50 49 49 49 49 50 50 51 51 52 53 53 53 52 52 52 52 52 52
64 65 65 64 62 60 60 60 60 61 61 61 61 61 60 59 58 56 55 55 54 54 53 53 52 52 52 52 53 54 54 54 54 54 54 54 53 53 52 52 52 52
62 65 65 65 64 63 62 62 63 63 64 64 63 63 62 61 60 59 58 57 56 55 55 55 55 54 55 55 56 56 56 56 56 56 56 55 54 53 52 52 52 52
62 64 65 65 65 65 64 64 64 64 65 66 66 65 64 63 62 60 58 58 57 57 57 57 56 56 57 57 58 58 58 58 58 58 58 57 56 55 54 53 53 53
63 65 66 65 64 63 64 64 65 65 65 66 67 67 67 66 64 62 60 59 58 59 59 58 58 58 58 59 59 59 59 59 59 59 59 58 58 57 56 56 55 54
65 66 67 65 63 61 61 62 64 65 65 65 66 67 68 68 67 65 63 61 59 59 59 59 59 60 60 60 60 60 60 60 60 60 61 60 60 59 59 59 58 58
66 67 67 66 64 62 61 60 61 62 64 64 64 65 65 66 67 67 66 65 62 61 60 59 59 60 60 61 61 62 62 62 63 63 63 63 63 62 61 62 62 62
66 67 67 66 65 64 63 62 61 61 62 62 63 64 65 65 65 65 66 66 65 64 62 61 60 60 61 62 63 64 65 66 66 67 67 66 65 64 64 65 64 64
66 65 65 65 66 66 66 66 65 64 63 63 63 64 65 66 66 65 65 64 63 63 62 61 61 60 61 62 65 66 67 68 68 69 68 68 67 67 67 66 66 65
65 64 64 64 64 66 67 68 68 68 68 68 67 66 66 67 68 69 69 68 66 64 63 62 62 62 62 63 65 67 68 69 69 70 70 69 69 69 69 67 66 65
64 65 66 66 67 68 69 69 69 69 69 70 71 71 71 70 71 72 73 74 74 73 71 69 68 67 66 66 67 69 70 70 70 71 71 72 72 72 71 69 67 65
68 68 68 69 70 71 72 73 73 72 72 71 71 72 74 74 74 73 74 76 77 77 77 76 74 72 70 70 71 72 73 73 73 73 73 74 75 73 71 68 66 64
76 73 71 72 72 72 73 74 76 77 77 77 75 74 75 76 77 77 76 77 77 77 77 77 76 75 73 73 74 75 76 76 76 76 76 75 75 73 70 67 65 64
80 77 74 73 74 74 74 75 76 78 80 80 81 80 79 80 81 81 80 79 79 79 78 77 76 75 74 74 74 74 76 78 79 79 78 77 76 74 70 67 65 65
80 79 77 75 74 74 75 76 77 79 80 82 83 84 85 85 85 86 85 84 83 82 80 79 78 77 76 75 75 75 76 78 80 80 80 79 77 74 71 68 67 66
77 77 77 76 75 75 77 78 80 81 82 84 85 86 87 88 88 89 89 89 88 87 85 83 82 80 79 78 77 76 77 78 79 79 79 78 77 74 71 69 68 68
76 76 75 75 75 75 77 79 81 84 86 87 88 88 89 89 90 91 91 92 92 91 90 88 86 84 83 82 81 79 78 78 78 77 76 76 77 76 73 72 71 71
76 76 75 74 74 74 75 77 79 83 85 87 89 89 89 89 89 90 91 92 92 92 91 89 87 84 81 81 81 81 81 79 78 76 74 74 77 78 77 76 74 74
81 79 78 77 76 76 76 76 78 80 81 83 84 85 86 86 86 87 88 89 91 92 91 90 88 84 79 75 73 75 77 77 76 74 73 73 75 76 76 73 70 72
89 86 83 82 81 80 79 79 79 79 80 80 80 80 81 82 83 84 85 87 89 91 91 89 87 83 79 74 71 71 72 73 74 73 72 71 72 72 71 67 64 66
96 94 91 88 85 84 84 85 85 84 82 81 81 80 79 80 80 81 82 83 83 85 85 82 79 76 75 72 71 72 73 74 74 74 73 71 70 69 68 64 62 63
99 99 99 97 93 90 88 88 89 89 88 85 84 82 81 81 80 81 82 82 81 80 80 78 74 71 71 71 71 72 73 75 76 76 75 73 71 70 68 64 62 63
102 102 102 102 101 98 95 92 92 92 92 91 88 86 84 83 83 83 83 84 84 82 81 80 78 76 74 72 71 72 74 75 76 78 78 77 74 72 70 67 64 64
103 103 103 103 103 103 101 99 96 95 95 94 92 90 87 85 84 85 85 86 87 86 83 81 81 82 80 76 73 73 75 75 76 76 77 77 74 72 70 68 66 65
99 100 100 100 100 101 102 102 101 99 98 97 96 95 93 90 88 87 88 88 88 87 84 81 80 80 79 76 75 74 75 75 74 72 71 71 71 70 69 69 68 68

ECMWFNIL_500_spd_018.txt.gz
Wind_Speed
61 59 58 57 56 55 55 56 57 58 60 61 62 63 64 65 65 65 66 66 66 67 67 66 65 64 62 60 59 58 58 58 58 58 58 57 57 56 55 56 56 56
64 64 62 61 60 59 59 58 58 59 61 62 63 65 66 67 68 68 68 68 69 69 69 69 68 67 65 63 61 60 59 59 59 59 58 58 58 57 57 58 59 60
64 65 66 66 66 65 64 62 61 61 62 63 64 66 67 68 69 70 70 70 71 71 71 71 70 69 67 65 63 62 61 61 60 60 60 60 59 58 59 60 61 61
64 65 66 67 68 69 70 69 68 67 66 66 67 67 68 70 71 71 71 72 72 73 73 72 72 70 69 66 64 63 62 62 61 61 61 60 59 59 59 60 62 62
66 66 66 65 66 67 69 71 72 72 71 71 71 71 70 71 71 71 71 71 71 72 73 74 73 72 70 67 65 63 63 62 62 62 61 60 60 60 60 62 62 62
67 67 67 67 67 68 69 70 72 72 72 73 75 74 73 71 71 70 69 69 69 70 71 72 73 72 70 68 67 65 64 63 62 62 62 61 61 62 63 64 64 63
65 68 68 68 69 70 70 71 72 73 74 74 74 74 74 73 71 69 68 67 66 66 66 68 69 70 70 70 69 68 66 64 63 63 63 63 64 64 64 64 64 63
64 67 69 70 70 71 72 73 74 74 74 74 74 73 73 72 70 69 67 66 65 63 63 64 65 67 69 70 70 70 68 67 66 65 65 65 65 65 65 64 63 63
64 66 70 72 73 73 73 74 75 75 75 74 74 73 72 70 69 68 67 66 65 64 63 63 63 65 67 69 70 70 70 69 68 68 67 67 66 66 65 64 64 64
69 67 69 72 74 75 76 76 76 76 76 76 75 74 72 70 69 68 67 67 65 65 64 64 64 65 66 67 68 70 71 71 72 71 70 69 67 66 66 65 65 65
76 74 71 71 72 74 76 78 78 78 78 78 77 76 75 73 71 70 69 69 68 67 67 66 66 67 67 67 68 69 70 72 73 73 73 72 70 69 69 68 67 67
81 81 79 75 73 73 75 78 80 81 81 80 80 79 78 77 75 73 73 73 72 71 70 70 69 69 68 68 69 69 70 71 72 73 73 73 72 72 70 69 68 68
80 82 83 81 78 76 75 77 79 81 82 83 83 83 82 80 79 77 75 75 76 76 75 74 74 73 72 71 70 70 70 70 71 71 71 71 70 70 69 68 67 66
78 79 81 82 82 80 77 76 77 79 81 83 85 86 86 85 83 81 79 77 77 78 78 78 77 77 76 75 75 74 73 72 72 72 73 72 72 71 71 70 69 68
78 79 80 81 83 83 81 79 78 79 81 82 84 86 88 88 86 84 82 81 80 78 78 78 78 78 79 79 79 78 78 77 77 78 78 78 77 76 75 74 73 72
83 83 84 84 84 84 84 83 81 80 81 83 84 85 87 89 89 86 84 84 83 82 80 80 80 80 80 81 81 81 81 81 81 80 80 80 79 77 76 75 75 75
89 90 90 89 89 88 87 86 85 83 83 84 85 85 86 87 89 90 88 87 86 85 84 84 84 85 85 84 83 82 82 83 83 82 81 81 80 79 77 76 75 75
95 97 96 95 94 93 91 90 88 86 85 85 86 86 87 86 87 88 90 91 90 89 87 87 87 88 89 90 89 87 85 84 83 83 83 82 81 80 79 78 77 75
100 100 99 99 99 98 97 96 94 91 88 87 86 87 88 88 87 86 86 89 91 92 91 90 90 90 91 92 93 93 91 89 86 85 83 82 81 80 79 78 78 77
104 103 101 101 100 100 100 100 100 98 96 93 90 88 88 88 88 87 86 86 87 89 90 91 92 93 93 93 94 95 95 94 92 89 87 85 83 82 80 80 79 78
106 105 104 104 103 102 102 101 101 101 101 100 97 94 91 90 89 89 88 87 88 88 89 90 92 95 96 96 96 96 96 96 95 93 91 88 86 84 82 81 79 75
105 105 105 105 105 105 105 104 103 102 101 102 102 101 98 96 94 92 91 90 89 89 90 91 93 95 97 98 98 98 98 98 97 96 95 93 90 87 84 81 78 75
102 102 102 103 104 105 106 107 107 106 104 103 103 103 102 101 99 97 96 94 93 91 91 90 91 93 95 96 98 98 99 99 99 98 97 95 93 89 85 81 79 78
98 99 99 100 101 102 104 105 106 107 108 107 105 103 103 102 103 102 100 99 97 96 94 92 90 89 90 91 93 94 95 95 95 95 94 93 91 88 84 80 77 76
95 96 96 97 98 99 100 102 103 104 106 108 108 107 105 103 102 102 102 101 100 100 99 97 94 91 89 88 89 89 89 89 89 89 88 87 85 83 80 78 75 74
92 92 92 93 94 95 96 98 99 101 102 104 106 108 108 106 104 102 101 101 100 100 101 101 100 98 95 93 91 89 89 88 88 87 85 84 82 80 77 75 73 72

ECMWFNIL_500_spd_021.txt.gz
Wind_Speed
57 57 58 59 60 61 62 64 64 64 63 63 63 63 63 63 64 64 65 66 66 66 66 67 68 68 68 68 68 69 69 69 69 68 68 68 67 66 66 65 64 63
60 60 60 60 60 61 62 63 65 66 66 66 65 65 65 65 65 65 66 66 67 67 68 68 69 69 70 70 70 70 70 71 71 71 71 70 69 68 67 66 65 65
62 63 64 63 64 64 64 64 65 66 68 69 70 71 70 69 69 68 68 68 68 69 69 70 70 71 72 72 72 72 72 72 72 72 73 72 72 71 70 68 67 67
63 65 66 68 69 69 68 67 67 68 69 71 73 74 76 76 75 74 72 71 71 71 71 72 72 73 74 74 74 74 74 73 73 73 73 73 73 73 72 71 69 68
67 67 69 71 73 73 71 70 70 71 72 73 74 75 77 78 79 79 78 76 75 74 74 74 75 75 76 76 76 75 75 75 74 73 73 72 73 73 74 73 72 70
70 71 72 73 75 76 75 73 72 72 73 73 74 75 77 78 79 81 81 81 80 79 77 77 76 76 77 77 77 76 76 75 75 74 73 72 72 72 73 74 73 72
74 75 75 76 76 79 80 77 74 73 73 73 74 75 77 79 80 81 82 83 83 83 82 80 78 77 76 76 76 76 76 75 75 75 74 73 72 71 72 73 73 73
77 78 78 79 81 82 82 79 75 74 73 72 73 75 77 79 81 82 84 85 85 85 85 83 81 79 77 76 74 73 73 74 75 76 75 74 73 71 71 72 72 73
78 80 81 83 85 85 84 80 78 76 75 73 74 75 77 79 81 82 84 85 86 87 87 86 83 81 80 78 76 74 72 72 73 74 75 75 75 73 71 70 71 72
77 79 80 82 84 85 84 83 81 79 77 75 76 78 79 80 82 83 84 85 85 86 86 87 86 84 82 80 78 77 75 73 72 72 73 74 74 74 72 71 70 71
83 83 84 85 85 86 86 85 84 82 79 77 78 80 81 82 83 84 84 85 86 86 86 86 87 86 85 83 80 78 77 75 73 72 72 73 73 73 73 72 71 70
88 88 87 88 88 89 89 89 89 88 86 83 82 82 82 83 84 84 84 84 85 86 86 86 86 86 86 85 84 82 79 78 76 75 74 74 74 74 73 73 72 71
89 89 89 89 89 89 89 89 90 90 90 89 88 87 87 86 86 86 86 85 84 84 84 85 86 86 85 85 85 84 83 81 79 78 77 76 76 76 76 75 74 73
89 89 90 90 91 92 92 92 92 92 91 90 89 89 89 90 90 91 90 90 89 87 86 85 85 86 86 86 85 84 84 84 82 82 80 79 79 79 79 78 77 76
89 88 88 88 89 90 91 92 93 94 93 92 90 89 88 88 89 90 91 93 93 92 89 87 86 86 86 87 88 87 86 86 85 85 84 83 82 81 82 81 80 80
89 88 88 87 87 87 88 89 89 90 91 91 91 91 90 89 88 87 88 89 92 93 91 89 88 88 88 88 88 89 89 89 88 87 87 86 84 84 84 83 83 83
92 91 91 90 90 90 90 90 90 90 90 90 91 91 91 92 91 90 89 88 88 90 91 90 88 88 89 89 89 90 90 90 90 90 90 88 87 86 85 84 83 83
96 96 96 96 96 96 96 95 95 95 95 94 94 94 94 93 93 94 93 93 91 90 89 90 89 89 90 90 91 92 92 91 91 90 91 91 91 89 88 86 85 84
100 100 100 101 101 101 101 101 102 102 101 101 100 100 99 98 97 97 96 96 96 95 93 91 90 90 92 93 94 94 94 94 93 91 91 91 92 92 92 91 89 87
103 103 104 104 105 105 106 106 106 106 107 107 107 106 105 104 103 102 101 100 99 99 99 97 95 93 94 95 96 97 97 97 96 95 93 92 91 91 93 94 93 92
103 104 105 105 106 107 108 108 109 109 109 110 111 111 111 111 110 108 107 105 104 103 102 101 101 100 99 99 99 100 101 100 99 98 97 96 94 92 91 92 93 95
102 103 104 105 106 106 107 108 108 109 110 111 112 112 113 114 114 114 114 112 111 109 107 105 104 105 105 105 104 103 103 103 104 102 100 98 97 95 92 91 91 92
99 100 102 103 103 104 105 105 106 106 107 108 110 112 112 113 115 116 117 117 117 116 114 112 110 108 108 109 109 108 107 106 105 106 105 102 99 97 96 93 91 90
95 96 98 98 98 99 100 101 102 102 103 104 105 107 109 110 111 113 115 117 118 118 118 117 115 112 109 108 109 111 111 110 108 107 107 106 103 100 98 97 94 92
91 93 94 95 95 95 95 97 98 98 99 99 101 102 103 104 105 107 109 110 112 114 115 116 115 112 108 105 105 107 110 112 112 110 108 107 107 105 102 99 97 95
90 91 92 92 93 93 92 92 94 95 95 96 97 98 99 99 99 100 102 103 104 105 107 109 110 108 104 101 100 102 105 109 112 113 111 108 108 108 106 102 99 97

ECMWFNIL_500_spd_024.txt.gz
Wind_Speed
68 68 68 66 65 64 63 62 62 62 62 62 63 63 64 65 66 66 65 65 65 65 65 67 68 69 71 72 73 73 73 72 72 71 71 71 70 70 70 69 68 67
65 67 68 69 69 69 68 66 65 64 63 63 64 65 65 66 68 68 68 68 67 67 67 67 68 69 70 72 73 74 75 75 74 74 74 73 73 73 72 72 72 71
63 64 66 68 69 70 71 70 70 69 68 68 67 67 68 68 69 71 71 71 71 70 70 69 69 69 70 71 73 74 75 76 76 76 76 76 76 75 74 74 74 73
64 65 66 67 68 69 70 71 72 73 74 74 74 73 73 72 72 73 74 74 75 75 74 73 73 73 72 72 73 74 76 77 78 78 78 77 77 77 76 76 76 75
69 69 70 70 70 70 71 71 72 73 75 76 77 78 78 77 76 77 77 77 78 78 79 78 78 77 77 76 76 75 76 77 78 79 79 79 79 78 78 78 78 77
76 76 76 75 75 74 73 73 73 74 75 77 79 80 81 81 80 80 81 80 80 80 80 81 81 80 80 80 80 80 80 79 79 79 80 80 81 81 80 80 79 79
80 80 81 80 79 77 74 73 74 75 76 78 80 81 83 84 84 84 84 84 84 84 84 84 83 83 82 82 82 83 83 83 82 81 81 81 81 82 82 82 82 81
83 84 84 83 81 78 76 74 74 75 76 78 80 82 84 85 87 87 87 87 88 89 90 91 90 88 86 85 85 85 84 84 84 83 82 82 81 81 81 82 82 82
83 83 83 83 82 80 79 77 76 75 75 76 79 82 84 86 88 89 88 88 88 88 90 92 94 94 92 90 89 87 85 85 86 85 84 83 82 80 80 80 81 81
81 80 80 80 81 81 81 80 79 77 76 76 77 79 82 84 87 88 88 89 89 89 88 89 91 93 96 96 93 90 88 86 87 88 88 86 84 83 81 81 80 79
79 79 79 79 80 81 81 82 82 82 82 81 81 81 82 83 84 86 87 88 90 91 92 91 90 90 92 93 93 92 91 88 87 89 90 90 89 87 85 84 82 80
84 84 84 84 84 85 86 87 88 88 88 89 89 89 89 88 89 89 89 90 91 93 95 95 95 94 92 92 92 92 92 91 90 91 92 92 92 91 90 87 85 82
94 94 95 95 94 94 94 94 95 95 95 95 95 95 95 95 95 95 96 96 98 99 100 100 100 99 97 95 94 93 93 92 92 94 95 93 91 91 91 90 88 85
99 100 100 99 98 97 96 96 97 97 98 98 98 98 98 98 98 98 98 98 99 100 101 102 102 101 100 99 97 96 95 94 94 96 98 96 93 90 89 90 89 88
99 100 100 99 98 97 96 95 94 94 95 96 97 97 98 98 98 97 97 97 97 97 98 99 99 100 100 100 99 98 97 97 97 97 98 99 98 95 92 90 89 88
100 101 101 101 101 100 99 98 96 95 94 94 94 95 96 97 97 97 96 96 96 96 96 97 97 98 98 99 98 98 97 98 98 98 99 99 99 98 96 94 92 90
101 102 102 102 102 102 102 102 101 100 99 98 97 97 97 97 97 97 97 97 97 96 96 96 96 97 97 98 98 98 97 97 97 98 99 100 100 99 97 96 95 94
99 100 100 101 101 101 102 102 103 103 103 103 102 102 101 101 100 100 100 100 100 99 99 98 98 97 98 98 99 99 99 98 98 97 98 99 101 100 99 97 95 94
94 95 96 97 97 98 99 100 101 102 103 104 104 105 105 105 105 105 104 104 104 104 104 103 102 101 100 101 101 101 102 102 101 100 99 99 99 101 101 99 97 95
90 91 92 93 94 95 97 98 99 100 101 102 103 105 106 106 107 107 107 107 107 107 108 107 106 105 105 105 105 105 105 106 106 105 103 101 100 100 101 102 101 99
87 89 90 91 92 94 95 96 97 98 99 100 101 102 103 104 105 106 107 108 108 109 109 109 109 108 108 109 109 108 109 109 110 109 108 106 104 102 101 102 102 102
84 85 87 88 89 91 92 94 95 96 97 98 99 99 100 100 101 102 103 105 106 107 109 109 109 109 109 109 110 110 110 110 111 112 111 111 109 107 105 104 103 104
81 82 84 85 86 87 89 90 91 92 93 95 96 97 96 96 96 97 98 99 100 102 104 105 106 106 106 107 108 109 109 110 110 111 111 112 112 111 110 109 107 105
80 81 82 83 84 85 87 87 88 89 90 91 92 93 93 93 93 93 93 93 94 95 97 99 100 100 100 101 102 104 105 106 108 108 109 110 111 112 112 112 111 109
80 81 83 84 85 85 86 87 87 88 89 89 90 91 91 91 91 92 91 90 91 92 92 94 95 95 95 96 97 98 99 101 103 105 106 106 106 107 109 111 112 112
81 82 83 85 85 86 86 87 87 88 88 89 89 90 90 90 90 90 91 89 89 90 90 91 92 92 92 93 94 96 96 98 99 101 102 102 101 100 102 105 108 110

ECMWFNIL_500_spd_027.txt.gz
Wind_Speed
69 70 71 72 72 73 73 74 74 74 74 73 71 70 69 69 69 69 69 69 69 70 70 70 70 71 71 72 72 72 73 73 74 74 74 74 74 74 74 74 74 73
68 69 70 71 71 72 73 73 75 76 76 76 75 74 72 71 69 69 70 70 70 71 71 72 72 73 73 74 74 74 75 75 75 75 76 76 75 75 75 75 75 75
65 67 68 70 71 72 74 75 75 76 77 78 78 77 75 73 72 71 71 71 72 72 73 73 74 74 75 75 76 76 77 77 77 77 77 76 76 76 76 77 77 77
67 67 69 70 70 70 71 72 73 74 76 79 81 81 80 78 76 74 73 73 73 73 74 75 75 76 77 77 78 78 79 79 79 79 78 78 78 77 77 78 78 78
72 71 71 71 70 68 68 69 71 73 75 78 81 83 85 85 83 80 78 77 76 76 76 77 77 78 79 79 80 81 81 81 81 81 80 80 80 79 79 79 79 78
77 77 76 76 75 74 73 73 74 75 77 79 82 83 85 86 87 86 84 83 82 82 82 81 81 81 82 82 82 83 83 84 84 84 83 82 82 82 82 82 81 80
81 82 82 82 82 82 82 82 81 80 80 81 83 85 86 86 86 86 86 87 87 88 88 88 88 87 86 86 85 85 84 85 85 86 86 86 85 85 85 85 84 83
84 84 84 83 84 85 85 86 87 86 85 84 84 86 88 88 88 88 88 89 90 91 92 92 93 92 91 91 91 90 89 88 87 87 87 87 87 87 87 87 87 87
85 85 84 83 83 83 84 84 85 86 87 86 86 87 88 89 90 90 90 91 91 91 91 92 92 92 92 92 94 95 96 94 93 91 90 90 89 88 88 88 88 88
85 85 86 87 87 87 87 87 88 89 90 90 90 90 91 91 92 92 92 92 92 92 91 91 91 90 90 91 93 96 98 98 97 95 94 93 92 91 90 90 89 88
87 88 89 90 91 91 92 93 93 94 95 95 95 94 93 94 94 94 94 93 93 93 93 93 92 92 91 91 93 95 97 99 100 100 98 96 95 94 94 93 92 91
94 94 94 95 95 95 96 96 97 97 98 98 99 98 97 97 96 95 95 95 95 95 95 95 94 94 94 93 93 94 95 96 98 99 100 100 99 97 96 95 94 93
100 100 100 100 100 100 100 100 100 101 101 101 101 101 101 101 99 98 97 96 97 98 99 99 98 97 97 96 96 96 96 96 96 96 97 98 99 99 99 97 95 94
103 104 104 104 104 104 104 104 103 103 103 103 103 103 103 103 102 101 100 99 98 99 100 101 102 101 101 101 101 101 101 101 100 99 99 98 98 99 100 99 98 96
103 103 103 103 103 103 103 103 102 102 102 102 102 102 102 101 102 102 101 101 100 100 100 101 101 102 102 103 104 104 105 105 105 105 104 103 103 102 101 101 101 99
97 97 97 97 97 97 97 97 97 97 97 97 98 99 100 100 101 101 101 101 101 101 101 101 101 102 102 103 104 104 105 106 106 106 106 106 106 106 105 104 104 103
86 86 86 87 87 87 88 88 89 89 89 90 91 93 94 96 97 99 100 101 102 103 103 103 102 102 102 103 104 105 106 106 107 107 107 107 108 108 108 108 107 106
79 79 79 80 80 81 81 82 83 84 84 86 86 87 89 90 91 93 95 97 99 101 103 104 104 104 103 104 104 105 106 107 108 109 109 110 110 110 110 110 111 110
77 77 77 77 78 78 79 80 80 81 82 83 84 85 86 87 88 89 91 92 94 97 99 100 101 102 102 103 105 106 107 108 110 111 111 112 111 111 111 111 111 112
74 74 74 75 75 76 76 77 78 79 80 81 82 83 84 85 86 86 87 88 90 92 93 95 95 96 97 99 102 104 105 107 110 111 112 113 113 112 112 112 112 112
71 71 71 72 72 73 74 75 76 77 77 79 80 81 82 82 83 84 84 84 85 86 88 89 89 89 91 93 96 98 101 104 107 109 111 112 113 113 113 113 113 113
70 70 70 71 72 73 74 75 76 77 78 80 81 81 81 82 82 83 83 83 83 83 85 85 84 84 85 88 90 93 96 99 102 104 107 109 110 111 111 112 112 113
71 71 72 73 74 75 76 77 78 79 80 82 83 82 82 83 83 83 82 82 82 82 83 84 82 81 83 86 88 89 92 95 97 99 101 103 104 106 107 108 109 109
73 74 75 75 76 77 77 78 79 80 80 81 82 82 82 82 82 81 80 80 81 81 82 83 82 80 82 85 87 88 91 93 94 95 97 97 98 100 101 102 103 104
74 75 75 75 76 76 77 78 78 79 80 80 81 81 81 80 80 80 78 78 79 80 80 81 80 79 80 83 84 86 88 90 92 93 93 93 94 95 95 96 96 97
73 74 74 75 75 76 77 78 78 78 79 79 79 79 79 77 76 75 74 73 73 73 73 72 73 72 71 74 76 77 79 82 84 86 88 89 91 92 92 92 92 91

ECMWFNIL_500_spd_030.txt.gz
Wind_Speed
74 76 77 78 79 80 80 80 81 82 83 83 82 81 80 79 78 77 77 77 77 77 77 77 76 76 76 76 77 78 78 78 78 77 77 78 78 78 78 78 77 76
74 75 76 76 77 77 78 78 78 78 79 81 82 82 82 81 80 79 77 76 76 75 75 75 76 76 77 77 77 79 80 80 81 80 80 80 80 80 80 80 79 79
73 73 74 74 74 75 75 76 77 76 77 77 79 80 82 82 82 81 79 78 78 77 76 76 76 76 76 77 77 78 80 81 82 83 83 82 82 82 82 81 81 80
73 73 74 74 75 75 76 76 78 78 78 77 77 77 78 79 79 80 80 81 81 81 82 81 81 80 79 79 78 78 79 80 82 83 84 85 85 84 83 83 82 82
76 77 78 78 78 78 79 80 81 81 81 80 79 79 79 79 79 80 81 81 82 83 83 84 85 85 84 83 83 82 82 82 82 82 84 85 86 86 85 85 84 83
77 78 79 80 80 81 81 82 83 84 84 84 84 84 85 85 85 84 84 84 84 85 85 86 86 87 87 87 86 86 86 86 86 86 85 85 86 87 88 87 86 86
77 78 79 81 82 82 82 83 84 85 86 87 88 89 89 90 91 91 90 89 89 89 89 89 90 90 91 91 90 90 90 91 91 91 90 89 89 88 89 89 89 88
80 82 84 85 86 87 88 88 89 89 90 90 90 91 92 92 93 93 93 93 93 92 92 93 93 94 94 94 94 94 94 95 96 96 95 94 93 92 91 91 91 91
86 88 90 91 91 91 91 92 92 92 92 91 91 91 91 91 91 91 92 92 93 93 93 94 94 95 96 96 97 97 97 97 98 98 99 98 98 96 95 94 94 93
93 93 93 93 92 92 93 93 93 93 93 93 93 93 93 93 92 92 92 92 93 93 94 95 95 95 96 97 98 98 99 98 98 99 99 100 100 99 98 97 97 96
96 95 95 94 94 94 94 95 95 96 96 96 96 96 97 97 97 97 97 97 97 97 97 98 98 98 98 98 99 101 101 102 101 101 101 101 102 101 101 100 99 98
96 96 96 97 97 97 97 98 98 98 99 99 100 100 101 102 102 103 103 103 103 103 103 103 102 102 102 102 103 103 104 105 105 106 106 105 105 104 104 103 102 101
97 98 98 99 99 100 100 101 101 102 102 103 103 104 104 105 105 105 105 105 106 106 106 106 106 106 106 107 107 108 108 108 108 108 109 109 109 109 108 107 106 105
99 100 100 100 101 101 102 102 102 103 103 103 103 103 103 103 103 103 103 103 102 103 103 104 104 105 106 107 109 110 111 111 111 111 111 111 112 112 112 111 110 109
100 100 100 100 100 99 99 99 98 97 97 97 97 97 97 97 97 98 98 97 97 97 97 97 97 98 99 101 104 106 108 110 111 112 113 113 114 114 114 114 113 113
96 95 94 93 92 91 90 89 88 88 87 87 87 87 87 87 88 89 89 90 91 91 91 91 91 92 93 94 96 99 101 103 105 107 109 111 113 114 114 115 115 115
87 85 83 82 80 79 79 78 78 78 78 78 77 77 77 78 79 80 81 82 83 84 85 86 86 87 88 89 91 93 95 97 99 100 102 104 106 108 110 112 113 115
77 75 74 73 73 72 72 72 72 72 72 72 71 71 72 72 73 74 75 76 78 79 80 80 81 81 83 85 86 88 90 93 95 96 97 98 99 101 103 105 107 110
71 70 70 70 70 69 69 69 69 69 69 69 69 69 70 70 71 72 73 74 76 77 77 77 78 79 81 82 83 84 86 88 90 91 92 93 94 96 97 99 101 103
68 68 68 68 68 68 68 68 68 68 69 70 71 71 72 72 73 74 75 76 77 78 78 78 78 79 81 81 82 83 84 86 87 87 88 89 90 91 92 94 96 98
66 67 67 67 67 68 68 69 70 71 72 73 73 74 74 74 74 75 75 75 76 77 77 76 76 78 79 79 80 81 82 83 84 84 84 85 85 86 87 89 90 92
66 67 68 68 69 70 71 72 73 73 74 74 74 73 73 73 73 73 73 73 74 75 75 74 74 76 77 77 78 79 80 80 80 80 80 80 80 80 81 83 84 85
68 69 70 71 71 72 72 72 72 72 73 72 72 71 71 72 72 72 73 74 74 74 74 73 72 73 75 75 76 76 76 76 76 75 75 75 75 76 77 78 79 81
70 71 71 71 71 71 71 70 70 70 70 71 71 71 71 72 72 72 72 72 72 72 72 71 69 69 71 71 70 70 69 68 67 66 66 66 66 67 68 71 72 75
70 70 70 70 69 69 69 69 69 69 70 71 72 72 71 71 70 69 68 68 68 67 66 66 64 64 65 64 61 60 60 58 56 55 55 55 56 57 59 61 64 66
69 69 68 68 68 67 68 68 69 69 70 70 71 70 69 67 66 65 64 63 62 60 60 61 60 58 57 56 54 53 53 52 50 50 50 51 53 55 57 59 62 64

ECMWFNIL_500_spd_033.txt.gz
Wind_Speed
69 70 70 70 72 74 76 77 78 79 79 79 79 79 80 81 82 84 85 87 87 87 87 87 86 85 84 84 84 84 85 85 85 85 85 85 85 84 82 81 81 80
72 73 74 74 74 75 77 79 81 81 82 82 82 81 82 83 84 85 87 88 87 87 88 88 87 86 85 84 83 82 81 81 81 81 82 83 83 84 83 82 82 81
74 76 78 78 78 78 80 81 83 84 85 85 85 84 84 84 85 87 88 87 85 84 84 85 85 86 86 86 85 84 83 82 80 79 78 78 79 80 81 81 82 82
75 78 80 81 82 83 83 83 83 85 86 86 86 85 84 83 84 85 86 85 85 84 84 83 83 84 84 85 86 87 88 87 85 83 81 80 80 79 80 80 81 81
72 74 76 78 80 82 82 81 81 82 83 84 85 85 84 84 85 85 86 87 88 89 89 88 88 88 88 88 89 90 90 90 90 89 88 87 87 86 85 85 84 83
72 73 74 76 79 81 83 84 83 83 83 84 85 86 87 87 88 88 89 90 91 92 92 92 92 92 93 93 93 93 93 94 94 95 94 94 93 93 92 91 90 89
77 78 79 80 82 84 85 86 86 86 86 86 87 87 88 89 90 90 91 91 91 92 93 94 95 96 97 97 97 97 97 97 98 98 98 98 98 97 97 96 95 94
80 81 82 82 83 85 85 86 87 87 88 89 90 91 92 93 94 94 95 95 95 96 97 98 99 99 99 98 98 98 99 99 100 100 101 101 100 100 100 99 98 97
83 84 85 85 86 87 88 89 90 91 91 92 93 95 96 96 97 97 98 98 99 99 99 100 100 99 99 99 99 99 99 100 100 101 102 102 103 103 102 102 101 100
85 86 87 88 88 89 90 91 92 93 93 94 95 95 96 97 98 98 98 99 99 99 100 100 100 100 100 101 101 101 101 101 101 102 102 103 104 104 105 105 105 104
86 87 88 89 90 91 92 93 94 94 95 95 96 96 96 97 98 98 98 99 99 100 101 101 102 102 102 103 103 103 103 103 103 103 103 103 104 104 105 106 106 106
88 89 90 91 92 93 94 94 95 95 96 96 96 97 97 98 98 99 99 100 100 101 101 102 102 103 103 104 104 105 105 105 105 105 105 105 105 105 106 106 107 108
90 91 92 93 93 94 94 95 95 95 96 96 96 97 97 98 98 98 99 99 99 100 100 100 101 102 102 103 104 105 105 105 105 106 106 106 106 106 107 107 108 109
91 92 92 93 93 94 94 94 95 95 95 95 95 95 95 95 95 95 95 95 95 95 96 96 97 97 98 99 100 101 102 102 103 103 104 104 104 105 105 105 106 107
91 92 92 92 93 93 93 92 92 92 91 90 90 89 88 88 87 87 87 87 87 87 88 88 89 90 91 92 93 94 95 96 96 97 97 98 99 99 99 100 101 103
90 90 90 90 89 88 87 86 84 83 81 80 79 78 77 77 77 78 78 79 79 79 79 80 81 82 83 85 86 88 89 90 90 90 91 92 93 93 93 93 94 95
87 86 85 83 82 80 78 76 74 72 71 70 70 69 70 70 70 71 72 73 73 74 74 75 76 77 79 80 81 83 84 85 86 86 87 87 88 88 89 88 88 89
82 80 78 75 73 71 69 68 67 66 66 66 66 67 67 68 68 69 70 71 72 72 73 74 75 76 77 78 79 80 81 82 82 82 83 83 83 84 85 85 86 86
75 73 71 69 67 66 65 64 64 65 65 65 66 66 67 68 69 70 71 72 72 72 72 73 73 74 75 75 76 76 77 78 78 78 78 78 78 79 80 81 82 83
69 67 65 64 63 63 63 63 64 64 65 66 67 67 68 69 69 70 70 71 71 71 71 70 70 71 71 72 73 73 74 75 75 75 75 75 75 76 77 77 78 79
64 63 62 62 62 62 62 63 64 65 67 68 68 69 69 69 70 70 70 69 69 69 69 68 69 70 71 71 72 73 74 74 74 74 74 74 74 74 74 74 75 75
61 61 61 61 62 63 64 65 66 67 68 69 69 70 71 71 70 70 69 69 69 69 68 68 68 70 71 71 72 72 72 72 72 71 71 71 71 71 70 70 70 71
61 61 61 62 63 64 65 66 67 68 70 70 71 70 70 70 69 69 68 68 68 69 69 68 68 69 70 69 69 69 69 68 68 68 68 67 67 66 65 64 63 63
61 62 63 64 65 65 66 67 69 70 71 71 71 70 69 68 68 67 67 68 68 68 68 67 66 66 66 65 65 64 63 62 63 64 63 62 61 60 58 57 55 55
62 63 64 65 66 66 68 68 69 70 70 70 69 68 67 67 67 67 67 67 67 67 66 65 63 62 62 60 57 56 56 57 59 60 59 58 57 54 52 51 50 49
63 64 65 66 66 67 68 69 70 69 69 68 67 67 67 67 67 67 66 66 65 64 62 62 60 58 56 53 51 51 52 54 54 55 54 53 52 50 48 47 47 47

ECMWFNIL_500_spd_036.txt.gz
Wind_Speed
62 62 63 63 64 65 66 67 68 70 72 74 76 78 79 80 80 81 81 81 81 81 82 83 83 84 84 84 85 86 86 86 86 85 84 83 82 81 81 81 82 82
64 64 65 65 66 67 68 69 71 72 73 75 76 78 80 81 82 83 84 84 85 85 86 86 87 87 87 87 88 88 88 88 88 88 87 87 86 85 84 83 83 83
68 68 68 68 68 69 70 71 72 72 73 75 77 79 80 82 84 85 86 88 88 89 89 90 90 91 92 92 92 91 90 89 88 87 87 88 88 87 87 86 86 86
71 71 71 71 71 71 72 72 73 74 74 75 76 78 80 81 83 85 86 88 89 89 90 91 91 92 94 95 95 94 92 91 90 89 88 88 89 88 89 90 90 91
73 74 73 73 73 72 72 73 75 75 75 75 76 77 79 81 82 83 85 86 87 88 89 90 92 93 94 95 95 95 95 95 94 94 93 93 93 93 93 94 94 95
73 73 73 72 72 71 72 73 76 77 77 78 80 81 82 83 83 84 85 87 88 89 89 90 91 92 93 94 95 96 97 97 98 98 98 98 98 98 98 98 98 98
72 72 72 72 73 74 76 78 79 80 81 82 83 83 83 83 84 85 86 86 87 88 89 90 91 92 92 93 94 94 96 97 98 99 100 100 101 101 101 101 101 101
73 74 75 76 77 79 79 80 80 80 81 82 82 83 83 84 84 85 86 87 88 89 90 91 92 93 93 94 94 95 96 97 98 99 99 100 101 101 101 102 102 102
76 76 77 77 78 78 78 79 79 80 80 81 82 84 85 85 86 87 88 89 90 90 91 92 93 94 94 95 96 96 97 98 99 99 100 100 101 101 102 102 103 102
77 77 77 78 78 79 79 80 81 82 83 84 85 86 87 88 89 90 91 91 92 93 93 94 94 95 95 96 96 97 98 98 99 100 101 101 102 102 102 103 103 102
77 78 79 79 80 81 82 83 84 85 85 86 87 89 89 90 91 92 93 93 93 94 94 95 95 95 96 96 97 97 98 98 99 99 100 101 101 101 102 102 103 103
79 79 80 81 82 82 84 85 86 87 88 89 90 90 91 92 92 93 93 94 94 94 94 94 94 95 95 95 95 96 96 96 97 97 98 98 99 99 99 99 100 100
80 80 81 82 83 84 85 86 87 89 90 91 91 91 92 92 92 93 93 93 93 93 93 92 92 92 92 92 92 92 92 93 93 93 94 94 94 94 94 94 95 95
81 81 82 83 84 85 87 88 89 90 91 91 91 92 92 92 91 91 91 90 89 89 88 88 87 86 86 86 86 86 87 87 87 88 88 88 88 88 89 89 89 90
82 83 84 85 86 87 88 89 90 90 90 90 90 90 89 89 88 87 86 84 83 82 81 81 80 79 80 80 80 81 81 82 82 82 83 83 83 83 83 84 84 85
83 84 85 86 87 88 89 89 89 89 88 87 87 85 84 83 81 80 79 77 76 75 74 74 74 74 75 76 77 77 78 78 78 78 79 79 79 79 79 79 79 80
84 85 87 88 88 88 87 86 85 84 83 81 80 78 77 75 74 72 71 70 70 70 70 70 70 71 72 73 74 75 75 75 75 75 75 75 75 75 75 75 75 75
86 87 87 87 86 85 84 82 80 78 76 74 72 71 69 68 67 66 66 66 67 67 68 68 69 70 71 71 72 72 73 73 73 72 72 72 72 72 72 71 71 71
86 86 86 85 83 81 79 77 74 72 70 68 66 65 64 63 63 64 64 65 66 67 67 67 68 69 70 70 71 71 72 72 71 70 70 69 69 69 69 69 69 69
85 84 83 81 79 76 74 71 69 66 65 63 62 62 62 62 63 64 65 66 66 67 67 67 68 70 70 70 70 70 70 70 70 69 69 69 68 68 68 68 68 68
83 81 79 76 73 70 68 66 64 63 62 62 62 62 62 63 64 65 66 66 67 67 67 68 69 70 70 70 70 70 70 70 70 70 70 69 69 68 68 68 67 67
79 76 72 69 67 64 63 62 61 61 62 62 63 63 64 65 66 66 67 67 68 69 69 69 69 70 70 69 70 70 70 71 71 70 70 69 68 67 66 65 65 64
73 69 66 64 62 61 61 61 61 62 63 64 64 65 66 67 67 67 68 69 69 70 70 69 68 69 69 69 70 71 71 71 71 70 69 67 66 64 62 61 59 58
67 64 62 61 60 61 61 62 63 64 65 66 66 66 67 68 68 68 69 70 70 70 69 68 68 68 69 70 70 71 71 70 70 68 66 64 62 60 56 54 52 51
62 61 60 60 60 61 62 63 64 65 66 67 67 68 68 68 69 69 69 69 69 69 69 69 68 68 69 69 69 69 69 68 66 65 62 60 57 54 50 47 46 47
60 60 60 60 61 62 63 64 65 66 67 67 68 68 68 69 69 69 68 68 68 68 68 68 67 67 66 66 66 65 65 64 62 60 57 54 51 48 45 44 44 46

ECMWFNIL_500_spd_039.txt.gz
Wind_Speed
71 70 69 69 69 69 69 69 69 69 69 69 69 70 71 73 74 75 77 78 79 80 81 81 82 82 82 82 82 82 83 83 84 84 85 85 86 86 86 87 87 88
72 71 70 70 70 70 70 71 71 71 71 71 71 71 72 73 74 75 77 78 79 80 81 82 83 83 84 84 84 84 85 85 87 88 88 88 88 89 89 89 90 90
72 71 71 70 70 70 70 71 71 71 71 71 72 73 73 74 75 76 77 78 78 79 80 81 81 82 83 83 84 85 86 87 88 89 90 90 91 92 92 93 93 93
73 72 72 71 71 71 71 71 71 71 72 73 73 74 75 75 75 76 76 77 77 78 78 79 80 81 82 84 85 86 87 88 88 89 89 90 91 92 93 94 94 95
73 72 72 71 71 71 71 71 71 72 73 74 74 74 75 75 75 75 76 76 77 77 78 80 81 82 83 84 85 86 87 88 88 89 89 89 90 91 92 93 94 95
74 73 72 71 71 71 71 71 71 72 72 73 73 73 74 74 75 75 76 76 77 78 79 80 82 82 83 84 85 86 87 87 88 88 89 89 90 91 92 92 93 93
75 74 74 73 73 72 72 72 72 72 72 72 73 73 74 74 75 75 76 77 78 79 80 81 82 83 84 85 85 86 87 88 88 89 89 90 90 91 92 92 93 93
74 73 73 72 72 72 71 71 71 72 72 72 73 74 74 75 76 77 78 78 79 80 81 81 82 83 84 85 86 87 87 88 89 89 90 90 91 91 92 93 93 93
73 73 72 72 71 71 71 71 72 72 73 74 74 75 76 77 78 79 79 80 81 82 82 83 84 84 85 86 87 88 88 89 89 90 90 91 91 92 93 93 94 94
73 73 73 72 72 72 72 73 73 74 75 75 76 77 78 78 79 80 81 82 82 83 84 85 85 86 87 88 88 89 89 90 90 91 91 92 92 93 93 94 94 94
73 73 73 73 73 74 74 75 75 76 76 77 78 79 79 80 81 82 83 83 84 85 85 86 87 88 89 89 90 90 90 90 91 91 91 91 91 91 92 92 92 92
74 75 75 75 76 76 76 77 77 77 78 79 79 80 81 82 83 84 84 85 86 87 87 88 89 90 90 90 90 90 90 90 90 90 89 89 89 89 88 88 89 89
75 75 76 76 77 77 77 78 78 79 79 80 81 81 82 83 84 85 86 87 88 89 89 90 90 91 90 90 89 89 88 88 87 87 86 85 85 84 83 83 83 83
74 75 76 76 77 77 78 78 79 79 80 81 82 83 84 85 86 87 87 88 89 89 90 89 89 88 88 87 86 85 84 83 82 81 80 79 79 78 78 78 77 77
75 75 76 77 77 77 78 79 79 80 81 82 83 84 85 86 87 88 88 88 88 88 87 86 85 84 83 82 81 79 78 77 76 75 75 74 73 73 73 73 73 73
75 76 76 77 77 78 79 80 81 81 82 83 84 85 86 87 87 87 87 86 85 83 82 80 79 78 77 76 75 74 73 72 71 71 70 70 70 70 70 70 70 70
75 76 77 78 79 79 80 81 82 82 83 84 85 86 86 86 85 84 82 81 79 77 76 74 73 72 71 70 70 70 70 69 69 68 68 69 69 69 69 69 69 69
77 78 78 79 80 80 81 82 83 83 84 84 84 84 83 82 80 79 77 75 73 71 69 68 67 67 67 67 67 68 68 68 68 68 68 68 69 69 69 70 70 69
78 79 80 80 81 82 82 83 83 83 83 82 81 80 78 76 74 72 70 68 67 65 64 64 64 65 65 66 67 68 69 69 69 69 70 70 71 71 71 71 71 71
80 80 81 82 82 83 83 82 82 81 80 78 76 74 72 70 68 66 64 63 62 62 62 63 64 65 66 67 68 69 69 70 71 71 72 72 73 73 73 73 73 73
81 82 82 82 82 82 81 80 78 76 74 72 70 68 66 64 62 61 60 61 61 62 62 64 65 66 67 68 69 70 71 72 73 73 73 74 74 74 73 73 73 72
82 82 82 81 80 79 77 74 72 70 68 66 64 62 61 60 59 60 60 61 62 63 64 65 66 67 68 69 70 71 72 73 73 73 73 73 72 72 71 70 70 69
81 81 80 78 76 73 71 68 66 64 63 61 60 59 59 59 60 60 62 63 64 65 65 66 67 69 69 70 71 72 72 72 72 71 70 70 69 68 67 66 65 65
79 78 75 72 69 67 64 62 61 60 59 58 58 58 59 59 60 61 63 64 65 66 67 67 68 69 70 70 70 71 70 70 69 68 67 66 65 64 63 62 61 60
74 71 68 65 62 60 58 57 57 57 57 57 58 58 59 60 61 62 64 65 66 67 67 67 67 68 68 69 68 68 68 67 66 65 64 63 62 60 58 57 57 55
67 64 61 58 56 55 54 54 55 56 57 58 58 59 60 61 62 63 64 65 66 66 66 67 66 66 66 66 66 65 65 64 63 62 61 60 58 56 55 53 53 51

ECMWFNIL_500_spd_042.txt.gz
Wind_Speed
61 62 63 64 65 67 68 69 71 72 73 73 73 74 74 74 74 74 74 74 73 73 73 74 74 74 75 75 76 77 78 78 79 80 81 81 82 83 84 85 86 87
64 65 66 67 68 69 70 71 72 73 73 74 74 74 74 74 74 74 73 73 73 73 73 73 74 74 75 75 76 77 78 79 79 80 80 80 81 81 82 83 84 85
66 68 68 69 70 71 72 73 73 74 74 74 73 73 73 72 72 71 71 71 71 71 72 73 73 74 75 75 76 76 77 78 79 79 80 80 80 81 81 82 83 84
69 70 70 71 72 72 73 74 74 75 74 74 74 73 73 72 71 70 70 70 70 71 71 72 72 73 74 74 75 75 76 77 78 79 80 80 81 82 82 83 83 84
71 71 72 72 73 74 75 76 76 76 76 75 75 74 73 72 71 70 70 70 70 70 70 71 71 72 73 73 74 75 75 76 77 78 79 80 81 82 83 83 84 84
73 73 74 74 75 76 77 77 77 76 76 75 75 74 73 72 71 70 70 69 70 70 71 72 72 73 73 74 75 75 76 77 77 78 79 80 81 82 83 84 84 85
74 74 75 76 77 77 77 77 76 76 76 75 74 74 73 72 71 71 71 71 72 72 73 73 74 74 75 75 76 77 78 78 79 80 80 81 82 83 83 84 84 85
75 76 76 77 77 77 77 77 76 76 75 75 74 74 73 72 72 73 73 73 73 74 74 75 75 76 76 77 78 78 79 80 80 81 81 82 82 83 84 85 85 86
76 76 77 77 77 77 77 77 76 76 75 75 74 74 74 73 74 74 74 75 75 76 76 76 77 77 78 79 79 80 80 81 81 82 82 83 84 85 85 86 87 88
77 77 77 77 77 77 77 76 76 75 75 74 74 74 74 74 74 75 76 76 77 77 78 78 79 79 80 80 81 81 82 82 83 83 84 85 86 87 87 88 88 89
77 77 78 78 77 77 76 76 75 74 74 74 74 74 74 75 76 76 77 78 78 79 79 80 80 81 81 82 82 83 83 84 85 85 86 87 87 88 88 88 88 88
77 78 78 78 77 77 76 74 74 73 73 74 74 75 75 76 77 77 78 79 80 81 81 82 82 82 83 83 84 85 85 86 86 87 87 87 87 86 86 86 85 85
78 78 78 78 77 76 74 73 73 73 74 74 75 75 76 77 78 79 80 81 82 82 83 84 84 84 85 86 86 86 86 86 86 86 85 84 83 82 82 81 81 80
77 77 77 76 75 74 73 73 73 74 74 75 76 77 78 79 80 81 82 82 83 84 84 85 85 86 86 86 86 86 85 85 83 82 81 80 79 78 77 76 75 75
76 76 75 75 74 73 73 73 74 74 75 76 77 78 79 80 81 82 83 83 84 84 85 85 85 85 85 84 84 82 81 80 78 77 75 74 73 73 72 71 71 71
74 74 74 73 73 73 74 74 75 76 77 78 79 80 81 81 82 83 83 83 83 83 84 84 83 82 81 80 78 77 75 73 72 70 70 69 68 68 67 68 68 68
72 72 72 72 73 74 75 76 77 78 79 80 80 81 81 82 82 82 82 81 81 81 80 79 78 76 75 73 72 70 69 67 66 65 65 65 65 65 66 67 68 69
70 71 72 73 75 76 77 78 78 79 80 81 81 81 80 80 80 79 79 78 77 76 75 73 72 70 68 67 66 65 64 63 63 63 63 64 65 66 67 68 69 70
70 72 73 75 76 77 78 79 80 80 80 80 80 79 78 77 76 75 74 73 72 70 68 67 65 63 62 62 62 62 62 62 63 64 65 66 68 69 69 70 70 70
71 73 75 76 77 78 79 79 80 80 79 78 77 76 74 73 72 71 69 68 66 64 62 61 61 60 60 61 62 62 63 64 65 66 67 68 68 69 69 69 69 69
72 74 76 77 78 78 79 79 79 77 76 74 73 71 70 69 67 66 64 62 61 59 58 59 59 60 61 62 63 64 64 65 66 66 66 67 67 67 67 66 66 66
74 76 77 78 78 78 78 77 75 73 72 70 69 67 66 64 62 60 59 58 57 57 57 58 60 61 61 62 63 64 64 65 65 65 65 65 65 65 64 64 64 64
76 77 78 78 77 76 74 72 71 69 68 66 65 63 61 59 57 56 56 56 56 57 58 59 60 61 62 62 63 63 63 63 63 63 63 63 63 63 62 62 62 62
77 77 76 75 73 71 69 68 67 66 64 63 61 58 56 55 54 54 55 56 57 57 58 58 59 60 61 61 62 62 62 62 62 61 61 61 61 61 61 60 60 60
75 74 72 70 68 67 66 65 64 62 61 58 56 54 54 54 54 54 55 56 56 57 57 57 58 59 60 60 60 61 61 60 60 60 60 60 59 59 59 59 59 59
70 68 66 66 65 64 63 62 60 59 57 55 54 53 53 53 54 54 55 55 55 56 56 56 56 57 58 58 58 59 59 59 58 58 58 58 58 58 58 58 59 59

ECMWFNIL_500_spd_045.txt.gz
Wind_Speed
54 55 56 58 60 61 63 64 65 66 67 69 70 72 73 74 74 75 75 75 75 75 75 75 75 75 75 75 75 75 75 75 75 75 74 75 75 75 76 76 77 78
57 59 60 62 63 64 65 65 66 67 69 71 73 74 75 75 75 76 76 75 75 75 75 75 75 76 76 76 76 75 75 75 75 75 75 75 75 76 76 77 77 78
61 62 64 65 66 66 66 66 68 70 71 73 74 75 76 76 76 76 75 75 75 75 75 75 76 76 76 75 75 75 75 75 75 76 76 76 76 76 77 77 77 78
63 64 65 66 66 66 67 68 70 72 73 74 76 76 77 77 76 76 75 75 75 75 75 75 75 75 75 75 75 75 75 75 76 76 76 76 76 76 77 77 78 78
64 65 66 66 67 68 69 70 72 73 74 76 77 77 77 77 76 76 75 75 75 75 75 75 75 75 75 75 75 75 75 75 75 76 76 76 76 77 77 78 79 79
65 66 67 68 69 70 71 72 74 75 76 77 77 77 77 77 77 76 76 75 75 75 75 75 75 76 76 75 76 76 76 76 76 76 77 77 77 78 78 79 80 81
68 69 70 70 71 72 73 74 75 76 77 77 77 77 77 77 76 76 76 76 76 76 76 76 76 76 76 76 76 76 76 77 77 77 78 78 79 80 80 81 82 83
71 71 72 72 73 74 75 76 76 77 77 77 77 77 77 76 76 76 76 76 76 76 76 76 76 76 76 76 76 76 76 77 78 79 79 80 81 82 83 83 84 85
72 73 73 74 75 76 76 76 77 77 77 77 77 77 76 76 76 76 76 77 77 77 76 76 76 75 75 76 76 77 78 78 80 81 82 83 84 85 85 86 87 87
73 74 75 75 76 76 76 77 77 77 77 77 76 76 76 76 76 76 76 77 77 77 76 76 76 76 76 77 77 78 80 81 82 83 85 86 87 88 88 88 89 89
75 76 76 76 76 77 77 77 78 77 77 76 76 76 76 76 76 76 76 76 76 76 76 76 76 77 78 79 80 81 83 84 85 87 88 88 89 89 89 89 88 87
76 76 76 77 77 77 77 78 77 77 76 76 75 75 75 76 76 75 76 76 76 76 76 77 78 79 80 82 83 84 86 87 88 88 89 89 88 87 86 85 84 83
76 76 77 77 77 77 77 77 77 76 76 75 75 75 75 75 75 75 76 76 77 77 78 79 81 82 84 85 86 87 88 88 88 87 86 85 84 83 81 80 78 77
76 76 76 77 77 77 77 76 76 76 75 74 74 74 74 75 75 75 76 77 78 80 81 82 84 85 86 87 87 87 86 85 84 83 81 80 78 76 75 74 72 70
76 76 76 76 76 76 76 75 75 74 74 73 74 74 74 75 75 76 77 79 81 82 84 85 85 86 86 86 85 84 82 80 79 77 75 73 71 70 68 67 66 65
75 75 75 75 75 75 75 74 74 73 73 73 74 74 75 75 76 78 80 81 83 84 84 85 85 84 83 82 80 78 76 74 72 70 69 67 65 64 63 63 63 64
74 73 73 73 73 73 73 73 73 72 73 73 74 75 75 77 78 80 82 82 83 83 83 83 81 80 78 77 75 73 71 69 67 65 64 63 62 62 62 63 63 64
72 72 71 71 72 72 72 72 72 72 73 73 74 76 77 79 80 81 81 81 81 80 79 78 77 75 73 72 70 68 66 64 62 61 61 60 61 61 62 62 62 63
70 70 69 70 70 71 72 72 72 73 73 74 76 77 78 79 79 79 78 78 77 76 75 74 72 71 69 67 65 63 62 61 60 60 59 60 60 60 60 61 61 62
68 68 68 69 70 71 72 72 73 73 75 76 77 78 78 77 76 75 74 74 73 72 71 70 68 66 64 63 61 60 60 59 59 59 58 58 59 59 59 59 60 60
67 67 68 69 70 71 72 72 73 75 76 77 77 76 74 72 71 71 71 70 69 68 67 66 64 62 61 59 59 58 58 58 58 57 57 57 57 57 57 58 58 59
66 67 68 69 70 71 72 73 75 76 76 75 73 71 69 68 68 68 68 67 67 66 64 62 61 60 58 58 58 57 57 57 57 56 56 56 56 55 56 56 56 57
67 68 68 69 70 72 73 74 74 74 73 70 68 66 65 65 66 65 65 65 64 63 61 60 59 58 57 57 57 57 57 56 56 55 55 54 54 54 54 55 55 56
67 68 69 70 71 72 73 73 72 70 67 65 64 63 64 64 64 64 63 63 61 60 59 58 58 57 57 56 57 57 56 56 55 54 54 53 53 53 54 54 55 56
68 69 70 71 71 72 72 70 68 65 63 62 62 63 63 63 63 62 61 60 59 58 57 56 56 56 56 56 56 56 56 56 55 54 54 53 53 53 54 55 55 57
69 70 71 71 71 70 68 65 63 61 61 62 62 63 62 62 61 60 59 57 57 56 56 56 55 55 55 55 56 56 56 56 56 55 55 55 54 55 55 56 57 58

ECMWFNIL_500_spd_048.txt.gz
Wind_Speed
50 50 52 54 57 59 59 59 59 60 60 61 61 63 64 65 66 67 68 70 71 73 74 75 75 76 76 77 77 78 78 78 78 78 78 77 77 76 76 76 76 76
52 52 55 58 60 61 61 61 61 61 61 62 63 65 65 66 68 69 71 72 73 74 76 76 77 77 77 78 78 78 78 78 78 78 77 77 76 76 76 76 76 77
53 55 58 61 62 63 63 62 62 62 63 64 65 66 67 68 70 71 73 74 75 76 77 78 78 78 78 78 78 78 78 78 77 77 77 77 77 77 77 77 78 79
55 58 61 63 63 64 64 63 63 64 65 66 67 68 69 71 72 73 74 76 77 78 78 79 79 78 78 79 79 78 78 78 77 77 77 77 77 77 78 78 79 80
59 62 64 64 65 65 65 65 66 66 67 68 69 70 72 73 74 75 76 77 78 79 79 78 78 78 78 79 78 78 77 77 77 77 77 78 78 78 78 79 79 80
62 64 65 66 66 66 66 67 67 68 69 70 71 73 74 75 76 77 77 78 79 79 79 78 78 78 78 78 77 77 77 77 77 77 77 77 78 78 78 78 79 80
64 65 66 66 67 68 68 68 69 70 71 72 74 75 76 77 77 78 79 79 79 79 79 78 78 78 78 77 77 76 76 76 77 77 77 77 77 77 78 79 80 81
65 66 67 68 69 69 69 69 70 72 73 75 76 77 77 78 79 79 80 80 80 80 79 79 78 78 77 77 76 76 76 76 76 76 76 76 77 78 79 81 83 84
66 67 68 69 70 70 70 71 73 75 76 77 78 79 79 80 80 80 80 80 80 80 79 78 78 77 77 76 75 75 75 75 75 75 76 77 79 80 82 84 85 85
67 68 70 71 71 71 72 74 76 77 79 79 80 80 80 80 80 80 80 80 80 79 78 77 77 76 76 75 74 74 74 75 75 77 78 80 81 82 83 83 83 83
68 69 71 72 72 74 76 77 79 81 81 82 82 81 81 80 80 80 80 80 79 78 77 76 76 75 75 74 74 74 75 76 77 79 80 81 81 81 81 80 80 80
69 71 72 73 75 77 79 81 82 83 83 83 82 82 81 80 80 79 79 78 77 77 76 75 75 75 74 74 75 75 77 78 79 80 80 80 79 78 78 78 78 78
71 72 73 75 77 79 81 83 84 84 83 82 82 81 80 79 79 78 77 77 76 75 75 75 74 75 75 75 76 78 79 79 79 78 78 77 76 76 76 76 76 75
72 74 76 78 80 82 84 85 84 83 82 82 81 81 80 78 77 77 76 75 74 74 74 74 75 75 76 77 78 79 78 78 77 75 74 74 74 74 74 74 73 72
74 76 79 81 82 84 86 85 83 82 82 82 81 80 79 77 77 76 75 74 74 74 74 75 76 77 78 79 79 77 76 74 73 72 72 72 72 72 72 70 69 68
77 79 81 83 84 85 85 83 82 81 81 81 80 79 78 77 76 75 74 73 73 74 75 76 77 78 79 78 76 74 72 71 70 70 70 70 70 69 68 67 65 64
79 81 82 83 83 83 82 81 81 81 81 80 79 78 77 75 74 73 73 73 74 75 76 77 78 79 78 75 72 70 69 69 69 69 69 68 67 66 65 63 62 62
81 82 81 81 81 82 81 81 81 80 79 78 77 76 75 73 73 73 73 74 75 76 77 78 78 76 73 70 69 68 68 67 67 67 66 65 65 63 62 61 60 59
81 80 79 80 81 81 81 80 79 79 78 77 76 74 73 73 73 73 74 75 76 77 77 77 75 71 68 67 67 67 67 66 66 65 64 63 62 61 60 59 58 58
80 78 78 79 81 80 80 79 78 77 76 75 74 73 73 73 73 74 75 76 77 77 75 73 70 67 65 66 66 66 66 66 65 64 63 62 61 60 59 58 57 57
78 77 78 80 80 79 78 77 76 75 74 73 73 73 73 73 73 75 76 76 76 74 71 68 66 65 65 65 66 66 65 64 64 63 62 61 60 59 58 57 57 57
77 78 79 79 79 77 76 74 73 72 72 72 73 73 73 74 75 75 76 75 73 69 66 64 64 64 65 65 65 65 64 63 63 62 61 60 59 58 57 57 57 58
78 78 78 78 76 74 73 71 71 71 72 73 73 74 74 75 75 75 74 71 67 64 63 63 64 64 65 64 64 64 63 62 62 61 59 58 57 57 57 57 58 58
78 77 76 75 73 71 70 70 70 71 72 73 74 75 75 75 74 72 69 65 62 62 63 63 64 64 64 64 64 63 62 61 61 60 58 57 56 56 56 57 58 59
76 74 73 71 70 69 69 70 71 72 73 74 75 75 74 73 71 67 63 61 61 63 63 63 64 64 64 63 63 62 61 61 60 58 57 56 56 56 56 57 58 59
73 71 70 68 68 68 69 70 72 73 74 74 74 74 72 69 65 61 59 60 62 63 64 63 63 63 63 62 62 61 61 60 59 58 56 56 56 56 57 57 58 60

ECMWFNIL_500_spd_051.txt.gz
Wind_Speed
45 46 46 47 47 47 47 47 47 49 51 53 56 58 59 61 62 64 66 67 67 68 69 70 71 71 73 74 75 77 78 78 79 80 81 82 82 83 83 83 83 83
46 47 48 48 48 49 48 48 49 51 53 56 58 60 61 63 65 66 67 68 68 69 70 71 72 73 75 77 78 79 79 80 80 81 82 83 83 83 83 82 82 82
48 48 49 49 50 50 49 50 52 54 56 57 59 61 63 65 66 68 68 68 69 71 72 73 74 76 78 79 80 81 81 81 81 82 83 83 83 83 82 82 81 81
48 48 49 50 51 51 51 52 54 56 57 59 61 63 65 66 68 68 69 70 71 72 73 75 77 79 81 81 82 82 82 82 82 83 83 83 83 82 81 81 80 79
48 49 50 51 51 52 53 55 57 58 60 61 63 65 66 67 68 69 70 71 72 74 76 79 80 82 82 83 83 83 83 83 83 84 83 82 81 81 80 79 78 77
49 50 50 51 52 54 56 57 59 60 62 64 65 66 67 68 69 70 71 72 74 77 79 81 83 83 84 84 84 84 84 84 84 84 82 81 80 79 78 77 76 76
51 51 51 52 54 56 58 59 61 63 64 65 66 67 69 70 71 72 72 74 76 80 82 83 84 84 85 85 85 85 85 84 84 82 81 79 78 77 76 76 75 75
53 53 53 55 56 58 60 62 63 65 66 67 68 69 70 71 72 73 74 76 79 82 84 85 85 85 86 86 86 86 85 84 83 81 79 78 77 76 76 76 76 76
55 55 56 58 59 61 63 64 66 67 68 68 69 70 71 72 73 74 76 79 82 84 86 86 86 86 86 87 86 86 84 83 81 79 77 76 76 76 76 76 77 78
56 57 58 60 62 64 65 67 68 68 69 69 70 72 73 74 75 76 78 82 84 86 86 86 86 86 87 87 86 84 83 81 79 77 76 75 76 76 77 77 78 78
57 59 60 62 64 66 67 68 69 69 70 70 72 73 74 75 76 78 81 84 86 86 86 86 86 86 86 85 84 82 81 79 77 76 76 76 77 77 78 78 78 76
59 60 61 63 66 67 69 70 69 70 71 72 73 74 75 76 78 81 83 85 86 87 86 86 86 85 84 83 82 80 79 78 76 76 76 77 78 78 78 77 75 73
60 61 63 65 67 69 70 70 70 71 72 73 75 76 77 79 81 83 85 86 87 87 86 85 84 83 82 81 80 79 78 77 76 76 77 78 79 78 77 75 72 70
61 63 65 67 68 69 69 70 70 72 73 75 76 77 79 81 83 85 86 87 87 86 85 84 83 82 80 79 78 78 77 77 76 77 78 79 78 77 74 71 69 68
62 64 66 67 68 69 69 70 72 73 75 76 78 80 82 83 85 87 87 87 86 85 84 83 81 80 79 78 77 77 77 77 77 78 79 78 77 73 70 68 67 68
64 65 66 68 68 69 70 72 73 75 76 78 80 82 83 85 86 87 86 85 85 84 83 82 81 79 78 77 77 77 77 78 78 79 78 76 73 69 67 67 67 68
64 66 67 67 68 70 72 73 74 76 78 80 82 84 85 86 86 85 85 84 83 82 81 81 80 78 77 77 76 77 77 78 79 78 76 73 69 66 66 67 68 68
65 66 67 68 69 71 73 74 76 78 80 82 84 85 86 85 84 84 84 83 82 81 80 79 78 77 76 76 76 77 78 79 78 76 72 68 66 65 66 67 68 68
65 66 67 69 71 72 74 76 78 81 83 84 84 84 84 83 83 83 82 81 80 80 79 78 77 77 76 77 77 78 79 78 76 72 67 65 65 66 67 67 67 67
66 67 68 70 72 74 76 78 81 82 83 83 83 83 82 83 83 82 81 80 79 78 77 76 77 77 77 78 79 79 78 76 72 67 64 64 65 66 66 67 67 66
67 68 70 71 73 76 78 80 81 82 82 82 82 82 82 82 81 80 79 79 78 77 76 76 77 77 78 79 79 78 77 73 67 63 63 64 65 65 66 66 65 64
68 70 72 74 76 78 79 79 80 81 81 81 81 81 81 81 79 78 78 77 77 76 76 77 78 79 79 79 79 77 74 68 63 62 63 64 65 65 65 64 64 63
71 73 75 76 77 78 78 78 79 80 81 81 80 80 80 79 78 77 77 77 76 76 76 78 79 80 79 79 77 74 69 63 61 62 63 64 65 64 64 63 62 62
74 75 75 76 77 77 77 78 79 80 80 79 79 78 78 77 77 77 76 76 76 77 78 79 80 80 78 77 74 69 64 61 61 63 64 64 64 64 63 62 61 60
74 75 76 76 77 77 77 78 79 79 78 78 77 77 76 76 76 75 75 76 77 78 79 80 80 79 76 73 69 65 62 61 62 63 64 64 64 63 62 61 60 59
74 75 76 77 77 77 77 78 78 77 77 77 76 76 75 75 74 75 76 77 78 79 80 79 78 76 73 69 65 63 62 63 63 64 64 64 63 62 61 60 60 59

ECMWFNIL_500_spd_054.txt.gz
Wind_Speed
41 41 41 42 42 43 44 45 46 47 48 48 48 48 49 49 50 51 52 53 55 57 58 60 62 64 65 66 67 67 68 69 71 72 73 75 77 79 81 82 83 85
41 42 42 43 43 44 45 47 48 49 50 50 49 50 50 51 51 52 54 55 57 59 60 62 64 65 67 67 68 68 70 71 72 74 75 77 79 81 83 84 85 87
41 42 43 43 44 46 47 48 50 51 51 51 51 52 52 53 54 55 56 58 59 60 62 64 66 67 68 68 69 70 71 73 74 75 77 79 81 83 85 86 87 88
42 43 43 45 46 47 49 50 52 53 53 53 54 55 55 56 57 58 59 60 61 62 64 65 67 68 69 70 70 71 72 74 76 77 79 81 84 85 87 88 88 89
42 44 45 46 48 49 51 52 53 54 54 55 56 57 58 58 59 60 61 62 63 64 65 67 68 69 70 71 71 72 74 75 77 79 81 84 86 87 88 89 89 89
44 46 47 48 49 51 53 54 54 55 56 57 58 59 59 60 61 63 64 64 65 65 66 68 70 71 71 72 72 73 75 77 79 81 84 86 87 88 89 89 88 88
46 47 48 49 51 53 54 55 56 57 58 58 58 59 60 61 63 64 65 65 66 66 68 69 71 72 72 72 73 75 77 79 81 83 86 87 88 89 89 88 88 88
47 48 49 51 53 55 56 56 57 58 58 58 59 60 62 63 65 65 66 66 66 67 69 70 71 72 73 73 74 77 79 81 84 86 87 88 89 89 88 88 88 87
47 49 51 53 55 56 57 58 58 58 58 59 60 62 63 64 65 66 66 67 68 69 70 71 72 73 74 74 76 79 81 83 86 87 88 88 88 88 87 87 86 85
49 51 53 55 56 57 58 59 59 59 59 61 62 64 64 65 66 66 67 68 69 70 71 73 73 74 74 76 78 81 83 85 87 87 88 88 87 87 86 86 84 83
52 53 55 56 58 59 60 60 60 59 61 63 64 65 65 66 66 67 68 69 70 71 73 74 74 75 76 78 81 83 85 86 86 87 87 87 86 85 85 84 82 81
53 55 56 57 59 60 61 61 61 61 63 64 65 66 66 66 67 68 69 70 72 73 74 74 75 76 79 81 83 85 86 86 86 87 86 86 85 84 83 82 81 80
54 55 56 57 59 61 62 62 62 63 64 65 66 66 66 67 68 69 71 72 74 74 75 76 77 79 81 83 85 85 85 86 86 86 85 85 84 83 81 80 80 80
53 54 55 57 60 61 63 63 64 64 64 65 66 66 66 68 69 71 73 74 75 75 76 77 79 81 83 85 85 85 85 85 85 85 84 84 83 82 80 80 80 80
53 54 55 58 60 62 63 63 63 63 64 65 66 66 68 69 71 73 74 75 75 76 77 79 81 82 84 85 84 84 84 84 84 84 83 83 82 81 80 80 80 81
54 54 55 57 59 62 63 63 63 63 64 65 66 68 70 71 73 74 75 75 76 78 79 81 82 84 84 84 84 83 83 83 83 83 82 82 81 80 80 80 81 82
55 55 56 57 60 62 63 63 63 64 65 66 68 69 71 73 74 75 75 76 78 80 82 83 84 84 84 84 83 82 82 82 82 81 81 81 80 80 80 81 82 82
56 56 57 59 61 62 62 63 64 65 66 68 69 71 72 74 74 75 76 78 80 82 83 83 84 84 84 83 82 82 82 82 81 81 80 80 80 81 81 82 82 81
56 57 59 60 61 62 62 63 65 66 67 68 70 72 73 74 75 76 78 80 82 83 83 83 84 84 83 82 81 81 82 81 81 80 80 80 81 81 82 82 81 80
58 59 60 61 61 62 63 65 66 67 68 70 71 73 74 75 76 78 80 81 82 83 83 83 84 83 82 81 81 81 81 81 80 80 80 80 81 82 81 81 80 78
61 61 61 62 62 64 65 67 68 69 70 71 72 73 74 76 78 80 81 82 82 83 83 83 83 82 82 81 81 81 81 80 79 79 80 81 82 81 80 80 78 76
63 62 62 63 64 66 67 68 69 70 71 72 73 74 76 78 80 81 82 82 82 83 83 82 82 82 82 81 81 80 80 79 79 79 81 81 81 80 79 78 76 73
63 63 64 65 66 67 68 69 69 71 72 73 74 76 78 80 81 81 81 82 83 83 82 81 81 82 82 81 80 80 80 79 79 80 81 80 79 79 78 76 73 70
64 64 65 66 67 68 68 69 70 71 72 74 76 79 80 81 81 81 82 83 83 82 81 80 81 81 81 80 80 80 80 80 80 80 80 79 78 78 76 74 70 68
64 65 66 66 67 68 69 70 72 73 75 77 79 80 80 80 81 82 82 82 81 80 80 80 80 80 80 80 80 80 81 80 80 80 79 78 77 77 74 71 68 67
65 66 66 67 68 69 71 72 74 76 78 79 79 80 80 81 81 81 80 80 80 80 80 80 80 79 80 80 80 81 81 81 80 79 77 76 76 75 72 68 67 67

ECMWFNIL_500_spd_057.txt.gz
Wind_Speed
42 42 42 42 43 43 44 45 45 45 45 46 46 46 47 48 49 50 51 51 52 53 54 55 56 57 58 59 60 60 61 62 62 62 63 63 65 66 67 68 69 70
42 42 42 42 43 44 44 45 46 46 46 46 47 48 49 50 51 51 52 53 54 55 56 57 58 59 59 60 61 62 63 64 64 64 63 64 66 68 69 69 71 72
41 42 42 43 44 44 45 46 46 46 46 47 48 49 50 51 52 53 54 55 56 57 58 59 60 60 60 61 62 64 65 66 66 65 64 66 67 69 70 71 73 75
41 42 43 43 44 45 46 46 46 46 48 49 50 51 52 53 54 55 56 57 58 59 60 61 61 62 62 63 64 66 67 67 67 65 65 67 69 71 72 74 76 77
41 42 43 44 45 45 46 46 47 48 49 50 51 52 53 54 55 56 57 58 60 61 62 63 63 63 64 65 67 67 68 68 67 66 66 68 71 72 74 76 78 78
42 43 44 44 45 45 46 47 48 49 50 51 53 54 55 56 56 58 59 60 61 62 63 64 65 65 66 67 68 69 69 68 68 67 68 70 72 74 76 77 78 79
43 44 44 45 45 45 46 47 49 50 52 53 55 55 56 57 58 59 60 61 63 64 65 66 66 67 68 69 69 69 69 69 69 69 70 71 73 75 77 78 79 81
44 44 44 44 45 46 47 49 51 52 54 55 55 56 57 58 59 60 62 63 64 65 66 67 67 69 70 70 70 70 70 70 70 71 72 73 75 77 79 80 81 83
44 44 45 45 46 48 49 51 53 54 55 56 56 58 59 60 61 62 63 64 65 66 67 68 69 70 71 71 71 70 71 71 72 73 74 75 77 79 80 82 83 85
46 46 47 48 49 50 52 53 55 55 56 57 58 59 60 61 62 63 63 64 66 67 68 70 71 71 71 71 71 71 72 73 75 76 76 76 78 80 82 84 85 87
48 49 49 50 51 52 54 55 56 56 57 58 60 61 62 63 63 63 64 65 67 68 69 71 72 72 72 72 72 73 74 76 78 78 77 77 79 81 83 85 87 90
50 51 52 52 53 54 55 56 57 58 59 60 61 63 63 63 63 64 65 66 67 68 70 72 72 72 72 73 74 75 76 79 80 80 78 79 81 83 85 88 90 91
51 52 53 54 56 57 58 58 59 59 60 61 63 63 63 63 64 66 66 66 68 69 71 72 72 73 73 74 75 77 78 80 81 81 81 82 83 85 88 90 91 91
52 54 55 56 58 59 60 60 60 61 61 62 63 63 63 64 65 66 66 67 69 71 72 73 73 74 75 76 77 78 79 81 82 83 83 84 86 88 90 91 91 91
53 55 56 58 59 60 61 61 61 61 61 62 63 64 63 64 64 66 67 69 71 73 73 73 73 74 76 77 78 79 81 82 83 85 86 87 89 90 91 91 91 91
55 56 58 59 60 61 62 62 61 61 61 63 63 63 62 63 64 67 69 71 73 73 73 73 74 75 76 78 79 80 81 82 84 85 87 89 91 91 91 90 91 91
58 59 59 60 62 63 63 62 61 61 63 64 63 61 61 63 66 69 71 73 73 73 73 73 74 76 77 79 80 81 81 82 83 86 89 91 92 91 90 91 92 91
59 59 58 60 62 62 61 61 62 64 64 63 61 61 63 65 68 71 72 73 73 73 73 73 75 77 79 80 80 80 81 81 83 86 90 92 92 90 90 92 92 90
57 57 57 58 59 60 60 61 63 63 62 62 63 65 67 69 71 72 72 72 72 73 73 74 76 78 80 80 80 79 80 81 84 89 91 92 90 90 92 92 90 88
57 56 55 56 57 59 60 60 60 60 61 64 66 68 70 72 72 71 71 71 72 73 74 75 78 79 79 79 78 78 79 83 87 91 91 90 90 92 93 91 88 87
56 55 55 55 56 58 57 56 58 62 66 68 68 70 71 72 70 70 70 72 73 74 76 77 78 78 77 77 77 79 83 87 90 90 89 89 91 93 91 89 87 87
52 54 56 57 57 57 56 57 62 67 70 70 70 71 71 70 69 70 72 73 74 76 77 78 77 76 76 78 81 85 88 89 89 89 89 91 92 91 89 87 87 86
52 55 57 58 58 57 59 64 68 70 71 70 69 69 69 69 70 72 73 75 76 77 77 76 75 76 79 83 86 88 89 88 88 89 91 92 90 88 87 87 87 86
56 58 59 59 60 63 66 69 71 72 71 69 69 69 70 71 72 73 75 76 76 76 75 75 77 81 84 87 88 88 88 88 89 91 91 90 88 87 87 86 86 85
60 61 62 62 64 68 71 72 73 72 70 69 70 71 72 73 74 75 75 75 75 75 77 79 82 84 86 87 87 88 89 90 90 90 88 87 86 86 86 86 85 83
61 63 64 65 69 72 73 74 72 70 69 71 72 73 73 73 73 73 74 75 76 78 81 83 83 84 85 87 88 89 90 90 89 88 86 85 85 85 85 84 83 81

ECMWFNIL_500_spd_060.txt.gz
Wind_Speed
44 44 44 44 44 44 44 44 44 44 43 43 44 44 45 45 46 47 48 49 49 50 50 50 51 53 54 55 55 56 56 57 58 59 60 60 61 60 60 61 63 65
44 44 44 43 43 43 43 43 43 43 43 43 44 44 45 46 47 48 49 50 50 51 51 52 53 55 56 57 58 58 58 59 60 60 61 62 62 62 63 63 65 67
42 42 42 42 42 43 43 43 43 42 43 43 44 45 45 46 48 49 50 51 51 52 53 54 56 57 58 59 59 60 60 61 61 62 62 63 64 64 64 65 66 67
39 39 40 41 41 42 42 42 42 42 42 43 44 45 46 47 49 50 51 52 53 54 55 56 58 59 60 60 61 61 62 62 63 64 64 64 65 66 66 67 66 67
38 38 39 40 41 41 41 41 41 42 42 44 45 46 47 49 50 51 52 53 54 56 57 58 59 61 61 61 62 62 63 64 65 65 65 66 67 68 68 68 67 67
38 38 39 40 41 41 42 42 42 43 44 45 46 47 49 50 51 52 54 55 56 57 59 60 61 62 62 62 63 64 65 66 66 66 66 67 68 69 70 70 69 69
38 38 39 41 41 42 43 43 44 45 45 46 47 48 50 51 52 54 55 56 58 59 61 62 62 63 63 64 64 66 67 67 67 67 68 68 69 70 70 71 71 71
39 39 40 41 42 43 44 45 45 46 47 48 48 50 51 52 54 55 57 58 60 61 62 63 63 64 65 65 66 68 69 69 69 69 69 69 69 70 71 72 73 74
41 40 40 41 42 43 44 45 46 47 48 49 50 51 53 54 55 57 59 60 61 62 63 64 65 66 66 67 69 70 70 70 71 71 71 70 70 70 72 74 75 76
42 42 42 42 42 43 45 46 47 48 49 50 51 53 54 56 58 59 60 61 62 63 64 65 66 67 68 70 71 71 71 72 73 72 71 70 70 72 75 76 77 77
44 44 44 44 45 46 47 48 49 50 51 52 53 55 56 58 60 61 62 62 63 64 65 67 68 69 71 72 71 72 73 74 74 72 71 71 73 75 77 77 78 79
46 46 46 47 48 49 50 51 52 52 53 54 55 57 58 60 61 62 62 63 64 65 67 68 69 71 71 72 72 73 74 74 73 72 72 73 76 77 78 79 79 80
47 48 49 50 51 52 53 53 54 54 55 56 57 58 59 60 61 62 63 64 65 67 68 69 69 70 71 72 73 74 74 73 73 72 74 77 79 79 79 80 80 81
50 51 52 52 53 54 54 54 54 55 56 57 58 59 60 61 62 63 64 65 66 67 67 68 69 70 71 71 72 73 74 73 73 74 76 79 80 80 81 81 82 83
52 53 54 54 55 54 54 55 55 56 58 59 60 60 61 63 64 64 65 66 67 67 68 69 70 70 70 70 72 74 75 75 75 76 78 80 81 81 81 82 83 84
55 56 56 57 56 56 56 57 58 59 60 61 61 62 63 64 65 65 66 67 67 66 67 67 68 68 69 72 74 77 78 77 76 77 79 80 80 80 82 83 84 84
56 57 58 58 58 58 59 59 60 61 61 62 62 62 63 63 64 65 66 65 64 64 65 66 67 69 73 76 78 80 80 78 76 77 78 78 79 80 82 82 82 84
57 58 58 58 59 59 60 60 61 61 61 61 61 60 61 62 64 65 64 62 62 64 66 68 70 74 77 80 82 82 80 78 76 77 77 77 79 80 80 80 82 84
56 57 57 57 57 58 58 59 59 59 60 60 59 60 62 62 63 63 62 62 64 66 67 69 72 76 80 82 83 82 79 77 76 75 76 77 78 78 79 81 83 85
55 56 56 57 57 57 57 58 59 60 60 60 61 63 64 64 64 64 63 65 67 68 69 72 75 79 81 82 82 81 78 76 74 75 75 76 77 79 81 83 84 84
54 55 56 56 57 58 59 59 60 60 60 61 63 63 63 64 65 65 66 69 71 72 75 77 80 81 81 81 80 79 77 74 73 73 75 77 80 82 83 83 82 83
52 54 55 57 58 59 59 58 59 60 61 62 61 61 62 65 66 66 69 73 75 77 78 79 78 79 79 79 78 77 75 73 73 74 77 80 82 83 82 80 81 84
54 56 57 58 59 59 59 59 61 61 60 59 61 64 68 69 70 72 75 77 76 76 75 75 75 76 77 77 77 75 74 75 76 78 80 81 80 79 79 81 85 90
56 57 58 59 60 62 62 63 63 62 61 64 69 71 71 72 73 76 77 76 74 72 72 72 74 75 76 76 76 76 76 78 79 79 78 77 77 79 82 87 91 93
57 59 60 61 62 64 64 64 64 65 67 69 70 70 70 73 75 75 73 71 70 70 71 72 73 74 75 76 76 77 77 78 78 77 76 77 81 85 89 91 92 92
59 61 62 63 63 63 62 62 64 64 64 66 67 69 70 72 72 71 70 70 70 71 72 73 74 74 75 75 75 76 77 77 78 79 81 84 87 90 91 91 91 90

ECMWFNIL_500_spd_063.txt.gz
Wind_Speed
38 38 39 39 40 41 42 44 44 45 45 45 45 44 45 45 45 45 45 45 45 46 46 47 48 50 50 51 52 53 54 55 55 56 57 58 59 60 61 62 62 62
38 38 38 39 40 41 42 43 44 44 44 44 44 44 44 44 44 44 44 44 45 46 47 48 49 50 51 52 53 54 55 56 57 58 59 60 61 62 63 64 64 63
38 38 39 40 40 41 42 42 42 42 42 42 42 42 42 42 43 43 43 43 44 46 47 49 50 51 52 53 54 55 56 58 59 60 62 62 63 64 65 66 65 65
39 39 39 40 41 41 41 42 42 41 41 41 41 41 42 42 42 42 42 44 45 46 48 49 51 52 53 54 56 57 58 59 61 62 63 64 65 66 67 68 68 68
38 38 38 38 39 39 40 41 42 42 42 42 41 41 41 42 42 42 43 44 46 47 49 51 52 53 54 56 57 58 60 61 63 64 65 66 67 68 69 70 70 70
35 35 36 36 37 37 38 39 40 41 42 42 42 42 42 42 43 44 45 46 47 49 50 52 53 54 55 57 58 60 61 63 64 65 67 68 69 71 71 72 72 72
35 36 36 36 37 37 38 38 39 40 41 41 42 42 43 43 44 45 46 48 49 51 52 53 54 55 57 58 60 61 63 64 66 68 69 70 71 72 73 73 74 74
37 38 38 37 37 38 39 39 40 40 40 41 42 42 43 45 46 47 48 50 51 52 53 55 56 57 58 60 61 63 64 66 68 70 70 71 72 73 74 75 76 75
40 41 40 40 39 39 39 40 41 42 42 42 43 43 44 46 47 49 50 51 52 54 55 56 57 58 60 61 63 65 67 69 70 70 71 71 72 74 75 76 76 75
43 43 43 42 41 40 41 41 42 43 44 44 44 45 46 47 48 50 51 52 53 55 56 57 58 60 61 63 65 67 69 69 70 70 71 72 73 74 75 75 75 76
43 43 44 44 43 43 42 43 44 45 45 46 46 47 47 48 49 50 51 53 54 56 57 59 60 62 63 65 66 68 69 69 70 71 71 71 72 74 74 74 74 75
42 43 44 45 45 45 45 46 46 46 47 48 48 49 49 50 51 52 53 54 55 57 59 60 62 63 64 66 67 68 69 70 71 70 70 70 71 72 72 72 74 75
42 43 45 46 46 47 48 48 48 49 49 50 51 51 52 53 53 54 55 56 57 58 59 60 62 64 65 67 68 69 69 69 69 69 69 69 70 70 71 73 75 77
43 44 45 46 47 48 49 50 50 50 51 52 52 53 54 54 55 56 57 58 58 59 60 62 64 65 66 67 68 68 68 69 69 69 69 68 68 70 72 75 77 78
44 44 45 46 48 49 50 51 51 51 52 52 53 54 55 55 56 57 58 59 59 61 62 63 64 65 65 66 67 67 69 70 70 69 67 67 69 72 75 77 79 80
45 45 46 47 48 49 51 52 52 52 52 53 53 54 55 56 57 58 59 60 61 62 62 62 63 64 65 66 67 68 70 71 70 69 68 69 73 76 78 80 81 82
46 47 48 49 49 50 51 52 52 53 52 53 53 53 55 57 58 59 60 61 61 61 62 63 64 65 65 66 67 69 71 72 73 73 73 75 79 81 81 82 83 84
49 49 50 51 52 52 52 52 52 52 51 51 52 53 55 56 57 58 59 59 60 61 63 64 64 65 67 68 70 71 72 74 75 77 78 81 83 83 82 83 83 81
51 52 53 54 54 54 54 53 52 50 50 51 52 53 55 55 56 57 58 59 61 62 63 63 65 68 70 71 72 73 74 76 78 80 82 82 83 83 82 81 79 77
54 55 55 56 55 55 53 51 50 49 48 50 51 52 54 55 57 58 59 61 62 63 63 64 67 71 72 72 73 75 77 79 80 81 81 81 82 81 79 75 74 75
54 54 54 53 53 51 49 48 47 46 47 49 50 52 55 57 58 59 60 61 62 63 64 66 69 72 72 73 74 76 77 78 79 79 79 80 79 76 73 72 74 76
52 51 51 50 49 49 47 46 46 47 49 51 52 55 58 59 60 60 61 62 63 66 68 70 72 73 74 74 75 74 74 75 77 78 78 78 76 73 72 73 75 77
51 51 50 50 49 49 47 46 47 50 53 54 56 58 60 61 62 62 64 66 69 71 72 73 74 75 74 74 74 73 73 75 77 78 78 77 75 73 73 75 76 77
53 53 53 52 51 50 49 48 49 52 55 57 58 59 60 61 62 63 64 67 69 70 71 73 75 75 74 74 74 74 75 76 77 78 78 76 74 73 74 75 76 76
56 55 53 53 52 51 50 51 52 53 55 57 59 60 61 63 64 65 65 66 67 67 70 73 74 75 75 75 74 75 76 77 77 77 76 74 73 73 73 74 74 75
56 54 52 52 52 51 52 53 54 55 56 59 60 62 63 65 67 67 67 67 68 69 72 74 75 75 75 75 75 75 75 75 74 73 72 71 71 71 72 73 76 79

ECMWFNIL_500_spd_066.txt.gz
Wind_Speed
33 33 33 34 35 35 36 37 38 38 38 39 40 42 43 44 45 46 46 47 47 47 47 47 47 47 48 49 50 50 51 51 52 54 55 56 56 57 58 59 60 61
33 34 34 34 34 35 36 37 37 38 38 39 40 41 42 43 44 45 46 46 46 46 46 46 46 47 48 49 49 50 51 52 53 54 56 57 57 58 59 60 61 62
34 34 34 34 34 35 36 36 37 37 38 39 39 40 41 42 43 44 44 45 45 46 45 46 46 47 47 48 49 50 51 52 54 55 57 57 58 59 60 62 63 64
35 35 34 34 34 35 35 36 36 36 37 37 39 40 40 41 42 43 43 44 44 45 45 45 46 46 47 48 49 50 51 53 54 56 57 58 59 61 62 63 64 65
35 35 35 35 36 36 36 35 35 35 36 38 40 40 40 41 42 42 43 43 44 45 45 45 46 46 47 48 49 50 52 53 55 57 58 59 61 62 63 65 66 67
36 36 37 38 38 38 37 36 36 37 38 39 40 41 41 41 41 42 43 43 44 45 46 46 46 46 47 48 50 51 53 54 56 58 59 61 62 63 65 66 67 68
37 37 37 38 38 38 38 38 39 40 41 41 41 41 42 42 42 43 43 44 45 46 46 47 47 48 49 50 51 52 54 56 58 59 61 62 64 65 66 68 69 70
36 37 37 37 38 38 39 40 41 42 43 42 42 42 42 42 42 43 44 44 45 46 47 48 49 49 50 51 53 54 56 58 60 61 62 64 65 66 68 69 69 70
38 38 38 39 39 40 41 42 43 43 44 44 44 44 43 43 43 44 45 45 46 47 48 49 50 51 52 53 54 56 58 60 61 62 64 65 66 67 68 69 69 70
39 39 40 40 41 42 42 43 43 44 44 45 45 45 45 45 45 46 46 46 47 48 48 49 51 52 53 54 56 58 59 60 62 63 65 66 67 67 68 69 69 70
39 40 41 41 42 43 43 43 43 44 45 45 46 46 46 47 47 47 48 48 48 49 49 50 51 53 54 56 57 58 59 61 63 64 65 66 67 67 68 69 70 71
40 41 42 43 43 43 43 43 44 44 45 46 46 47 47 48 48 49 50 49 49 50 50 51 52 54 55 57 58 59 60 62 64 65 66 66 67 68 70 70 70 70
42 43 44 44 44 44 44 44 44 45 45 46 46 47 47 48 49 50 51 51 51 51 51 52 53 55 56 58 59 60 61 63 64 65 67 68 69 71 71 70 68 68
44 44 44 45 45 45 45 45 45 45 46 46 47 47 47 48 50 51 52 53 52 52 52 52 53 55 57 58 60 61 62 64 66 67 68 69 70 70 69 67 68 69
46 45 45 45 45 45 45 45 46 46 47 47 47 48 49 50 51 52 53 54 53 52 53 53 54 55 57 58 60 62 64 66 67 67 68 68 68 68 68 68 70 72
47 46 46 46 45 45 46 46 46 47 47 48 48 49 50 51 52 53 53 54 54 53 54 54 54 55 57 60 63 64 65 66 66 67 67 68 68 69 69 69 71 74
46 46 46 46 45 45 46 46 47 47 48 49 49 51 51 52 53 53 53 53 53 53 53 54 56 59 61 63 64 64 64 66 67 68 68 68 68 68 69 71 74 77
45 46 46 46 46 46 47 47 47 48 49 49 50 50 50 50 51 51 51 51 51 51 52 55 59 60 60 61 62 63 65 68 69 69 69 68 68 69 71 73 76 78
45 45 46 47 47 47 48 47 47 48 48 48 48 48 48 49 49 50 50 50 49 50 51 53 56 57 57 59 62 65 67 69 69 68 68 68 70 71 73 75 77 78
46 46 46 47 48 48 48 48 47 47 46 46 47 48 49 50 50 51 51 51 51 52 53 54 56 57 58 61 65 67 69 68 68 69 70 72 73 74 75 77 78 77
48 47 47 48 49 49 49 48 47 46 46 47 48 50 51 52 53 53 53 52 53 54 56 58 60 62 64 67 69 70 70 70 71 72 73 73 74 75 76 76 74 74
50 49 49 49 49 49 49 49 48 48 48 49 50 52 54 54 54 54 52 51 53 56 59 61 62 64 65 65 66 66 67 68 70 70 70 70 72 74 74 74 74 75
51 51 50 50 50 50 50 50 49 50 51 52 53 55 56 55 53 52 51 51 53 56 59 60 61 61 61 61 63 65 67 69 70 70 70 71 73 75 77 78 80 82
51 51 51 51 51 51 51 52 52 53 54 55 56 57 56 54 53 53 53 54 56 57 59 60 61 62 64 65 67 68 69 71 72 72 72 74 76 79 81 83 82 81
52 53 53 53 53 54 54 55 55 56 57 58 58 56 54 53 53 53 54 55 57 59 60 62 63 64 65 66 67 68 68 69 70 72 73 76 78 80 80 79 76 74
56 56 57 57 57 57 57 58 58 59 60 59 58 56 54 53 54 54 56 56 57 59 60 61 62 62 63 64 66 67 68 69 71 73 74 76 77 77 76 74 73 72

ECMWFNIL_500_spd_069.txt.gz
Wind_Speed
33 33 33 34 35 36 36 36 37 36 36 36 36 36 37 38 38 39 39 40 41 41 42 43 44 45 45 46 47 47 48 49 49 50 51 52 52 53 54 55 55 57
33 33 34 36 36 37 37 37 38 37 37 37 37 37 37 38 38 39 39 39 39 41 42 42 43 44 44 45 45 46 47 48 49 50 51 52 52 53 54 55 56 57
34 34 35 36 36 37 37 37 38 38 38 38 38 38 38 39 38 38 38 38 39 41 42 42 43 44 44 44 45 45 46 47 48 49 50 51 52 53 54 55 57 58
35 35 35 36 37 37 37 37 38 38 38 39 39 39 39 39 39 38 39 40 41 42 43 43 44 44 44 44 45 45 46 46 48 49 50 51 52 54 55 56 58 59
35 35 36 36 37 37 37 37 38 38 40 40 41 41 40 40 40 41 41 42 43 44 44 44 44 45 45 44 45 45 46 46 47 49 50 52 53 54 55 57 58 59
36 35 36 36 37 37 37 37 38 39 40 41 41 41 41 41 42 42 43 44 44 45 45 44 44 45 45 45 45 45 46 46 47 49 51 52 54 55 57 58 59 60
37 36 37 38 38 38 38 38 39 39 40 41 42 42 42 43 44 44 45 46 46 45 45 45 45 45 45 45 45 45 46 47 48 50 52 53 55 56 58 59 60 61
39 39 39 39 39 38 39 39 40 41 41 42 42 43 43 44 45 46 46 47 47 46 46 47 46 46 46 46 46 46 46 47 49 51 52 54 55 57 58 60 61 62
41 41 40 40 40 40 41 42 42 43 43 43 43 44 44 45 46 47 48 48 48 48 48 49 48 47 47 48 48 48 48 49 50 52 53 54 56 57 59 60 62 63
42 42 41 41 42 43 44 44 44 44 44 44 45 46 46 47 48 49 49 49 49 49 50 50 50 50 49 50 50 51 51 52 52 53 53 54 56 58 60 61 62 64
43 42 42 43 44 45 45 45 45 45 46 47 48 48 49 49 50 50 50 50 50 51 50 51 51 51 51 51 52 52 53 54 53 53 54 55 56 58 60 61 63 65
42 43 44 44 45 45 45 46 47 48 48 49 50 50 51 51 51 51 51 51 51 51 51 51 51 52 52 53 53 54 55 55 54 54 55 56 57 59 61 62 64 65
43 43 44 45 45 45 46 47 48 49 50 51 51 51 51 52 51 51 51 51 50 50 50 51 51 52 53 54 55 55 56 56 56 56 57 57 58 60 61 62 64 65
44 43 44 44 45 46 47 48 49 50 51 51 51 51 51 51 51 51 50 50 50 50 50 51 52 52 53 55 56 56 56 57 57 56 57 59 60 60 61 63 64 66
44 44 44 45 46 47 48 49 49 50 51 50 49 49 49 49 49 50 50 49 50 50 51 51 52 52 54 55 56 56 56 56 56 56 57 58 59 61 63 66 67 67
44 44 45 45 46 47 48 49 49 49 49 48 48 48 48 49 49 49 50 50 50 51 51 52 52 53 54 54 54 55 54 54 54 55 57 58 61 64 66 67 66 66
44 45 46 46 47 48 48 48 48 48 48 47 47 48 49 49 50 50 50 50 51 51 52 52 52 53 53 53 53 53 53 53 53 55 58 60 63 64 65 65 65 66
44 45 46 46 46 47 47 47 48 48 48 48 48 49 50 50 50 51 51 51 51 51 52 52 52 52 52 51 52 53 54 54 55 57 58 60 62 63 65 66 67 69
45 45 46 47 47 47 47 47 48 49 49 50 51 51 51 51 51 51 51 51 51 52 52 52 51 52 52 52 52 53 54 55 56 58 60 62 65 66 67 68 69 69
46 47 47 48 48 48 48 48 49 50 51 52 52 52 52 51 51 51 51 51 52 52 53 53 52 52 52 53 53 54 54 56 58 60 62 65 65 63 62 62 62 62
47 48 48 49 49 49 49 50 51 52 53 53 52 52 51 51 51 51 52 53 53 54 54 55 54 54 54 54 55 55 55 57 59 61 63 63 60 57 57 58 59 60
49 50 50 50 51 51 51 52 52 52 52 52 51 51 51 51 52 53 54 55 55 55 55 55 55 56 56 56 56 55 56 58 60 61 62 60 58 59 61 63 65 67
50 51 51 52 52 52 52 52 52 51 51 51 51 51 52 53 54 55 56 56 56 56 56 57 57 57 57 56 56 56 57 59 60 62 63 64 64 66 67 68 68 68
52 52 53 53 53 53 53 53 53 52 52 52 52 53 54 55 56 57 57 57 57 57 58 58 58 58 56 56 56 57 58 60 61 62 63 65 66 67 67 67 66 66
54 55 55 55 56 55 55 55 55 55 54 54 55 55 56 57 57 58 58 58 58 58 58 58 58 57 55 56 57 58 59 60 60 61 63 64 65 65 64 63 64 65
57 57 58 58 58 57 58 58 58 58 58 57 57 58 58 58 59 59 59 59 59 59 58 58 58 57 57 58 58 59 59 60 60 61 62 63 63 63 62 63 64 67

ECMWFNIL_500_spd_072.txt.gz
Wind_Speed
40 39 39 38 38 37 37 36 37 38 38 37 36 37 38 38 39 39 40 41 41 41 41 41 41 42 43 43 43 43 43 44 45 46 46 45 46 47 47 47 49 49
41 41 41 41 40 39 38 37 37 37 38 37 37 38 39 39 40 40 40 41 41 41 41 41 42 42 43 43 43 43 44 45 46 47 47 46 46 47 48 48 49 49
41 41 42 42 42 41 40 39 38 38 38 38 39 39 40 40 40 41 41 42 42 42 42 42 42 42 43 43 44 45 46 46 47 47 47 47 46 47 48 48 49 50
42 41 42 43 43 43 42 41 41 40 39 39 40 40 40 41 41 42 43 43 43 43 43 42 42 42 43 44 46 47 47 48 48 48 48 48 48 47 47 49 50 50
43 42 42 42 43 43 43 43 43 41 40 40 40 41 41 41 42 43 43 44 43 43 43 43 43 44 45 46 47 49 49 49 49 48 48 48 48 49 49 50 51 51
43 43 43 43 43 43 43 43 43 42 42 42 42 42 43 43 43 43 43 44 44 44 45 45 45 46 46 48 49 50 50 49 49 49 49 49 49 50 50 51 52 52
43 44 44 44 44 44 44 44 43 43 44 44 44 44 44 44 44 44 44 45 45 46 46 47 48 48 49 50 51 52 51 50 50 50 50 50 50 50 51 52 53 53
42 43 44 45 45 45 45 45 45 45 45 45 46 46 45 45 45 45 46 46 46 47 47 49 50 51 51 52 52 52 52 51 51 51 51 51 51 51 52 53 53 55
41 42 42 43 45 45 46 47 47 47 47 47 47 46 46 46 47 47 47 47 47 48 50 51 52 53 53 53 53 53 53 52 52 52 52 52 52 52 53 54 54 56
40 40 40 40 42 44 46 47 48 48 48 48 48 47 48 48 49 49 48 48 49 50 52 53 54 54 55 55 54 54 54 53 53 53 53 53 53 54 54 55 56 57
41 40 40 40 41 43 44 45 47 48 49 49 49 49 49 49 49 49 49 50 50 51 53 54 54 55 56 56 55 54 54 54 54 54 54 54 54 54 55 56 57 58
42 41 42 42 43 44 45 45 46 47 48 49 49 50 50 50 50 50 50 50 51 52 53 53 54 55 56 56 55 54 54 55 55 55 55 55 55 55 56 57 58 58
42 41 42 44 45 46 46 46 46 47 48 49 49 50 50 50 50 50 50 50 51 51 52 52 52 53 54 55 55 55 55 55 56 56 56 57 56 56 57 57 58 59
42 42 43 45 46 47 47 46 46 46 47 47 49 49 50 50 50 50 50 50 50 50 50 50 51 52 53 54 55 55 55 56 57 57 57 57 57 57 57 57 58 59
43 44 44 44 45 46 47 46 46 46 47 47 48 48 49 49 50 50 50 50 49 49 49 50 51 52 53 55 55 56 56 56 57 57 58 57 57 57 57 57 58 59
43 45 45 45 45 46 47 47 47 48 48 49 49 49 50 50 50 50 50 50 49 49 50 51 52 53 55 55 56 56 57 57 57 57 57 57 57 57 57 58 59 60
43 44 44 44 46 47 47 48 48 49 50 50 50 50 50 50 50 50 50 50 49 50 51 53 54 55 56 56 56 56 57 56 56 56 57 57 58 58 58 59 60 61
45 44 43 43 45 46 47 48 49 49 50 50 50 50 50 50 51 51 51 51 51 52 54 55 56 56 56 56 56 56 56 56 56 57 57 58 58 59 60 60 60 61
48 46 44 44 45 46 47 47 47 48 48 48 49 49 49 50 50 51 51 52 53 54 56 57 57 57 57 56 56 55 55 56 57 58 58 59 60 60 60 60 61 62
52 49 48 48 48 49 48 47 47 47 47 47 48 48 49 50 50 51 52 53 54 56 57 57 57 57 56 55 55 55 56 57 58 59 60 61 62 61 61 61 61 61
56 54 53 52 52 52 51 49 48 48 48 48 48 49 50 50 51 52 53 54 55 56 57 57 56 56 56 56 56 56 57 58 59 60 61 62 62 62 61 61 60 61
59 57 57 56 55 54 53 51 51 50 50 50 50 50 51 51 52 53 54 55 56 56 57 56 56 56 57 57 57 57 58 59 59 60 61 61 61 61 61 61 62 63
60 60 59 58 58 56 55 54 53 52 51 51 51 52 52 53 53 54 55 56 56 56 57 57 58 58 58 58 58 58 59 59 60 61 61 61 61 61 61 62 62 61
62 61 61 60 59 59 58 57 55 54 53 53 53 54 54 55 55 55 56 57 57 58 58 59 59 59 59 59 59 59 60 60 61 62 62 62 62 62 62 62 62 61
62 62 62 61 60 60 59 58 58 57 56 56 56 57 57 57 57 57 58 58 59 59 60 60 61 61 61 61 60 60 60 60 61 62 63 63 63 63 63 63 63 63
62 62 62 61 61 60 60 60 59 59 59 59 59 59 59 59 59 60 60 60 61 62 62 62 62 62 61 61 60 60 59 60 60 61 63 64 63 62 62 62 62 64

ECMWFNIL_500_spd_075.txt.gz
Wind_Speed
42 41 39 38 39 41 42 43 43 42 42 43 44 44 44 44 44 43 43 43 43 43 43 43 44 44 44 44 44 44 44 44 45 45 46 46 46 47 47 47 48 49
45 44 43 41 40 40 42 44 45 45 43 44 45 45 45 45 44 44 44 44 44 44 44 44 44 45 45 45 44 45 45 45 45 45 46 47 47 48 49 49 50 50
47 46 46 45 43 43 42 43 46 47 45 45 45 45 45 45 45 45 45 45 45 45 45 45 45 45 46 46 46 46 45 45 46 47 48 48 48 49 50 51 51 51
48 47 48 48 47 46 44 44 46 48 48 46 46 46 46 46 46 46 46 46 46 45 45 46 46 47 47 47 47 46 46 46 47 48 49 50 49 50 51 52 52 52
48 48 48 50 50 49 46 45 46 49 50 48 47 47 47 48 47 48 47 47 46 46 46 46 47 48 48 47 47 47 48 48 49 50 51 51 51 52 52 53 53 53
49 48 48 49 51 50 48 46 46 49 51 50 49 48 48 48 48 49 48 48 47 47 47 47 47 48 48 48 48 49 50 50 50 51 52 53 54 54 54 54 54 54
50 49 49 49 50 50 49 48 47 48 50 51 51 50 49 48 48 49 49 49 48 48 48 48 48 48 49 49 50 50 51 51 52 52 53 54 54 55 55 54 55 55
51 51 50 50 49 47 47 48 48 48 49 50 51 52 51 49 48 48 49 49 49 49 49 49 49 49 49 50 51 51 52 52 53 54 54 54 55 55 55 55 54 54
53 53 51 49 46 44 44 46 48 49 50 51 51 51 51 50 49 48 49 50 50 50 51 50 50 50 51 51 52 52 53 53 54 55 55 55 55 56 56 55 54 54
56 54 49 45 42 41 41 44 47 50 51 52 52 51 50 50 49 49 49 50 51 51 51 51 52 52 52 52 53 53 54 54 55 55 56 56 56 56 56 55 55 54
57 52 44 40 39 39 40 43 47 50 51 52 52 51 49 49 49 49 49 50 51 52 52 53 53 53 53 53 53 53 54 54 55 55 55 55 54 55 55 55 55 55
53 45 38 38 39 40 41 44 46 48 49 50 50 49 48 48 49 49 50 50 51 52 53 53 53 53 53 53 53 53 53 54 54 54 54 54 53 54 55 55 56 56
45 39 37 39 41 42 43 45 46 47 47 49 49 48 48 49 49 49 50 50 51 52 53 53 53 53 53 53 53 53 53 53 53 53 53 54 54 54 55 56 56 57
41 37 38 41 43 44 44 45 46 47 48 49 50 50 50 51 51 51 50 51 51 52 53 53 53 54 53 53 53 53 53 53 53 53 54 54 55 55 56 56 58 59
41 40 41 43 44 45 44 44 45 46 47 48 49 50 51 52 52 52 52 52 53 53 53 54 54 54 53 53 53 53 53 53 53 54 55 56 56 56 57 58 59 59
43 42 44 45 46 45 44 44 44 44 45 45 46 47 49 51 52 53 53 54 55 55 56 56 56 55 54 54 53 53 53 53 54 55 56 57 58 58 58 59 59 60
47 46 46 47 46 46 45 45 45 45 45 45 44 44 46 48 51 53 54 55 56 57 57 58 58 57 56 55 54 54 54 55 56 57 58 59 60 60 60 59 59 59
50 49 49 48 47 47 47 47 48 48 47 47 46 45 45 46 49 51 53 54 56 57 57 58 58 57 56 55 55 56 56 56 57 58 59 60 61 61 61 60 60 60
53 52 51 50 49 49 49 50 51 51 50 50 49 47 46 46 48 49 50 51 53 54 55 56 56 56 56 56 56 56 57 57 58 59 60 61 61 61 61 62 62 62
54 54 53 52 52 52 52 53 54 53 52 51 51 50 49 49 49 49 49 50 51 52 53 54 54 55 55 55 56 56 57 58 59 59 60 60 61 61 61 62 63 63
55 55 54 54 54 55 56 56 55 54 53 53 53 53 52 52 51 50 50 50 51 52 53 53 54 54 55 55 56 56 57 58 58 59 60 60 60 60 61 61 62 63
57 56 56 56 57 58 59 59 58 58 57 57 57 56 55 54 53 52 51 51 52 53 53 54 55 55 56 56 56 57 57 58 59 59 60 60 60 61 61 62 63 64
59 59 59 59 61 62 62 62 61 61 60 60 59 58 57 55 54 54 53 53 53 53 54 55 56 56 57 57 57 57 58 58 59 60 61 62 63 64 64 64 65 65
61 62 62 63 64 64 64 64 63 63 62 62 62 61 59 58 57 56 55 55 55 55 55 56 56 57 57 57 58 59 59 60 61 62 63 64 65 66 66 66 65 65
65 65 66 66 66 66 66 66 65 65 65 65 64 63 62 61 60 59 59 58 58 58 58 59 59 59 59 60 60 61 62 63 64 65 66 66 66 66 65 65 64 64
68 68 69 69 68 69 69 68 68 68 67 67 66 65 64 64 63 63 62 62 62 62 62 62 62 62 62 63 64 64 65 66 67 67 67 66 66 65 64 63 62 62

ECMWFNIL_500_spd_078.txt.gz
Wind_Speed
46 46 45 44 43 43 43 44 45 44 43 43 44 44 44 44 46 48 50 52 51 49 48 48 49 49 49 50 49 49 49 49 48 48 48 48 48 48 49 49 49 50
48 47 46 45 44 43 44 45 46 46 45 46 47 47 47 47 47 48 50 52 53 52 50 49 49 49 49 50 50 51 50 50 49 48 49 49 49 50 50 50 50 50
50 49 47 46 45 45 45 46 46 46 46 48 49 50 50 49 49 49 50 52 54 54 53 51 50 50 50 51 51 52 52 51 51 50 50 50 51 51 51 51 51 50
51 49 48 48 48 48 47 47 46 46 47 49 51 52 52 51 51 50 50 52 54 55 54 53 52 51 51 52 52 52 52 52 52 52 52 52 52 52 51 51 51 51
51 50 49 49 49 49 48 47 46 47 48 50 52 53 53 52 52 52 52 51 52 54 55 53 52 52 52 52 52 52 52 53 53 53 53 53 53 52 52 51 51 51
51 50 50 50 50 49 48 47 47 48 50 52 53 53 53 52 51 53 55 53 50 51 53 54 53 52 52 53 53 52 52 53 54 54 54 53 53 53 52 52 52 52
51 51 51 50 49 48 48 47 49 50 52 52 52 51 51 51 51 54 57 55 51 48 49 51 53 53 53 52 52 52 52 52 53 54 53 53 53 53 53 53 53 54
51 51 51 50 50 49 49 50 51 52 52 51 50 49 49 49 52 55 56 55 51 47 46 49 51 53 53 53 52 51 51 52 52 53 53 53 54 54 54 54 54 54
51 51 51 51 51 51 52 52 51 50 49 49 48 48 48 49 52 53 53 51 50 48 46 46 49 51 52 53 52 52 53 53 53 54 54 54 54 54 54 54 54 54
51 52 53 53 53 53 52 50 47 45 45 47 48 48 48 49 49 49 49 48 48 48 47 47 48 49 51 52 53 53 53 53 53 54 54 54 54 54 54 54 54 54
53 54 55 55 54 51 48 45 42 42 44 46 47 48 47 46 46 46 46 47 47 47 48 48 49 50 51 52 53 53 53 53 53 53 53 54 54 54 53 53 53 54
56 56 56 54 50 46 43 41 41 42 44 45 47 47 46 45 45 45 45 45 45 45 46 48 49 51 52 53 53 53 53 53 53 53 54 54 55 55 55 55 55 54
56 54 52 49 46 42 41 41 42 43 44 45 45 45 45 45 44 44 43 43 43 44 45 47 48 50 52 53 54 54 54 54 54 54 55 55 56 56 56 56 55 55
52 50 48 45 43 41 41 42 43 44 44 44 44 45 45 45 44 43 42 43 44 45 47 47 48 49 50 52 53 54 55 56 57 57 57 57 57 57 57 56 56 56
49 47 45 44 44 43 43 44 44 44 45 44 44 44 45 45 44 43 43 44 45 46 48 48 48 48 49 50 51 52 54 56 57 59 60 60 60 59 59 58 58 58
49 48 46 45 46 46 46 46 46 46 46 45 45 45 46 46 45 45 45 45 46 47 47 47 48 48 49 50 50 52 53 55 57 59 60 61 62 62 62 61 60 59
50 50 49 48 48 49 49 49 49 48 48 47 47 47 47 47 47 47 47 47 47 47 48 48 49 50 51 51 52 53 54 55 57 58 60 61 62 62 63 63 62 61
51 52 51 51 51 51 50 50 50 50 50 50 50 50 50 50 50 50 50 50 49 49 50 51 52 52 53 53 53 54 55 56 57 58 60 61 62 63 63 63 63 63
52 52 52 52 52 52 51 51 51 52 52 53 53 54 54 53 54 54 53 53 52 52 53 54 54 54 54 54 55 56 56 57 57 58 60 61 62 63 63 64 64 64
54 53 53 53 53 53 53 53 53 54 55 55 56 56 57 57 58 58 58 57 56 56 56 56 55 55 55 56 56 57 57 57 57 58 59 60 61 62 63 63 63 63
58 57 56 55 54 54 54 55 55 56 57 58 59 59 59 60 61 61 61 61 60 60 60 59 58 57 56 56 56 56 57 57 57 58 59 60 61 61 62 62 62 63
62 61 60 59 58 58 57 57 58 58 59 60 61 61 62 63 64 64 65 65 65 64 63 61 60 59 58 57 57 57 57 57 58 58 59 60 61 61 62 62 63 63
64 63 63 63 62 62 61 61 61 61 61 62 63 63 64 65 65 66 67 68 67 67 65 64 62 61 60 60 59 59 59 60 60 61 61 62 62 63 63 64 65 66
66 65 65 65 65 64 64 64 64 64 64 65 65 66 66 67 68 69 69 69 69 68 67 66 65 64 64 63 63 63 62 62 63 64 64 65 65 66 66 66 67 67
68 67 67 67 67 67 67 67 67 68 68 68 69 69 70 70 71 71 71 71 70 70 69 69 69 68 68 68 67 67 66 66 66 66 66 66 66 66 66 67 67 68
72 72 71 71 71 71 71 72 72 72 73 73 73 74 74 74 74 74 74 74 74 73 73 73 73 73 73 72 71 70 69 68 67 67 67 66 66 66 66 66 66 66

ECMWFNIL_500_spd_081.txt.gz
Wind_Speed
43 44 45 46 47 47 47 46 46 46 45 44 44 44 45 46 46 47 47 48 49 51 53 55 55 55 55 54 54 54 54 54 52 50 50 50 51 52 52 52 53 52
47 48 48 48 48 48 48 47 47 46 45 45 46 46 46 46 47 47 48 49 51 53 55 57 57 58 57 56 56 54 53 53 52 50 49 49 50 51 52 53 53 53
50 50 50 50 50 49 49 48 47 46 46 47 47 47 47 47 48 48 49 51 53 55 58 59 60 61 60 59 56 53 50 50 51 50 49 48 49 50 51 52 53 52
51 51 51 51 51 51 50 49 48 48 48 48 48 48 48 49 49 50 52 54 56 58 60 62 63 63 62 59 53 49 47 46 47 49 49 49 49 49 49 51 52 52
52 52 52 53 52 52 51 50 50 50 49 49 48 48 49 49 51 53 55 57 59 60 62 64 65 65 61 56 48 44 44 44 44 46 48 49 49 49 49 50 50 51
54 54 54 53 53 53 53 52 51 51 50 49 49 49 49 51 54 56 58 60 61 62 63 65 65 63 58 51 45 42 42 43 43 44 45 46 47 48 49 50 51 51
55 55 55 55 55 55 54 53 52 51 51 50 49 50 52 54 56 58 60 61 62 63 64 63 61 58 53 47 44 42 42 43 43 43 43 45 46 47 48 49 51 51
56 56 56 56 56 56 55 54 53 53 52 52 51 53 55 57 58 59 60 61 62 62 62 59 56 53 49 46 44 43 42 42 42 42 43 44 45 46 47 48 49 50
57 57 57 57 57 56 56 55 55 55 54 54 54 56 57 57 57 58 58 59 59 58 56 54 51 49 48 46 44 42 41 41 42 43 43 44 45 45 46 47 48 48
58 57 57 57 56 56 56 56 56 56 56 56 57 57 57 56 56 56 55 55 54 53 52 50 49 48 48 47 44 41 40 41 42 43 44 45 46 46 46 47 48 48
58 57 56 56 56 56 56 57 58 58 58 58 57 55 53 52 52 51 51 51 50 50 50 50 49 49 49 47 44 42 42 42 43 43 44 45 46 46 47 48 48 49
57 56 56 55 56 57 57 59 60 60 59 56 53 50 49 48 48 48 48 48 48 49 49 50 50 49 49 47 45 44 45 44 43 43 43 45 46 47 48 49 50 51
56 56 56 56 57 58 59 59 60 59 56 52 49 47 46 46 46 46 47 47 48 48 48 49 50 49 49 49 47 47 47 46 45 44 45 46 47 49 50 51 52 53
56 57 57 57 58 59 59 58 56 55 52 49 47 47 46 46 46 46 47 47 47 47 47 48 48 49 50 50 50 50 50 49 48 47 47 48 50 51 52 53 54 55
58 59 59 59 59 57 55 53 51 50 49 48 47 47 47 47 47 47 48 47 47 46 47 47 47 48 50 51 52 52 53 52 51 51 51 51 52 53 54 55 56 57
60 59 58 56 54 52 50 49 48 48 48 49 49 48 48 48 48 48 48 48 47 47 48 47 48 49 50 52 53 54 55 55 55 55 55 55 56 56 56 57 58 59
57 55 53 51 50 49 48 48 48 48 49 50 50 51 50 50 50 50 50 50 49 49 49 49 50 51 52 54 55 56 57 58 59 59 59 59 59 59 59 59 59 60
55 53 51 51 50 50 50 50 50 51 51 52 53 53 54 53 53 53 53 53 53 52 52 52 53 54 55 56 57 58 60 60 61 62 62 62 62 61 61 60 60 60
56 54 53 52 52 52 52 53 54 55 56 57 57 57 58 57 57 57 57 57 57 56 56 56 56 57 58 59 59 61 62 62 63 63 63 63 63 62 61 61 61 61
56 55 55 55 55 55 55 56 57 59 60 61 61 61 61 60 60 60 60 60 60 60 60 60 60 60 61 62 62 63 64 64 65 65 64 64 63 63 62 62 62 62
57 57 57 57 58 59 60 60 62 63 63 64 64 64 63 62 62 62 62 63 63 63 63 63 63 63 64 64 65 66 66 67 67 66 66 65 64 64 64 64 64 65
58 59 60 60 61 62 63 64 65 66 66 67 67 67 66 66 65 65 65 66 66 66 66 65 65 66 66 66 67 67 68 69 69 69 68 68 68 68 68 68 68 68
62 62 63 63 65 66 66 67 68 68 69 70 70 70 70 69 69 69 69 69 69 69 69 69 69 69 70 70 70 70 71 71 71 71 71 71 72 72 73 72 72 71
67 67 67 67 68 69 70 71 72 72 73 73 73 73 73 73 73 73 72 72 72 72 72 72 72 72 73 73 72 73 73 74 74 75 76 77 77 77 76 75 73 72
72 72 72 72 73 74 74 75 76 77 78 78 78 78 77 76 76 76 75 75 75 75 75 75 75 76 76 77 77 77 78 78 79 79 78 78 77 75 74 72 70 69
76 76 77 77 78 79 80 81 82 82 82 82 82 82 81 81 80 80 79 79 79 79 79 79 79 78 78 78 77 76 76 75 74 73 72 71 70 69 67 64 63 64

ECMWFNIL_500_spd_084.txt.gz
Wind_Speed
47 47 47 47 47 48 48 48 48 49 49 49 49 49 48 48 48 47 47 47 48 49 49 50 50 51 52 54 56 58 60 62 63 63 62 60 57 51 47 48 47 46
49 49 49 49 50 50 50 50 50 50 50 50 50 49 49 48 48 48 48 49 49 50 50 51 51 52 54 56 58 60 63 64 65 64 61 58 54 49 46 47 48 47
51 51 52 52 52 52 52 52 52 51 50 50 50 50 49 49 49 49 49 50 51 51 52 52 53 54 56 58 60 63 65 66 66 62 58 54 50 46 45 47 47 47
53 53 54 54 53 53 53 53 52 51 51 51 51 51 51 50 50 50 51 52 52 52 53 53 54 56 58 60 62 65 66 66 64 59 55 51 47 44 46 47 47 46
54 55 55 55 54 54 54 53 53 53 53 53 54 54 53 53 52 53 53 53 53 53 54 54 55 57 60 62 64 66 66 63 60 57 53 49 45 44 47 48 48 46
55 55 55 55 55 55 55 55 55 55 55 56 57 56 55 55 55 55 54 54 54 54 55 56 57 60 62 64 65 65 62 58 56 56 53 49 45 45 47 48 47 45
55 56 57 57 58 58 58 58 58 58 58 59 59 58 58 57 57 56 56 55 55 55 56 58 60 62 64 64 63 60 57 55 55 55 53 50 47 46 48 48 46 44
57 57 58 59 59 60 60 60 60 60 60 61 60 60 60 60 58 58 57 57 57 57 58 60 61 62 63 61 59 56 54 54 54 54 53 52 49 48 48 47 46 45
59 59 59 60 60 60 61 61 61 61 62 62 62 62 61 61 59 59 58 58 58 59 60 61 61 60 59 57 55 53 52 53 54 55 54 53 51 49 48 48 47 46
61 61 61 61 62 62 62 62 62 62 62 62 62 62 61 61 60 59 59 60 60 61 61 60 58 57 55 54 53 52 52 53 54 54 54 53 52 50 49 49 49 49
63 63 63 63 63 63 63 63 62 62 62 62 61 61 61 61 61 61 61 61 61 60 58 55 54 53 53 52 52 52 52 52 52 53 53 52 51 51 50 51 51 51
64 64 63 63 63 62 62 62 61 61 61 61 61 61 61 61 61 61 60 59 57 54 52 51 51 52 52 51 51 51 51 51 51 52 52 51 51 51 51 52 53 54
62 62 61 61 61 60 60 60 60 60 60 60 60 60 60 60 59 58 56 53 51 49 48 49 50 51 51 51 51 51 51 51 50 51 51 51 51 52 53 54 55 55
61 61 60 60 60 60 59 59 59 59 58 58 58 57 57 56 55 53 51 50 48 47 48 48 49 50 51 52 52 52 52 51 51 51 52 52 53 54 54 56 56 57
62 61 61 60 59 59 58 57 57 56 55 54 54 53 52 51 51 50 50 49 49 49 49 49 50 51 52 53 53 53 53 53 54 54 54 54 55 56 57 58 58 59
61 59 58 58 57 57 56 55 55 54 53 53 52 51 50 49 49 49 49 50 51 52 53 53 54 54 55 56 56 56 56 56 56 57 57 57 57 58 59 60 61 61
58 57 57 57 56 56 55 55 54 54 53 53 52 51 50 49 49 49 50 52 54 55 56 57 57 58 58 59 58 59 59 59 59 59 60 60 60 61 61 62 63 64
60 59 58 58 57 57 57 56 55 55 54 53 52 51 51 51 52 53 54 55 56 57 58 59 60 61 61 62 62 63 63 63 63 64 64 64 65 65 65 66 67 67
61 60 59 59 58 58 57 57 57 56 55 54 53 53 54 55 56 57 58 59 59 60 60 61 62 63 65 66 67 68 69 69 69 69 69 69 69 69 69 70 70 70
61 60 59 58 58 58 57 57 58 57 57 57 57 57 58 59 60 61 61 62 63 63 64 64 65 67 69 70 72 73 74 74 74 74 73 73 73 72 72 72 72 72
61 60 59 59 59 59 59 59 60 60 61 61 62 62 63 64 64 65 65 66 67 68 69 69 70 72 74 75 76 77 77 77 77 76 75 75 74 74 74 73 73 74
63 62 62 62 62 62 62 62 63 63 64 65 66 66 67 68 69 69 70 71 72 73 74 74 75 77 78 79 79 80 80 79 79 78 77 76 76 75 75 75 75 76
67 67 67 67 67 67 67 67 68 68 69 69 70 71 71 73 73 74 75 76 76 77 78 78 79 80 80 80 80 80 80 80 79 79 78 78 77 77 77 77 76 76
72 72 72 72 73 73 73 73 74 74 74 75 75 76 76 77 78 78 79 80 81 81 82 82 82 81 81 80 80 80 80 79 78 78 77 76 75 74 73 71 70 69
76 77 77 77 78 78 78 79 79 80 80 80 81 81 81 82 83 83 84 84 84 84 84 83 82 81 81 80 79 79 78 77 76 75 74 72 70 68 67 66 65 64
80 80 81 81 82 82 82 83 83 84 84 85 86 86 86 86 86 86 86 85 84 83 82 82 81 79 79 78 77 76 75 74 74 73 71 70 69 68 67 67 66 65

ECMWFNIL_500_spd_087.txt.gz
Wind_Speed
47 47 48 48 48 49 49 49 50 50 51 52 53 53 54 54 55 55 54 54 54 53 53 53 53 53 53 53 52 52 53 53 54 56 57 58 59 61 61 61 61 59
49 49 50 50 51 51 52 52 53 53 54 55 55 56 56 56 56 56 55 55 55 54 54 54 54 54 53 53 53 53 54 55 56 57 58 59 60 61 62 63 63 60
51 51 52 53 53 54 54 54 55 55 56 57 57 56 56 56 56 56 56 55 54 54 54 54 54 54 54 54 54 54 55 56 57 58 59 60 61 62 62 63 63 60
52 53 54 54 55 55 55 56 56 56 56 57 57 56 56 56 56 56 55 54 54 54 54 54 54 54 54 54 55 55 56 57 58 59 60 61 62 62 62 62 61 58
53 54 54 55 55 55 55 55 55 56 56 56 56 56 56 56 56 56 56 55 55 55 55 55 55 55 55 55 56 56 57 58 59 60 61 61 62 62 61 60 59 57
53 53 54 54 54 54 55 55 56 56 56 56 56 57 57 57 58 58 57 57 57 57 56 56 56 56 56 56 57 57 58 59 60 61 62 61 60 59 58 57 57 56
53 53 54 54 55 55 56 56 57 58 58 58 58 58 59 59 59 59 59 58 58 57 57 57 57 57 57 58 58 59 60 61 61 61 61 59 57 56 55 56 56 55
55 55 56 57 58 58 59 59 60 60 60 60 60 60 61 60 60 60 60 59 59 58 58 58 58 58 58 59 59 60 60 61 61 60 58 56 54 54 55 56 56 55
57 58 59 60 61 61 62 62 62 62 62 62 62 62 62 61 60 60 60 60 59 59 59 59 59 59 60 60 61 61 61 60 59 57 55 54 53 53 54 55 55 55
60 61 62 62 63 63 64 63 63 63 63 62 62 61 61 61 60 60 60 60 60 60 60 60 61 61 61 61 61 60 59 58 56 54 53 52 52 52 53 54 54 54
63 63 64 64 65 65 64 64 63 62 62 61 61 60 60 60 60 60 60 60 61 61 61 62 62 62 62 61 60 58 57 55 53 52 51 51 51 51 52 53 54 55
64 64 64 64 64 64 64 63 62 62 62 61 61 60 60 60 60 60 60 59 60 60 60 60 60 60 60 59 57 56 54 53 52 51 51 51 51 52 53 54 55 55
64 64 64 64 64 64 63 63 62 61 60 60 59 58 57 57 57 57 57 57 57 57 57 57 58 57 57 56 55 54 53 53 53 53 54 54 55 55 56 56 55 56
64 63 63 63 62 62 61 60 58 57 57 56 56 55 55 55 55 56 56 56 56 56 57 57 57 57 57 56 55 54 54 54 54 55 57 58 58 59 58 57 57 57
62 62 61 60 59 58 57 56 55 55 55 56 56 56 56 56 56 56 56 57 57 57 58 58 58 57 57 57 56 55 56 56 57 58 60 60 61 61 60 60 60 61
61 60 59 58 57 56 56 56 56 56 56 56 56 55 55 55 56 56 56 56 56 56 57 57 57 57 57 57 58 58 59 60 61 62 63 64 64 63 63 64 65 66
61 60 59 58 57 57 56 55 55 55 54 54 53 53 53 53 53 54 54 54 54 54 55 55 56 57 58 59 60 61 62 63 64 65 66 66 66 67 68 69 70 71
60 59 58 58 57 56 55 54 54 54 54 53 53 53 53 53 54 54 54 55 55 55 56 57 58 60 61 63 64 65 66 67 67 67 68 69 70 71 72 74 75 75
59 58 57 56 55 55 55 56 56 57 57 57 57 57 58 58 58 58 59 59 60 60 61 61 63 64 66 67 68 70 71 72 72 72 73 74 75 76 77 78 78 78
59 58 57 57 57 58 59 60 60 61 61 62 62 62 63 63 64 64 65 65 66 66 67 67 69 70 71 72 74 75 76 77 77 78 79 79 80 80 81 81 80 80
60 60 60 61 62 63 63 64 65 65 66 66 66 67 67 68 68 69 70 71 71 72 72 73 74 75 76 77 78 79 80 81 82 82 82 82 82 81 81 80 79 79
62 63 64 65 66 67 67 68 69 69 70 71 71 71 72 73 74 74 75 75 76 77 77 77 78 79 80 81 82 82 82 83 83 82 82 81 80 79 79 79 79 79
66 67 68 69 70 71 71 72 72 73 74 75 75 76 77 78 78 79 79 80 80 81 81 81 81 82 82 82 82 82 82 82 82 81 81 80 79 78 78 78 78 78
71 72 72 73 74 74 74 75 76 77 79 80 80 80 81 82 83 83 84 85 85 85 86 85 84 84 83 83 82 82 82 82 82 82 82 81 80 79 79 79 78 77
75 76 77 77 77 78 79 80 81 82 83 84 85 85 85 86 87 87 87 88 88 88 88 88 88 87 86 86 86 86 86 86 86 85 84 83 82 82 81 80 79 78
79 80 81 82 83 83 84 85 87 87 88 88 89 89 89 89 89 90 90 89 89 89 88 88 88 87 87 87 87 87 88 88 87 87 86 85 84 83 82 81 79 78

ECMWFNIL_500_spd_090.txt.gz
Wind_Speed
44 44 45 45 45 46 47 48 48 49 50 50 51 52 53 53 54 54 54 55 55 56 56 56 56 56 56 56 56 56 56 55 55 55 56 55 56 56 57 57 58 58
44 45 45 46 46 47 48 49 50 50 51 52 53 53 54 54 55 55 55 56 56 57 57 57 57 57 57 57 57 57 57 56 56 56 56 56 56 57 57 57 58 59
45 45 46 47 48 49 50 50 51 51 52 53 53 54 54 55 55 56 56 57 57 58 58 58 58 58 58 58 58 58 57 57 56 56 56 56 56 57 57 58 59 60
46 47 47 48 49 49 50 51 51 52 52 53 54 54 55 55 56 56 57 58 58 59 59 59 59 59 58 58 58 58 57 57 56 56 56 56 57 57 58 59 60 61
47 47 48 48 49 50 50 51 52 53 54 54 55 55 55 56 56 57 58 59 59 60 60 60 59 59 58 58 58 57 57 56 56 57 57 57 57 59 60 61 62 62
47 48 49 49 50 51 52 53 53 54 55 55 55 56 57 58 59 59 60 60 60 60 60 60 59 59 59 59 58 58 57 57 58 58 59 59 59 61 61 62 62 62
49 49 50 51 52 53 53 54 54 55 56 57 58 58 59 60 61 61 61 61 61 61 60 60 60 60 60 60 59 59 59 59 59 59 60 60 60 61 61 62 62 62
50 51 52 52 53 54 54 55 56 57 59 60 60 61 61 61 61 62 62 62 62 62 62 62 62 61 61 60 60 59 59 59 59 59 59 59 60 60 60 62 62 62
51 52 53 54 55 56 57 57 58 59 61 61 62 62 63 63 63 63 63 63 63 63 63 62 61 60 60 59 58 58 57 58 58 58 59 59 60 60 60 61 62 61
54 55 56 57 57 58 59 60 60 61 62 63 64 64 65 65 65 65 64 64 63 62 60 59 58 58 57 57 57 57 58 58 59 59 60 60 60 61 61 61 61 61
56 57 58 58 59 60 61 61 62 63 64 64 65 65 65 65 64 63 62 61 60 59 58 57 57 57 57 58 58 59 59 60 60 61 61 61 61 62 62 62 61 61
58 59 59 60 61 62 62 63 63 64 64 64 64 63 63 62 62 61 60 59 58 58 58 58 58 59 59 59 59 59 60 60 61 61 62 62 62 62 63 63 62 62
60 61 61 62 62 63 63 63 63 63 63 62 62 61 60 60 59 58 58 58 58 58 58 58 58 58 58 58 58 59 59 60 61 61 62 62 63 63 63 64 64 65
62 63 63 63 63 63 63 63 62 62 61 60 59 58 57 57 56 56 56 56 56 56 56 56 56 56 57 57 58 58 59 60 60 61 62 62 63 63 64 65 66 66
64 64 64 64 64 64 63 62 61 60 58 57 56 55 55 55 55 55 55 54 54 55 55 56 56 57 58 59 59 60 60 61 61 62 62 63 63 64 65 66 67 68
64 65 64 64 64 63 61 60 59 57 57 56 55 55 55 55 55 54 54 54 55 56 57 58 59 60 61 62 62 63 63 63 64 64 65 66 67 67 68 69 70 72
65 65 64 63 62 60 59 58 57 57 57 56 56 56 56 56 55 55 56 56 58 59 60 61 62 63 64 65 65 66 67 67 67 68 69 70 71 71 72 73 74 75
65 64 62 61 60 59 59 59 58 58 58 58 58 58 58 57 57 58 59 61 62 62 63 64 65 67 68 69 70 71 71 72 72 72 73 74 75 75 76 76 77 78
63 62 62 61 61 61 61 60 60 60 60 60 60 60 59 60 61 62 64 65 66 66 66 67 69 71 72 73 74 75 76 76 76 77 77 78 78 79 79 79 79 80
63 63 63 63 63 63 62 62 62 62 62 61 61 61 62 63 65 66 67 68 69 70 70 72 74 76 77 78 78 79 79 80 80 80 81 81 81 82 82 82 82 82
64 64 64 64 64 63 63 63 63 63 63 63 64 65 66 68 69 70 71 72 73 74 76 77 79 80 81 82 82 82 83 84 84 84 84 84 84 84 84 85 85 85
65 65 64 63 63 63 63 64 65 65 66 67 69 70 71 72 73 74 75 76 78 79 81 81 82 84 84 85 86 86 87 87 88 88 88 87 87 86 86 86 86 85
64 63 62 63 64 65 66 68 69 70 72 73 74 74 75 77 77 78 80 81 82 83 84 85 85 87 87 88 88 89 89 89 90 89 89 88 88 87 87 87 86 85
64 64 65 66 68 69 71 72 74 75 76 77 78 78 79 80 81 82 83 85 86 87 88 88 88 89 89 89 89 90 90 90 90 90 89 89 88 87 88 87 87 86
67 68 70 72 74 75 76 77 78 79 80 81 82 83 83 84 85 86 87 88 89 90 91 92 92 92 92 91 91 91 92 92 92 92 91 90 89 88 88 88 87 87
73 75 76 78 79 80 81 82 83 84 85 86 87 88 88 89 90 91 91 92 93 94 94 95 95 94 94 93 93 93 94 94 94 94 93 92 91 90 89 89 88 88

ECMWFNIL_500_spd_093.txt.gz
Wind_Speed
45 46 46 47 47 47 47 48 48 48 48 48 48 48 49 49 50 50 51 51 52 52 53 54 54 55 55 56 58 59 60 60 60 61 61 61 60 60 59 58 59 59
46 46 46 47 47 47 47 47 47 48 48 48 48 49 49 50 50 51 51 52 53 54 54 55 55 56 57 58 60 61 61 61 61 61 62 61 60 60 59 59 60 60
45 45 46 46 47 47 47 47 48 48 48 48 49 49 50 50 51 52 53 53 54 54 55 56 57 58 59 60 61 62 62 62 62 62 62 62 61 61 60 60 60 61
45 45 46 46 47 47 47 47 48 48 48 49 49 50 51 52 52 53 54 54 55 56 57 58 59 60 61 62 63 63 63 63 63 63 63 62 61 61 61 60 60 59
45 46 46 46 46 46 47 47 48 48 49 50 51 51 52 53 54 55 56 57 57 58 59 60 61 62 63 64 64 65 65 64 64 63 62 61 60 60 59 59 58 58
45 45 45 46 46 46 47 48 49 50 51 51 52 53 54 55 56 57 58 58 59 60 61 62 63 64 65 65 65 65 65 64 63 62 61 59 58 58 58 57 57 58
44 45 46 46 47 48 49 50 51 52 53 54 54 55 56 57 58 59 59 60 61 62 63 64 64 65 66 65 65 64 63 62 61 60 59 58 57 57 58 58 59 59
46 47 48 49 50 51 52 53 54 54 55 56 56 57 58 59 59 60 61 62 62 63 64 65 65 66 65 65 64 62 61 60 60 59 58 58 58 58 59 59 59 59
49 50 51 52 52 53 54 54 55 56 56 57 58 59 60 60 61 62 62 63 63 64 65 65 65 64 64 63 61 60 60 59 59 59 59 59 59 59 58 58 58 58
51 52 52 53 53 54 55 56 56 57 58 59 60 61 61 62 62 63 64 64 65 65 65 64 63 62 62 61 60 59 59 59 59 59 59 58 58 58 58 58 59 59
52 53 53 54 55 56 57 57 58 59 60 61 62 62 63 63 64 64 65 65 65 64 63 62 61 60 60 59 59 58 58 58 59 58 58 57 57 57 58 59 60 61
54 55 56 56 57 58 59 59 60 61 62 62 63 63 63 64 64 65 65 64 64 62 61 61 60 59 59 59 58 58 58 58 58 58 57 57 58 59 60 61 62 62
57 58 58 59 59 60 60 61 62 62 62 62 63 63 64 65 65 65 64 62 61 60 60 59 59 59 59 59 59 59 59 58 58 58 59 59 60 61 62 63 64 64
60 60 61 61 62 62 63 63 63 63 63 63 64 65 65 65 64 63 61 60 60 59 59 59 59 59 59 59 59 59 59 59 59 60 61 62 63 63 64 65 66 67
62 63 63 64 64 64 64 64 64 64 64 65 66 66 65 64 62 61 60 60 59 59 59 59 59 60 60 60 60 60 60 60 61 62 64 65 65 66 67 68 70 71
64 65 65 65 65 65 65 64 64 65 66 66 66 65 63 62 61 61 60 60 60 59 59 60 60 60 60 61 62 62 62 63 64 66 67 68 69 69 71 72 74 76
66 66 66 66 65 65 65 65 66 66 65 65 63 62 62 62 62 62 61 61 60 59 59 60 61 62 62 63 65 66 67 68 69 70 71 72 73 74 75 77 78 79
67 66 66 66 66 66 66 66 66 65 64 63 62 62 62 63 63 62 61 60 59 60 60 62 64 66 67 69 70 72 73 73 74 74 75 76 78 79 80 81 82 83
67 66 67 67 67 67 67 66 65 64 63 63 63 64 64 64 63 62 61 61 61 62 64 65 68 70 72 74 75 76 77 78 78 79 80 81 82 83 84 85 86 87
68 68 69 69 69 68 66 65 64 64 65 65 65 65 65 64 63 63 63 64 66 68 69 70 72 74 75 77 78 80 82 83 83 84 84 85 86 87 88 89 90 91
70 70 70 69 68 67 66 66 66 66 66 66 66 66 66 66 66 66 67 69 71 73 74 75 76 78 79 81 83 84 86 87 88 88 88 89 90 91 92 92 93 94
70 69 68 67 67 67 67 68 68 68 68 68 68 68 68 69 69 71 72 74 76 78 79 80 80 82 84 86 87 89 90 91 92 92 93 93 93 94 95 95 95 94
68 67 67 67 67 68 69 69 69 70 70 70 70 71 72 73 74 75 77 79 81 82 83 84 84 86 88 90 91 92 94 95 96 96 96 96 96 96 96 96 96 95
67 67 67 68 69 69 70 70 71 72 72 73 74 75 76 78 79 80 82 83 85 86 87 88 89 90 92 93 94 96 97 98 99 99 99 99 98 98 98 98 97 96
68 68 69 69 70 71 72 73 74 75 76 78 79 80 81 82 83 84 85 86 88 90 91 92 93 94 95 96 97 98 99 100 101 102 101 101 101 100 100 100 99 98
69 70 70 71 72 74 75 77 78 79 81 82 83 84 85 86 88 89 90 90 92 93 95 96 97 98 98 99 100 100 101 102 103 103 103 103 103 103 103 102 101 100

ECMWFNIL_500_spd_096.txt.gz
Wind_Speed
42 43 43 44 45 46 46 47 47 48 48 48 49 48 48 48 48 48 48 49 49 49 49 50 51 52 53 53 54 55 56 57 58 59 60 62 63 65 65 66 66 66
43 43 44 45 46 47 47 47 48 48 48 48 48 48 48 48 49 49 49 49 49 49 50 51 52 53 54 55 56 57 57 59 60 61 62 64 65 66 66 67 66 65
43 44 45 45 46 47 47 47 48 48 48 49 49 49 49 49 49 49 49 50 50 51 52 53 54 55 56 56 57 58 59 61 62 63 64 65 66 66 66 66 65 63
44 44 45 46 46 47 47 48 48 49 49 49 50 49 49 49 49 50 50 51 52 53 54 55 56 56 57 58 59 60 61 62 63 64 65 65 66 66 65 64 63 61
44 45 45 46 47 47 48 48 48 49 49 49 49 49 49 50 50 51 52 53 54 55 56 56 57 58 59 60 61 62 63 64 64 65 65 65 65 65 63 62 61 60
45 45 46 47 47 47 48 48 48 48 48 48 49 49 50 51 52 53 54 55 56 57 57 58 59 60 61 62 63 63 63 64 64 65 65 64 64 63 62 61 60 60
46 46 46 47 47 47 47 47 47 48 49 50 50 51 52 53 54 55 56 57 58 59 60 61 62 62 63 63 63 63 64 64 65 65 64 63 62 62 61 60 60 60
45 45 45 46 46 46 47 48 49 50 51 51 52 53 54 55 56 57 58 59 60 61 62 63 64 64 64 64 64 65 65 65 65 64 63 62 61 60 60 60 60 60
44 44 45 46 47 48 49 50 51 51 52 53 54 55 56 57 58 59 60 61 62 63 64 65 65 65 65 66 66 66 66 66 65 63 62 61 60 60 60 60 60 60
45 46 47 48 49 50 51 52 52 53 54 55 56 57 58 59 60 61 62 63 64 65 65 66 66 66 67 67 67 67 66 65 63 62 61 60 60 60 61 61 61 61
46 47 48 50 51 52 53 54 54 55 56 57 58 59 60 61 63 64 64 65 66 66 66 67 67 68 68 68 67 66 65 63 62 62 61 61 61 61 62 62 62 62
48 49 50 51 53 54 55 56 56 57 58 59 60 61 63 64 65 66 66 66 66 66 67 67 68 68 68 67 66 65 64 63 62 62 62 62 62 61 62 62 62 63
50 51 52 54 55 56 57 58 59 60 61 62 63 64 65 66 66 67 67 66 67 67 68 68 68 68 67 65 64 63 63 63 63 63 62 61 61 61 61 62 63 64
54 55 56 57 58 59 59 60 62 63 64 65 65 66 67 67 67 67 67 67 68 68 69 68 67 66 65 64 64 64 63 63 63 62 61 61 61 61 63 64 66 67
56 57 58 59 60 61 62 63 64 65 66 67 67 68 68 68 67 67 68 68 69 69 68 67 66 65 64 64 64 63 63 63 63 62 62 63 63 65 67 69 71 72
58 59 60 61 62 63 64 65 66 67 68 68 68 68 68 68 68 69 69 69 68 67 66 65 65 65 65 65 65 65 64 64 64 64 66 67 68 70 71 73 75 77
62 62 63 64 65 66 67 67 67 68 68 68 68 68 68 69 69 69 69 67 66 65 64 64 65 66 66 66 66 67 67 67 68 69 70 72 74 75 77 78 79 81
65 65 66 66 67 67 68 68 68 68 68 68 68 69 69 69 69 67 66 65 64 64 65 65 66 67 68 69 69 70 71 72 73 75 76 77 79 80 81 82 83 85
67 67 67 68 68 68 69 69 69 69 69 70 70 70 69 68 66 65 65 65 65 65 66 67 68 70 71 72 74 75 76 78 79 80 81 82 83 84 86 87 88 89
68 68 69 69 69 69 69 70 70 71 71 70 69 68 66 65 65 65 65 66 67 67 68 70 72 74 75 77 78 80 81 82 83 84 85 86 87 89 90 91 92 93
69 69 70 70 70 70 71 71 71 70 69 68 66 66 65 65 66 66 67 68 69 71 72 73 76 78 79 81 83 84 85 86 88 89 90 91 92 93 94 95 96 97
69 70 70 70 71 71 71 70 69 67 66 66 66 66 66 67 67 69 70 72 74 75 76 77 79 82 83 85 86 88 89 91 92 93 94 95 95 96 97 98 99 100
70 70 70 71 70 69 68 67 66 66 66 66 66 67 68 69 71 72 74 76 77 78 80 80 82 84 87 89 90 92 93 94 95 97 98 98 99 99 100 100 101 101
70 70 69 68 67 66 66 66 66 67 67 68 68 69 71 73 74 76 77 79 80 82 83 85 86 88 90 92 93 95 96 97 98 100 100 101 102 102 103 103 103 103
67 67 66 65 65 66 66 67 68 68 69 70 71 73 75 76 78 79 80 82 84 86 87 89 90 91 93 94 95 95 97 98 100 101 103 104 105 105 106 106 106 105
65 65 65 66 66 67 68 69 69 70 72 74 75 77 78 80 82 83 84 85 88 90 91 93 94 94 94 94 95 96 97 98 101 103 105 106 107 108 108 108 107 106

ECMWFNIL_500_spd_099.txt.gz
Wind_Speed
39 39 40 40 41 42 43 44 44 45 46 46 47 47 48 48 49 49 49 50 50 51 51 51 51 51 51 51 52 53 54 55 56 57 58 59 60 61 62 63 64 65
40 41 42 42 43 44 45 45 45 46 46 47 47 48 48 49 49 50 51 51 51 51 51 51 51 51 52 53 54 55 56 57 58 59 60 61 62 63 64 65 66 67
41 42 43 44 45 46 46 47 47 47 47 48 48 49 49 50 51 51 52 52 52 51 51 51 52 53 54 55 56 57 58 58 59 60 62 63 63 64 65 66 67 68
42 43 44 45 46 47 47 48 48 48 49 49 50 50 51 51 52 52 52 51 51 51 52 53 54 55 56 57 57 58 59 60 61 62 63 64 65 66 66 67 68 68
44 45 46 46 47 47 48 48 49 49 49 50 50 50 50 50 50 51 51 51 52 52 53 54 55 56 57 58 59 60 61 62 63 64 65 66 67 68 68 68 69 69
45 46 46 47 47 47 48 48 48 49 49 49 49 49 49 49 50 50 51 52 53 54 55 56 57 58 59 60 61 62 63 64 65 66 67 68 69 69 69 69 69 69
46 46 47 47 47 47 48 48 48 48 48 47 48 48 49 50 51 51 52 53 54 56 57 58 59 60 61 62 63 64 65 66 68 68 69 69 69 69 70 70 69 68
46 46 46 46 46 47 47 47 47 47 47 48 49 49 50 51 52 53 54 55 57 58 59 60 61 62 63 64 65 67 68 69 69 69 69 69 69 70 70 69 68 66
46 46 46 46 46 46 46 46 46 47 48 49 50 51 52 53 54 56 57 58 59 60 61 62 63 64 65 66 67 68 69 69 69 69 69 70 70 70 69 68 66 65
47 47 46 46 46 46 46 47 47 48 50 51 52 53 55 56 57 58 59 60 61 62 63 64 65 66 67 68 68 69 69 70 70 70 70 70 70 69 67 66 65 64
48 48 48 48 47 47 48 48 49 50 52 53 54 55 56 57 58 59 60 61 62 64 65 66 67 68 69 70 70 70 71 71 71 71 71 70 68 66 65 64 64 64
49 49 48 48 48 48 49 50 51 52 53 54 55 57 58 59 60 61 62 64 65 66 67 68 69 70 71 71 71 71 71 71 71 70 68 67 65 64 63 63 63 64
50 49 49 49 50 51 51 52 53 54 55 56 57 58 60 61 62 63 65 66 67 68 69 70 71 71 71 71 71 71 70 69 68 66 65 63 63 62 63 63 64 66
52 51 51 52 53 54 54 55 55 56 57 59 60 61 63 64 65 66 67 68 69 70 70 71 71 71 71 71 70 69 67 66 64 63 62 61 62 63 64 66 67 69
54 54 54 55 56 56 56 57 58 59 61 62 63 64 65 66 67 68 69 69 70 70 71 71 71 71 71 69 67 65 64 63 62 62 62 63 64 66 67 70 72 73
57 57 57 57 58 58 59 60 61 62 63 64 65 66 67 68 69 69 70 70 71 71 71 72 71 69 68 66 65 64 63 63 64 64 66 67 68 70 71 73 75 77
59 59 59 59 60 60 61 62 63 64 66 66 67 68 69 70 70 70 70 71 71 72 71 70 68 66 65 65 65 65 65 66 67 68 70 71 73 74 75 77 79 81
61 61 61 61 62 63 64 65 65 66 67 68 69 70 71 71 70 71 71 72 71 70 68 67 66 66 66 66 67 68 69 70 72 73 74 75 77 79 80 82 84 86
62 63 64 64 64 65 66 67 67 68 68 69 70 71 71 71 71 72 72 71 69 67 67 67 67 67 68 69 70 72 73 75 76 77 78 80 82 84 86 87 89 90
64 65 66 67 67 68 68 69 69 69 70 71 72 72 72 72 72 71 70 68 67 66 67 68 69 69 71 72 74 76 77 79 80 81 83 84 86 88 90 92 93 94
66 67 68 69 70 70 70 70 70 70 71 72 72 72 72 71 70 68 67 66 66 66 67 69 71 73 75 77 78 80 81 83 84 85 87 88 90 92 93 94 95 96
68 69 70 70 71 71 71 70 71 71 72 72 72 71 70 68 67 66 66 66 67 68 70 73 75 77 79 81 82 84 85 86 88 89 91 92 93 93 94 96 96 98
70 70 70 70 70 70 70 70 71 71 71 71 70 68 67 67 66 67 67 68 69 71 73 76 79 81 82 84 86 87 88 90 91 93 93 94 94 95 96 97 98 100
69 69 69 69 69 69 69 70 70 70 69 68 67 67 66 66 67 68 69 71 73 75 77 79 82 84 85 87 88 90 92 93 94 95 95 96 96 97 98 99 101 102
68 67 67 67 67 67 68 68 68 67 67 66 66 66 67 67 68 70 72 74 77 79 81 82 84 86 88 89 91 93 94 95 95 96 97 98 99 100 101 102 102 103
65 65 65 66 66 66 66 66 66 66 66 66 66 67 68 69 71 73 75 77 80 82 83 85 87 88 90 92 93 93 94 95 96 98 99 100 101 102 103 103 102 102

ECMWFNIL_500_spd_102.txt.gz
Wind_Speed
33 34 35 36 37 38 39 40 41 42 44 45 46 46 47 48 49 49 50 51 51 52 53 54 54 55 55 55 55 55 55 55 56 56 57 58 59 60 62 63 64 65
34 35 36 37 38 39 40 41 43 44 45 46 47 48 49 49 50 51 51 52 53 54 54 55 56 56 56 56 56 56 56 56 57 58 58 60 61 62 63 65 66 67
34 35 37 38 39 40 41 42 44 45 46 47 48 49 50 51 51 52 53 53 54 55 55 56 56 56 55 55 55 56 57 57 58 59 60 61 62 64 65 67 68 69
35 36 38 39 40 41 42 44 45 46 47 48 50 50 51 52 53 53 54 54 54 55 55 55 55 55 55 55 56 57 57 58 59 60 61 62 64 66 67 69 70 71
36 38 39 40 42 43 44 45 46 47 48 50 51 51 52 52 53 53 53 53 54 54 54 55 54 55 55 56 56 57 58 60 61 62 63 65 66 67 69 70 71 72
38 40 41 42 43 44 45 46 47 48 50 51 52 52 52 52 52 52 52 52 53 54 54 54 54 55 55 56 58 59 60 61 63 64 65 66 68 69 70 71 72 73
40 42 43 44 45 46 46 47 48 49 51 51 51 51 51 51 51 52 52 53 53 54 54 55 55 56 57 58 59 60 62 63 64 66 67 68 70 71 72 73 73 74
42 43 44 45 46 47 47 48 49 50 51 51 51 51 51 52 52 52 53 53 54 55 55 56 57 58 59 60 61 62 63 65 66 67 69 70 72 72 73 74 74 74
44 44 45 46 46 47 48 49 50 51 51 51 51 52 52 52 53 53 54 54 55 56 57 58 58 59 60 61 62 64 65 67 68 69 71 72 73 73 73 74 74 73
45 46 46 47 48 49 50 50 51 51 51 51 52 52 53 53 54 54 55 56 57 58 59 59 60 60 62 63 64 66 68 69 70 71 72 73 73 73 73 73 72 70
46 47 47 48 49 50 51 52 52 52 52 53 53 53 54 54 55 55 56 57 58 59 60 61 62 63 64 66 67 69 70 71 72 72 73 73 73 73 73 71 69 68
47 47 49 50 51 52 52 53 53 53 54 54 54 54 55 55 56 57 57 59 60 61 62 63 64 65 67 69 70 71 72 72 73 73 73 74 73 72 70 69 67 67
48 49 50 52 53 54 54 55 55 55 55 55 55 55 56 57 58 59 60 61 62 63 64 66 67 69 70 71 72 72 73 73 74 74 74 73 71 69 68 67 67 67
50 52 53 54 55 56 57 57 57 57 57 56 57 57 58 59 61 61 63 64 64 66 67 68 70 71 72 72 73 73 74 74 74 74 72 70 68 67 67 67 68 69
53 54 55 56 57 57 58 59 59 58 58 59 59 60 61 62 63 64 65 66 67 68 69 71 72 73 73 73 74 74 74 74 73 71 69 68 67 67 67 68 71 73
55 56 56 57 58 58 59 59 59 60 61 61 62 63 63 64 65 65 66 67 69 70 71 73 74 74 74 75 75 74 73 72 70 69 68 68 67 68 69 71 74 77
56 57 57 58 59 59 60 60 61 62 63 64 64 65 65 66 67 67 68 69 71 72 73 74 75 75 75 75 74 72 70 69 68 68 68 68 69 70 72 75 77 80
57 58 59 59 60 61 62 63 63 64 65 65 66 67 68 68 69 70 71 72 72 73 74 75 75 75 74 73 71 69 68 68 68 68 69 70 72 74 77 79 81 83
59 59 60 61 62 63 63 64 64 65 66 67 68 69 70 71 72 72 73 73 73 74 74 74 74 73 72 70 69 68 68 68 69 70 72 74 76 78 80 83 84 86
60 61 62 63 63 64 64 65 66 67 68 69 70 72 73 73 73 73 73 73 74 74 74 73 73 71 70 69 68 68 69 70 71 73 75 77 79 82 84 86 87 89
62 62 63 64 64 65 66 67 68 69 70 72 73 73 73 73 72 72 72 73 73 73 73 72 71 70 69 69 69 70 71 72 74 76 78 80 82 85 87 88 90 91
63 63 64 65 66 67 68 69 70 71 72 73 72 72 71 71 71 71 72 72 72 72 71 71 70 69 69 70 71 72 73 75 77 79 81 83 85 86 88 90 91 93
64 65 66 67 68 69 70 71 71 72 71 71 70 69 69 70 70 71 71 71 70 70 70 70 70 70 71 72 73 75 76 78 79 81 83 84 85 87 89 91 93 94
66 67 68 69 69 70 71 71 71 70 69 68 68 68 69 69 70 70 70 69 69 69 69 70 71 72 73 74 76 78 79 80 82 83 84 85 86 88 90 92 93 95
68 69 69 69 70 70 69 69 68 67 67 67 67 68 68 68 68 68 68 68 69 69 70 71 72 74 75 77 79 80 81 82 84 85 86 87 88 89 90 92 94 95
68 68 68 68 67 67 66 66 66 66 66 67 67 67 67 66 67 67 68 68 69 70 71 73 74 76 78 80 81 82 83 84 86 87 88 89 90 91 91 93 94 94

ECMWFNIL_500_spd_105.txt.gz
Wind_Speed
34 34 34 34 34 34 35 35 36 37 37 39 40 41 42 43 44 45 46 48 48 49 50 51 52 54 55 56 57 58 59 59 60 59 59 59 59 60 60 61 62 63
35 35 35 35 35 35 36 37 37 38 39 40 41 42 43 44 45 46 47 48 49 51 52 53 55 56 57 58 59 59 59 59 59 59 59 60 60 61 61 62 63 65
36 36 36 36 36 37 37 38 39 40 40 41 42 43 45 46 47 47 48 49 51 52 54 55 57 58 59 59 59 59 58 58 59 59 59 60 61 62 63 64 65 67
37 37 37 38 38 39 39 39 40 41 42 43 44 45 46 47 47 48 49 50 52 54 55 57 58 58 58 58 58 57 58 58 59 59 60 61 62 63 64 66 67 68
39 39 39 40 40 40 41 41 41 42 43 44 46 46 47 48 48 49 50 52 53 55 57 58 58 58 57 57 57 57 58 59 59 60 61 62 63 64 66 67 68 70
40 41 41 42 42 42 42 43 43 44 45 46 47 47 48 48 49 50 51 53 55 57 58 58 57 57 57 57 57 58 59 60 61 62 63 64 65 66 67 69 70 72
42 42 43 44 44 45 45 45 45 46 47 47 48 48 49 49 50 51 53 55 57 57 58 57 57 57 57 57 58 59 60 61 62 63 65 66 67 68 69 71 73 74
44 45 45 46 46 47 46 47 47 48 48 49 49 49 49 50 51 53 55 57 58 58 58 57 57 57 58 59 59 60 62 63 64 65 66 67 69 70 72 73 74 75
46 47 47 48 48 48 48 48 49 49 49 49 49 49 50 52 54 56 57 57 58 58 57 57 58 58 59 60 60 62 63 64 66 67 68 70 71 73 74 75 76 76
47 48 48 49 49 49 49 50 50 50 50 50 50 51 52 54 55 56 57 57 57 57 58 58 58 59 60 60 61 63 64 66 67 69 70 72 74 75 75 76 76 76
48 48 49 49 49 50 50 50 50 51 51 51 51 53 54 55 56 57 57 57 57 58 58 59 59 60 61 62 63 64 66 67 69 71 73 75 76 76 76 76 76 75
48 49 49 50 50 50 51 51 51 51 51 52 53 54 55 56 56 57 57 58 58 59 59 60 61 62 62 63 65 66 67 69 71 73 75 76 77 77 76 76 75 74
49 50 50 51 51 51 52 52 51 51 52 53 54 55 56 57 58 59 59 60 60 61 61 62 63 64 64 65 66 68 69 71 73 75 76 77 77 76 76 75 74 73
50 51 51 52 52 52 52 51 51 52 53 55 56 57 58 59 60 60 61 61 62 63 64 64 65 66 67 67 69 70 72 73 75 76 76 76 76 75 74 74 72 71
51 52 52 52 52 51 51 51 52 53 55 56 58 59 60 60 61 61 62 63 64 65 66 66 67 68 69 70 71 73 74 75 75 75 74 74 74 74 73 72 71 71
52 52 52 51 51 50 51 52 54 55 57 58 59 60 61 61 62 63 64 65 66 67 67 68 69 70 71 72 73 74 75 75 74 73 73 73 73 72 72 71 71 72
52 51 50 50 50 52 53 55 56 57 58 59 60 61 62 63 64 65 66 66 67 68 69 70 71 72 73 74 74 74 74 73 73 73 73 73 72 70 70 71 72 74
50 50 50 51 53 54 56 57 58 59 59 61 62 63 63 64 65 66 67 68 68 69 71 72 73 73 74 74 73 73 72 72 72 73 72 71 70 70 71 72 74 76
51 52 53 54 56 57 58 58 59 60 61 62 63 64 64 65 66 67 68 69 70 71 72 73 74 74 73 73 72 71 71 72 72 71 70 69 70 71 72 74 76 77
54 55 56 57 58 59 59 60 60 61 62 63 64 65 66 67 68 69 70 71 72 73 74 73 73 72 71 71 71 71 71 71 70 69 69 70 71 72 74 76 77 79
57 57 59 59 60 60 60 60 61 61 62 64 65 67 68 69 70 71 72 73 73 73 73 72 71 70 70 70 70 70 70 69 68 68 69 71 72 74 75 77 78 81
58 59 59 59 59 60 61 61 62 63 65 66 68 69 70 71 72 73 73 73 73 72 71 70 70 70 70 70 69 68 68 67 68 69 71 72 73 75 76 78 81 83
58 58 59 59 60 61 63 64 65 66 67 69 70 71 72 72 72 72 72 71 71 70 70 70 70 70 69 68 67 66 66 68 69 70 71 72 74 76 78 80 82 84
58 59 60 61 63 65 66 68 69 69 70 71 71 72 72 71 71 70 70 70 70 70 70 70 70 69 67 66 66 66 67 69 70 71 72 74 75 78 80 82 84 86
60 62 63 65 67 68 69 70 70 71 71 71 70 70 69 69 69 69 69 70 70 70 70 69 67 66 65 65 66 67 68 69 70 71 73 75 77 79 81 83 85 87
63 65 66 68 69 69 70 70 69 69 68 68 67 67 67 68 68 69 69 70 70 69 68 66 65 65 66 67 68 69 69 70 71 73 75 77 79 80 82 84 86 87

ECMWFNIL_500_spd_108.txt.gz
Wind_Speed
37 37 37 37 37 37 38 38 38 39 39 39 40 40 40 41 42 42 42 43 43 44 45 46 47 48 49 50 51 53 55 57 58 60 61 62 63 63 62 62 62 62
37 38 38 38 38 38 39 39 39 40 40 41 41 41 42 42 43 43 43 44 44 45 47 48 49 50 50 51 53 54 56 58 60 61 62 63 63 62 62 62 63 63
38 38 38 39 39 39 40 40 41 41 42 42 42 43 43 44 44 44 45 45 46 47 48 49 50 51 52 53 54 56 58 60 61 62 63 63 62 62 62 63 64 65
39 39 39 40 40 40 41 41 42 43 43 43 44 44 45 45 46 46 46 46 47 49 50 51 52 52 53 54 56 58 59 61 62 62 62 62 62 62 63 64 65 66
40 40 40 41 41 42 42 43 44 44 44 45 46 46 47 47 48 48 48 48 49 51 52 53 53 54 54 55 57 59 60 61 61 62 62 62 62 63 64 65 67 68
41 41 41 42 42 43 44 44 45 45 46 47 48 48 49 49 49 49 49 50 51 53 54 54 55 55 55 56 58 59 61 61 61 62 62 62 63 64 66 67 68 70
43 43 43 43 44 44 45 46 46 47 48 49 50 50 51 51 51 51 51 52 54 55 55 55 55 55 56 57 59 60 61 62 62 62 62 63 64 66 67 69 70 71
45 45 44 45 45 46 47 47 48 49 50 51 52 52 52 52 52 52 53 54 55 56 56 55 55 55 56 58 60 61 62 62 62 63 63 64 66 67 69 70 71 72
46 46 47 47 48 48 49 50 51 52 52 52 53 53 53 53 54 54 55 56 56 56 55 55 55 56 58 59 61 62 62 62 62 63 64 66 68 69 70 71 72 73
48 48 49 49 50 50 51 52 52 53 53 53 54 54 54 54 55 56 56 56 56 55 54 54 55 57 59 61 61 62 62 63 63 65 67 68 69 70 71 72 74 75
49 50 50 51 51 52 52 52 53 53 54 54 55 55 55 55 56 56 56 55 54 53 54 55 57 59 60 61 62 62 63 64 66 67 68 69 70 71 73 74 75 77
50 50 51 51 52 52 52 53 53 54 54 55 55 55 56 56 56 56 54 53 53 54 56 58 59 60 61 62 63 64 65 66 67 68 69 70 71 73 74 76 76 76
50 50 51 51 52 52 52 53 53 54 54 55 55 56 56 56 55 54 53 53 54 56 58 59 60 61 62 63 64 65 66 67 68 70 71 72 73 74 76 76 76 75
49 49 50 50 51 51 52 53 53 54 54 55 55 55 54 54 53 53 53 55 57 58 59 60 61 62 63 65 66 66 67 68 70 71 72 73 75 76 76 75 74 73
48 49 49 50 50 51 52 52 53 54 54 54 54 54 53 53 53 54 55 57 58 59 60 61 63 64 65 65 66 67 68 70 71 72 73 75 76 75 74 73 73 73
49 50 50 50 51 52 52 53 54 54 54 54 54 54 54 54 55 56 56 57 59 60 62 63 64 64 65 66 68 69 70 71 72 73 75 75 74 73 73 73 73 72
50 50 51 51 52 53 53 54 54 54 54 54 54 55 55 55 56 57 57 59 60 62 63 64 64 65 66 68 69 71 71 72 73 74 73 73 72 72 72 72 72 71
51 51 52 52 53 53 54 54 54 54 55 55 55 55 56 56 57 58 60 61 62 63 63 64 65 67 68 70 71 72 72 73 73 72 71 71 71 72 72 71 70 69
52 52 52 53 53 54 54 54 55 55 55 55 56 56 57 58 59 60 61 62 62 63 64 66 68 69 71 72 72 72 72 72 71 71 70 71 71 72 71 69 68 68
52 52 53 53 53 54 54 55 55 55 56 56 57 58 59 60 61 61 62 62 63 65 67 68 70 71 72 72 72 71 70 70 70 70 71 71 72 71 70 68 67 68
53 53 53 54 54 54 55 55 55 55 56 58 59 60 61 61 62 62 63 64 66 67 69 71 71 72 71 70 69 69 69 69 70 70 71 71 71 70 68 67 68 69
53 53 54 54 54 54 55 55 56 57 59 60 60 61 61 62 63 64 65 67 69 70 71 71 71 70 69 68 67 68 69 69 70 71 71 71 70 69 68 68 69 71
53 53 54 54 55 55 56 57 58 59 60 60 61 61 62 63 65 67 68 70 71 71 70 69 68 67 66 66 67 68 70 70 70 70 70 70 69 68 69 70 72 73
53 54 55 55 56 57 58 59 59 60 60 61 61 62 64 66 67 69 70 70 70 69 68 67 67 66 66 67 68 69 70 70 69 69 69 68 68 69 71 72 74 75
54 55 56 56 57 58 58 59 60 61 61 62 63 65 66 68 69 69 69 68 67 67 66 66 66 67 67 68 69 69 69 69 68 68 67 68 69 70 72 74 75 76
55 56 57 57 58 59 60 61 61 62 63 64 66 67 68 68 68 67 67 66 66 66 66 66 67 67 68 69 69 68 68 68 68 67 68 69 70 72 73 74 75 77

ECMWFNIL_500_spd_111.txt.gz
Wind_Speed
37 37 37 38 38 38 38 38 38 39 39 40 41 41 41 42 42 43 43 43 44 45 45 46 47 48 48 49 49 50 51 52 54 56 57 57 57 57 57 57 58 59
38 38 38 38 38 38 39 39 39 40 40 41 42 42 43 43 44 44 44 45 46 46 47 48 48 49 50 50 51 52 53 55 56 57 58 58 57 57 57 57 58 60
40 39 39 39 39 40 40 40 40 40 41 42 43 44 44 45 45 45 46 47 47 48 49 49 50 51 51 52 53 54 55 56 57 58 58 58 57 57 57 58 60 61
41 41 41 40 41 41 41 41 41 42 42 43 44 45 46 46 46 47 47 48 49 49 50 51 51 52 53 54 55 56 56 57 58 58 57 57 57 57 58 59 60 62
43 42 42 42 42 43 43 42 43 43 44 45 45 46 47 47 47 48 49 50 50 51 52 52 53 53 54 55 56 57 57 57 57 57 57 57 57 58 59 60 61 63
44 44 44 44 44 45 45 44 44 45 46 46 46 47 47 48 49 50 50 51 52 52 53 53 54 55 56 56 57 57 57 57 57 57 57 57 57 58 59 61 62 64
46 46 46 46 46 46 46 46 46 47 47 47 48 48 48 49 50 51 52 52 53 53 54 54 55 56 57 57 57 57 57 57 57 57 57 57 58 59 60 62 64 66
48 48 48 48 48 48 48 48 48 48 49 49 49 49 50 51 51 52 53 54 54 55 55 55 56 57 57 57 56 56 56 57 56 56 57 58 59 60 62 64 66 67
50 50 50 49 49 49 49 49 50 50 50 50 50 51 51 52 53 53 54 55 55 55 56 57 57 57 57 56 56 56 56 56 56 57 58 59 60 62 64 66 67 69
51 51 51 50 50 50 50 50 51 51 51 51 52 52 53 53 54 54 55 55 56 57 57 57 57 56 55 55 56 56 56 56 57 58 59 61 62 64 66 67 68 69
52 51 51 51 51 51 51 51 52 52 52 52 53 53 54 54 55 55 56 57 57 58 58 57 56 55 55 55 56 56 56 57 58 60 61 63 64 66 67 68 68 69
51 51 50 51 51 51 52 52 52 52 53 53 53 54 54 55 56 56 57 58 58 57 57 56 55 55 55 56 56 57 57 58 60 62 63 65 66 67 67 68 69 71
50 50 50 50 51 51 51 52 52 52 53 53 54 54 55 56 57 57 58 57 57 57 56 55 55 55 56 56 57 57 58 60 62 64 65 66 67 67 68 69 71 72
50 50 50 51 51 51 52 52 53 53 53 54 55 55 56 57 57 57 57 57 56 56 56 55 55 55 56 56 57 58 60 62 64 65 66 66 67 68 69 71 72 73
51 51 51 52 52 52 53 53 53 53 54 54 55 55 56 56 56 56 56 56 56 55 55 55 55 56 56 57 58 60 62 64 65 66 66 66 68 70 71 73 72 71
50 51 51 51 51 51 52 52 52 53 53 54 54 55 55 55 55 55 55 55 55 54 54 55 55 56 57 58 60 62 64 65 65 65 66 68 70 72 72 72 70 69
50 50 50 50 50 51 51 52 53 53 54 54 54 54 54 54 54 54 54 54 54 54 54 55 56 57 58 60 62 64 65 65 65 66 68 70 71 72 71 70 68 68
51 51 51 52 52 53 53 54 54 54 54 54 53 53 53 53 53 54 54 54 54 55 55 56 57 59 61 63 64 65 64 65 66 68 70 71 71 70 69 68 68 68
53 54 54 54 54 55 55 54 54 53 53 53 53 53 53 54 54 54 55 55 55 56 57 58 60 62 63 64 65 65 65 66 68 69 70 70 70 68 68 68 68 68
55 55 55 55 55 54 54 53 53 53 53 53 53 53 54 54 55 55 55 55 56 57 59 60 62 63 64 64 65 66 67 69 70 70 70 69 68 67 68 68 69 69
54 54 53 53 53 53 53 53 53 53 53 53 54 54 54 55 55 55 55 56 58 59 61 62 63 64 64 65 66 67 69 70 70 70 68 67 67 68 69 69 70 70
51 51 51 51 52 52 52 52 52 53 53 54 54 54 54 54 55 56 57 58 59 61 62 62 63 64 65 66 67 69 69 70 69 68 67 67 68 69 69 70 70 70
51 51 51 52 52 52 52 53 53 54 54 54 54 54 54 55 56 57 58 60 60 61 62 63 64 65 67 68 69 69 69 68 67 67 68 68 69 70 70 70 69 70
52 53 53 53 53 53 53 54 54 54 53 53 54 55 55 57 58 59 59 60 61 62 63 64 65 67 68 69 69 68 67 67 67 68 68 69 70 71 70 69 69 70
54 54 54 54 54 54 54 54 53 53 53 54 55 56 57 58 59 59 60 61 62 63 64 65 66 68 69 69 68 67 66 66 67 68 70 70 71 70 69 70 71 71
55 55 55 54 54 54 53 53 54 54 55 55 56 57 58 59 60 61 62 62 63 64 65 66 67 68 68 67 66 66 66 67 68 69 70 71 70 70 70 71 71 71

ECMWFNIL_500_spd_114.txt.gz
Wind_Speed
41 42 42 41 40 40 40 41 41 40 40 40 40 40 42 43 44 44 44 44 45 45 46 47 47 47 48 49 50 51 51 52 52 53 54 55 56 56 57 58 58 58
43 43 43 42 42 41 42 42 42 42 42 42 41 42 43 44 45 45 45 46 46 47 47 48 49 49 50 51 52 52 53 54 54 55 55 56 57 58 58 58 58 58
44 44 44 43 43 43 44 44 44 44 43 42 42 43 44 46 47 46 46 47 48 48 48 49 50 51 52 53 53 54 55 55 56 56 57 58 58 58 58 58 58 58
45 45 45 45 45 45 46 46 45 44 44 44 44 45 46 47 48 47 47 48 49 49 50 51 52 52 53 54 55 55 56 56 57 58 58 59 58 58 58 58 58 57
47 47 46 47 47 47 47 47 46 46 45 45 46 47 47 48 49 49 49 50 50 51 51 52 53 54 55 55 56 57 57 58 58 59 59 59 58 57 57 57 57 56
48 48 48 48 48 48 48 48 48 48 47 47 47 48 49 50 50 50 50 51 52 52 53 53 54 55 56 56 57 58 58 59 59 59 59 58 57 57 57 57 56 55
49 50 50 50 50 50 50 50 50 49 49 49 49 50 50 51 51 52 52 52 53 53 54 55 55 56 57 58 58 59 59 59 59 59 58 57 57 57 57 56 55 55
51 51 51 52 52 52 52 51 51 51 50 51 51 52 52 52 52 53 53 54 54 54 55 56 56 57 58 59 59 59 59 59 59 58 57 56 57 57 56 55 55 56
52 52 52 53 53 53 52 52 52 52 52 53 53 53 53 53 53 53 54 54 54 55 56 57 58 59 59 59 59 59 59 59 58 57 56 56 56 56 55 55 55 57
52 53 53 53 53 53 53 54 54 54 54 54 54 54 54 54 54 54 54 55 55 56 57 58 59 59 59 59 59 58 58 58 57 56 56 56 55 55 55 56 57 59
54 54 54 54 54 55 55 55 55 56 56 56 55 55 54 54 54 54 55 55 56 57 58 58 59 58 58 58 58 58 57 56 56 55 55 55 55 56 56 57 60 62
56 55 55 55 55 56 56 56 56 57 56 56 55 54 54 54 54 55 55 56 57 57 58 58 58 57 57 57 57 57 56 55 55 55 56 56 56 57 58 60 62 63
56 56 55 55 56 56 56 56 56 56 56 55 54 54 54 55 55 56 56 56 57 57 57 57 57 57 57 56 56 55 55 55 56 56 57 57 57 59 60 62 63 65
56 56 56 55 55 55 56 56 56 55 55 55 54 55 55 55 56 56 56 56 57 57 56 56 56 56 56 56 55 56 56 57 57 57 57 58 59 60 62 63 65 65
56 56 55 55 55 55 55 55 55 55 55 55 55 55 56 56 56 56 56 56 56 56 55 55 55 55 56 56 56 56 57 58 58 58 59 60 61 62 63 64 65 65
56 55 55 54 54 54 54 55 55 55 55 55 55 55 56 56 56 56 55 55 55 55 55 55 56 56 57 57 57 57 58 59 59 59 60 61 62 63 64 65 65 65
55 55 55 55 55 55 55 56 56 56 56 56 56 56 56 56 56 55 55 55 55 56 56 56 56 57 57 57 58 58 59 59 60 61 61 62 63 64 64 64 65 66
56 55 55 55 56 56 56 57 57 57 57 57 57 57 57 57 56 56 56 57 57 57 56 56 56 56 57 57 58 59 60 60 61 61 62 63 63 64 64 64 65 67
55 55 54 55 55 55 56 56 56 57 57 58 58 58 58 58 58 58 58 58 57 56 56 56 56 57 57 58 59 60 60 61 61 61 62 63 63 63 64 66 67 68
53 53 53 54 55 55 56 57 57 58 58 58 59 59 59 59 59 58 58 57 56 56 56 56 57 58 58 59 60 60 60 60 61 61 62 62 63 64 66 67 67 67
54 54 54 55 55 56 56 57 57 57 58 58 58 59 59 58 58 58 57 56 56 56 57 57 58 59 59 59 59 59 59 60 60 61 62 63 64 66 67 67 67 66
55 55 55 55 55 56 56 57 57 57 58 58 59 59 59 58 58 57 57 57 57 58 58 59 59 59 58 58 58 58 59 60 61 62 63 64 66 67 67 67 65 65
56 56 56 57 57 57 57 57 58 58 58 58 58 58 58 57 57 57 58 58 59 59 59 58 57 57 57 57 58 58 60 61 62 63 65 66 67 67 66 65 64 65
56 57 57 57 57 57 57 57 57 57 57 57 57 57 58 58 58 58 59 58 58 57 56 56 55 56 56 57 58 60 61 63 64 65 66 67 66 65 64 64 65 66
55 55 56 56 56 56 56 56 56 57 57 57 57 58 58 58 58 58 57 56 55 54 54 55 55 56 57 58 60 61 63 64 66 66 66 66 65 64 64 65 66 67
54 54 54 55 55 55 55 56 56 57 57 58 58 58 58 58 57 55 54 54 54 54 55 56 57 58 59 60 62 63 65 66 66 66 65 64 64 64 65 65 67 68

ECMWFNIL_500_spd_117.txt.gz
Wind_Speed
47 47 47 46 47 49 49 49 49 48 48 47 46 45 44 43 42 42 43 43 44 45 46 47 47 48 48 48 49 50 50 51 52 52 53 54 54 55 55 56 57 58
47 47 47 47 47 48 48 49 49 49 50 49 48 47 47 45 44 43 44 45 46 47 48 48 49 50 50 50 50 51 52 53 53 54 54 55 55 56 57 57 58 59
49 48 48 48 48 48 48 49 49 50 51 50 49 49 49 47 46 46 46 47 48 49 49 49 50 51 52 51 52 53 54 54 55 55 56 56 57 57 58 59 59 60
50 49 49 49 49 49 49 49 50 51 52 51 49 50 50 49 49 49 49 49 50 51 51 51 51 53 53 53 54 55 55 56 56 57 57 57 58 58 59 60 60 60
51 51 50 50 51 51 50 51 51 52 53 51 50 51 52 51 51 51 51 52 53 53 52 52 53 54 54 54 56 56 57 57 58 58 58 58 59 59 60 60 60 60
53 53 52 52 53 53 52 52 53 53 53 52 52 53 53 52 53 53 53 54 54 55 54 54 55 56 56 56 57 58 58 58 58 58 59 59 59 60 60 60 60 59
55 55 55 54 55 55 54 54 54 54 54 54 54 54 54 54 55 55 55 56 56 56 56 56 57 58 58 58 59 59 59 59 59 59 59 59 60 60 60 60 59 58
57 57 57 57 57 57 57 56 55 55 55 55 55 55 55 55 56 56 56 57 58 58 58 58 59 60 60 60 60 60 60 60 59 59 59 59 60 60 60 59 58 57
59 59 59 59 59 59 58 57 57 57 57 57 57 57 57 57 58 58 58 58 59 59 60 60 61 61 61 61 61 60 60 60 60 59 59 59 60 59 59 57 56 56
61 61 61 61 60 60 60 59 59 58 58 58 58 58 58 58 59 59 59 59 60 60 61 62 62 62 62 61 61 60 60 60 60 59 59 59 59 58 57 56 56 56
63 63 63 63 62 62 62 61 61 60 60 59 59 59 59 59 59 59 60 60 60 61 62 62 62 61 61 61 60 60 60 60 59 59 58 58 57 57 56 56 56 57
64 64 64 64 64 64 64 63 62 62 61 61 60 59 60 60 60 60 60 61 61 61 62 62 61 61 60 60 60 59 59 59 58 57 57 56 57 57 56 56 57 58
65 65 64 64 65 65 64 64 63 63 62 61 61 60 60 61 60 60 60 61 61 61 61 61 60 60 60 59 59 58 57 57 56 56 56 56 57 56 56 57 58 59
65 65 64 64 64 64 64 64 63 63 62 62 61 61 61 61 60 60 60 60 61 60 60 59 59 59 58 58 57 56 56 55 55 56 56 56 57 57 57 58 59 59
68 66 65 64 63 63 63 63 62 62 62 61 61 61 60 60 60 60 59 60 60 60 59 58 58 58 57 56 55 55 55 55 55 56 57 57 58 58 59 59 59 59
70 69 67 65 64 63 63 63 63 62 62 61 61 60 60 60 59 59 59 59 59 59 58 58 57 56 56 55 55 54 55 56 56 58 59 59 60 59 59 59 59 60
70 70 69 67 65 64 64 63 63 62 61 61 60 60 59 59 59 59 58 59 58 58 57 57 56 56 55 55 55 56 57 58 59 60 60 60 59 59 59 59 59 59
68 68 68 67 66 65 65 65 64 63 62 61 60 59 59 59 58 58 58 58 58 57 56 56 56 56 56 56 57 58 59 60 61 61 60 59 58 58 59 59 58 58
67 66 66 66 65 65 65 64 64 63 62 61 60 59 59 58 58 58 57 57 56 56 56 56 57 57 58 59 60 61 61 61 61 59 58 58 58 59 59 58 57 56
65 66 66 65 64 64 63 63 62 62 61 61 60 59 59 58 57 57 56 56 56 57 58 58 59 60 61 61 62 62 61 60 58 58 58 58 59 58 57 56 56 56
61 63 64 64 64 63 62 60 59 58 58 58 58 58 57 57 56 56 56 56 58 59 60 61 62 62 62 62 61 60 59 58 58 58 58 58 57 56 55 56 56 57
59 60 61 62 62 62 61 60 59 57 56 56 56 56 56 56 57 57 58 60 61 61 62 62 62 61 61 60 59 59 59 59 58 58 57 56 55 55 55 56 57 58
58 59 59 59 58 58 58 58 58 58 58 59 59 59 59 59 60 60 61 61 62 61 61 60 60 59 59 59 59 59 58 58 57 56 55 55 55 55 56 57 58 59
57 58 58 57 56 56 55 54 55 55 56 57 57 57 58 58 59 59 59 60 59 59 58 58 58 58 59 59 59 58 57 55 54 54 54 54 55 56 57 58 59 60
58 57 56 56 55 54 53 53 53 53 53 53 54 54 55 56 56 56 57 57 57 57 58 58 59 59 59 57 56 54 53 53 52 53 54 55 56 57 58 59 60 60
59 58 57 55 55 54 53 53 53 53 53 54 54 55 55 55 55 56 56 57 57 58 58 58 57 55 54 53 51 51 51 51 52 53 55 56 57 58 58 59 60 60